Wetterdaten: Montag, 20.02.2023
Datum Zeit Temp. 2m Temp +5 cm Feuchte A. Luftdruck Regen Wind Richtung Richtung Sonnenschein UV Solar Taupunkt Windchill Windben
20.02.2023 00:00 2,3 C 0,6 C 91 % 1029,3 hPa 0,0 l/m 3,2 km/h (1 Bft) S-SW 202 0 min 0,0 UV-I 0 W/m 1,0 C 2,3 C 4,8 km/h (1 Bft)
20.02.2023 00:01 2,3 C 0,6 C 92 % 1029,3 hPa 0,0 l/m 3,2 km/h (1 Bft) S-SW 202 0 min 0,0 UV-I 0 W/m 1,1 C 2,3 C 4,8 km/h (1 Bft)
20.02.2023 00:02 2,3 C 0,6 C 91 % 1029,3 hPa 0,0 l/m 1,6 km/h (1 Bft) S-SW 202 0 min 0,0 UV-I 0 W/m 1,0 C 2,3 C 4,8 km/h (1 Bft)
20.02.2023 00:03 2,3 C 0,6 C 91 % 1029,2 hPa 0,0 l/m 3,2 km/h (1 Bft) S-SW 202 0 min 0,0 UV-I 0 W/m 1,0 C 2,3 C 4,8 km/h (1 Bft)
20.02.2023 00:04 2,3 C 1,1 C 91 % 1029,3 hPa 0,0 l/m 3,2 km/h (1 Bft) S-SW 202 0 min 0,0 UV-I 0 W/m 1,0 C 2,3 C 4,8 km/h (1 Bft)
20.02.2023 00:05 2,3 C 0,6 C 92 % 1029,2 hPa 0,0 l/m 3,2 km/h (1 Bft) S-SW 202 0 min 0,0 UV-I 0 W/m 1,1 C 2,3 C 4,8 km/h (1 Bft)
20.02.2023 00:06 2,3 C 0,6 C 92 % 1029,3 hPa 0,0 l/m 3,2 km/h (1 Bft) S-SW 202 0 min 0,0 UV-I 0 W/m 1,1 C 2,3 C 4,8 km/h (1 Bft)
20.02.2023 00:07 2,3 C 0,6 C 92 % 1029,3 hPa 0,0 l/m 1,6 km/h (1 Bft) S-SW 202 0 min 0,0 UV-I 0 W/m 1,1 C 2,3 C 4,8 km/h (1 Bft)
20.02.2023 00:08 2,3 C 0,6 C 92 % 1029,4 hPa 0,0 l/m 3,2 km/h (1 Bft) S-SW 202 0 min 0,0 UV-I 0 W/m 1,1 C 2,3 C 4,8 km/h (1 Bft)
20.02.2023 00:09 2,3 C 0,6 C 92 % 1029,4 hPa 0,0 l/m 3,2 km/h (1 Bft) SW 225 0 min 0,0 UV-I 0 W/m 1,1 C 2,3 C 6,4 km/h (2 Bft)
20.02.2023 00:10 2,2 C 0,6 C 92 % 1029,4 hPa 0,0 l/m 3,2 km/h (1 Bft) S-SW 202 0 min 0,0 UV-I 0 W/m 1,0 C 2,2 C 8,0 km/h (2 Bft)
20.02.2023 00:11 2,3 C 1,1 C 92 % 1029,4 hPa 0,0 l/m 1,6 km/h (1 Bft) S-SW 202 0 min 0,0 UV-I 0 W/m 1,1 C 2,3 C 1,6 km/h (1 Bft)
20.02.2023 00:12 2,3 C 0,6 C 92 % 1029,4 hPa 0,0 l/m 3,2 km/h (1 Bft) S-SW 202 0 min 0,0 UV-I 0 W/m 1,1 C 2,3 C 8,0 km/h (2 Bft)
20.02.2023 00:13 2,3 C 1,1 C 92 % 1029,3 hPa 0,0 l/m 1,6 km/h (1 Bft) SW 225 0 min 0,0 UV-I 0 W/m 1,1 C 2,3 C 4,8 km/h (1 Bft)
20.02.2023 00:14 2,3 C 1,1 C 92 % 1029,3 hPa 0,0 l/m 3,2 km/h (1 Bft) SW 225 0 min 0,0 UV-I 0 W/m 1,1 C 2,3 C 12,9 km/h (3 Bft)
20.02.2023 00:15 2,3 C 1,1 C 92 % 1029,3 hPa 0,0 l/m 4,8 km/h (1 Bft) SW 225 0 min 0,0 UV-I 0 W/m 1,1 C 2,3 C 8,0 km/h (2 Bft)
20.02.2023 00:16 2,3 C 1,1 C 92 % 1029,4 hPa 0,0 l/m 1,6 km/h (1 Bft) SW 225 0 min 0,0 UV-I 0 W/m 1,1 C 2,3 C 12,9 km/h (3 Bft)
20.02.2023 00:17 2,3 C 1,1 C 92 % 1029,4 hPa 0,0 l/m 3,2 km/h (1 Bft) SW 225 0 min 0,0 UV-I 0 W/m 1,1 C 2,3 C 4,8 km/h (1 Bft)
20.02.2023 00:18 2,3 C 1,1 C 92 % 1029,3 hPa 0,0 l/m 0,0 km/h (0 Bft) S-SW 202 0 min 0,0 UV-I 0 W/m 1,1 C 2,3 C 1,6 km/h (1 Bft)
20.02.2023 00:19 2,3 C 1,1 C 92 % 1029,4 hPa 0,0 l/m 0,0 km/h (0 Bft) S-SW 202 0 min 0,0 UV-I 0 W/m 1,1 C 2,3 C 1,6 km/h (1 Bft)
20.02.2023 00:20 2,3 C 0,6 C 92 % 1029,2 hPa 0,0 l/m 0,0 km/h (0 Bft) S-SW 202 0 min 0,0 UV-I 0 W/m 1,1 C 2,3 C 1,6 km/h (1 Bft)
20.02.2023 00:21 2,3 C 0,6 C 92 % 1029,3 hPa 0,0 l/m 1,6 km/h (1 Bft) S-SW 202 0 min 0,0 UV-I 0 W/m 1,1 C 2,3 C 3,2 km/h (1 Bft)
20.02.2023 00:22 2,3 C 0,6 C 92 % 1029,3 hPa 0,0 l/m 0,0 km/h (0 Bft) S-SW 202 0 min 0,0 UV-I 0 W/m 1,1 C 2,3 C 1,6 km/h (1 Bft)
20.02.2023 00:23 2,2 C 0,6 C 92 % 1029,3 hPa 0,0 l/m 1,6 km/h (1 Bft) S-SW 202 0 min 0,0 UV-I 0 W/m 1,0 C 2,2 C 3,2 km/h (1 Bft)
20.02.2023 00:24 2,2 C 0,6 C 92 % 1029,3 hPa 0,0 l/m 1,6 km/h (1 Bft) SW 225 0 min 0,0 UV-I 0 W/m 1,0 C 2,2 C 4,8 km/h (1 Bft)
20.02.2023 00:25 2,2 C 0,6 C 92 % 1029,4 hPa 0,0 l/m 1,6 km/h (1 Bft) SW 225 0 min 0,0 UV-I 0 W/m 1,0 C 2,2 C 4,8 km/h (1 Bft)
20.02.2023 00:26 2,2 C 0,6 C 92 % 1029,4 hPa 0,0 l/m 0,0 km/h (0 Bft) SW 225 0 min 0,0 UV-I 0 W/m 1,0 C 2,2 C 1,6 km/h (1 Bft)
20.02.2023 00:27 2,1 C 0,6 C 92 % 1029,4 hPa 0,0 l/m 1,6 km/h (1 Bft) SW 225 0 min 0,0 UV-I 0 W/m 0,9 C 2,1 C 4,8 km/h (1 Bft)
20.02.2023 00:28 2,1 C 0,6 C 92 % 1029,4 hPa 0,0 l/m 3,2 km/h (1 Bft) SW 225 0 min 0,0 UV-I 0 W/m 0,9 C 2,1 C 4,8 km/h (1 Bft)
20.02.2023 00:29 2,1 C 0,6 C 92 % 1029,4 hPa 0,0 l/m 3,2 km/h (1 Bft) SW 225 0 min 0,0 UV-I 0 W/m 0,9 C 2,1 C 6,4 km/h (2 Bft)
20.02.2023 00:30 2,2 C 0,6 C 92 % 1029,4 hPa 0,0 l/m 1,6 km/h (1 Bft) S-SW 202 0 min 0,0 UV-I 0 W/m 1,0 C 2,2 C 6,4 km/h (2 Bft)
20.02.2023 00:31 2,2 C 0,6 C 92 % 1029,5 hPa 0,0 l/m 3,2 km/h (1 Bft) SW 225 0 min 0,0 UV-I 0 W/m 1,0 C 2,2 C 6,4 km/h (2 Bft)
20.02.2023 00:32 2,2 C 0,6 C 92 % 1029,5 hPa 0,0 l/m 3,2 km/h (1 Bft) SW 225 0 min 0,0 UV-I 0 W/m 1,0 C 2,2 C 6,4 km/h (2 Bft)
20.02.2023 00:33 2,2 C 0,6 C 92 % 1029,6 hPa 0,0 l/m 3,2 km/h (1 Bft) SW 225 0 min 0,0 UV-I 0 W/m 1,0 C 2,2 C 6,4 km/h (2 Bft)
20.02.2023 00:34 2,2 C 0,6 C 92 % 1029,4 hPa 0,0 l/m 1,6 km/h (1 Bft) SW 225 0 min 0,0 UV-I 0 W/m 1,0 C 2,2 C 3,2 km/h (1 Bft)
20.02.2023 00:35 2,2 C 0,6 C 92 % 1029,5 hPa 0,0 l/m 1,6 km/h (1 Bft) SW 225 0 min 0,0 UV-I 0 W/m 1,0 C 2,2 C 3,2 km/h (1 Bft)
20.02.2023 00:36 2,2 C 0,6 C 92 % 1029,3 hPa 0,0 l/m 3,2 km/h (1 Bft) SW 225 0 min 0,0 UV-I 0 W/m 1,0 C 2,2 C 6,4 km/h (2 Bft)
20.02.2023 00:37 2,1 C 0,6 C 92 % 1029,4 hPa 0,0 l/m 3,2 km/h (1 Bft) SW 225 0 min 0,0 UV-I 0 W/m 0,9 C 2,1 C 6,4 km/h (2 Bft)
20.02.2023 00:38 2,1 C 0,6 C 92 % 1029,5 hPa 0,0 l/m 1,6 km/h (1 Bft) SW 225 0 min 0,0 UV-I 0 W/m 0,9 C 2,1 C 3,2 km/h (1 Bft)
20.02.2023 00:39 2,2 C 0,6 C 92 % 1029,5 hPa 0,0 l/m 1,6 km/h (1 Bft) SW 225 0 min 0,0 UV-I 0 W/m 1,0 C 2,2 C 4,8 km/h (1 Bft)
20.02.2023 00:40 2,2 C 0,6 C 92 % 1029,5 hPa 0,0 l/m 1,6 km/h (1 Bft) SW 225 0 min 0,0 UV-I 0 W/m 1,0 C 2,2 C 3,2 km/h (1 Bft)
20.02.2023 00:41 2,2 C 0,6 C 92 % 1029,5 hPa 0,0 l/m 3,2 km/h (1 Bft) SW 225 0 min 0,0 UV-I 0 W/m 1,0 C 2,2 C 3,2 km/h (1 Bft)
20.02.2023 00:42 2,2 C 0,6 C 92 % 1029,5 hPa 0,0 l/m 4,8 km/h (1 Bft) S-SW 202 0 min 0,0 UV-I 0 W/m 1,0 C 2,2 C 8,0 km/h (2 Bft)
20.02.2023 00:43 2,1 C 0,6 C 92 % 1029,4 hPa 0,0 l/m 4,8 km/h (1 Bft) SW 225 0 min 0,0 UV-I 0 W/m 0,9 C 2,1 C 9,7 km/h (2 Bft)
20.02.2023 00:44 2,2 C 0,6 C 92 % 1029,4 hPa 0,0 l/m 6,4 km/h (2 Bft) S-SW 202 0 min 0,0 UV-I 0 W/m 1,0 C 2,2 C 9,7 km/h (2 Bft)
20.02.2023 00:45 2,2 C 0,6 C 92 % 1029,4 hPa 0,0 l/m 4,8 km/h (1 Bft) S-SW 202 0 min 0,0 UV-I 0 W/m 1,0 C 2,2 C 6,4 km/h (2 Bft)
20.02.2023 00:46 2,2 C 0,6 C 92 % 1029,5 hPa 0,0 l/m 4,8 km/h (1 Bft) SW 225 0 min 0,0 UV-I 0 W/m 1,0 C 2,2 C 8,0 km/h (2 Bft)
20.02.2023 00:47 2,2 C 0,6 C 92 % 1029,3 hPa 0,0 l/m 3,2 km/h (1 Bft) SW 225 0 min 0,0 UV-I 0 W/m 1,0 C 2,2 C 6,4 km/h (2 Bft)
20.02.2023 00:48 2,2 C 1,1 C 92 % 1029,4 hPa 0,0 l/m 4,8 km/h (1 Bft) S-SW 202 0 min 0,0 UV-I 0 W/m 1,0 C 2,2 C 8,0 km/h (2 Bft)
20.02.2023 00:49 2,3 C 1,1 C 92 % 1029,4 hPa 0,0 l/m 3,2 km/h (1 Bft) SW 225 0 min 0,0 UV-I 0 W/m 1,1 C 2,3 C 4,8 km/h (1 Bft)
20.02.2023 00:50 2,2 C 1,1 C 92 % 1029,4 hPa 0,0 l/m 3,2 km/h (1 Bft) S-SW 202 0 min 0,0 UV-I 0 W/m 1,0 C 2,2 C 6,4 km/h (2 Bft)
20.02.2023 00:51 2,2 C 1,1 C 92 % 1029,3 hPa 0,0 l/m 1,6 km/h (1 Bft) S-SW 202 0 min 0,0 UV-I 0 W/m 1,0 C 2,2 C 4,8 km/h (1 Bft)
20.02.2023 00:52 2,2 C 0,6 C 92 % 1029,3 hPa 0,0 l/m 3,2 km/h (1 Bft) S-SW 202 0 min 0,0 UV-I 0 W/m 1,0 C 2,2 C 4,8 km/h (1 Bft)
20.02.2023 00:53 2,2 C 0,6 C 92 % 1029,3 hPa 0,0 l/m 4,8 km/h (1 Bft) SW 225 0 min 0,0 UV-I 0 W/m 1,0 C 2,2 C 6,4 km/h (2 Bft)
20.02.2023 00:54 2,2 C 0,6 C 92 % 1029,4 hPa 0,0 l/m 4,8 km/h (1 Bft) S-SW 202 0 min 0,0 UV-I 0 W/m 1,0 C 2,2 C 8,0 km/h (2 Bft)
20.02.2023 00:55 2,2 C 0,6 C 92 % 1029,4 hPa 0,0 l/m 3,2 km/h (1 Bft) SW 225 0 min 0,0 UV-I 0 W/m 1,0 C 2,2 C 6,4 km/h (2 Bft)
20.02.2023 00:56 2,2 C 0,6 C 92 % 1029,3 hPa 0,0 l/m 3,2 km/h (1 Bft) SW 225 0 min 0,0 UV-I 0 W/m 1,0 C 2,2 C 4,8 km/h (1 Bft)
20.02.2023 00:57 2,2 C 0,6 C 92 % 1029,3 hPa 0,0 l/m 1,6 km/h (1 Bft) SW 225 0 min 0,0 UV-I 0 W/m 1,0 C 2,2 C 6,4 km/h (2 Bft)
20.02.2023 00:58 2,2 C 0,6 C 92 % 1029,3 hPa 0,0 l/m 3,2 km/h (1 Bft) SW 225 0 min 0,0 UV-I 0 W/m 1,0 C 2,2 C 4,8 km/h (1 Bft)
20.02.2023 00:59 2,2 C 0,6 C 92 % 1029,3 hPa 0,0 l/m 3,2 km/h (1 Bft) SW 225 0 min 0,0 UV-I 0 W/m 1,0 C 2,2 C 4,8 km/h (1 Bft)
20.02.2023 01:00 2,2 C 0,6 C 92 % 1029,3 hPa 0,0 l/m 3,2 km/h (1 Bft) S-SW 202 0 min 0,0 UV-I 0 W/m 1,0 C 2,2 C 6,4 km/h (2 Bft)
20.02.2023 01:01 2,1 C 0,6 C 92 % 1029,3 hPa 0,0 l/m 6,4 km/h (2 Bft) S-SW 202 0 min 0,0 UV-I 0 W/m 0,9 C 2,1 C 8,0 km/h (2 Bft)
20.02.2023 01:02 2,1 C 0,6 C 92 % 1029,3 hPa 0,0 l/m 4,8 km/h (1 Bft) S-SW 202 0 min 0,0 UV-I 0 W/m 0,9 C 2,1 C 6,4 km/h (2 Bft)
20.02.2023 01:03 2,1 C 0,6 C 92 % 1029,4 hPa 0,0 l/m 8,0 km/h (2 Bft) S-SW 202 0 min 0,0 UV-I 0 W/m 0,9 C 0,6 C 9,7 km/h (2 Bft)
20.02.2023 01:04 2,2 C 0,6 C 92 % 1029,4 hPa 0,0 l/m 6,4 km/h (2 Bft) S-SW 202 0 min 0,0 UV-I 0 W/m 1,0 C 2,2 C 9,7 km/h (2 Bft)
20.02.2023 01:05 2,2 C 0,6 C 92 % 1029,3 hPa 0,0 l/m 6,4 km/h (2 Bft) S-SW 202 0 min 0,0 UV-I 0 W/m 1,0 C 2,2 C 8,0 km/h (2 Bft)
20.02.2023 01:06 2,2 C 0,6 C 92 % 1029,4 hPa 0,0 l/m 8,0 km/h (2 Bft) S-SW 202 0 min 0,0 UV-I 0 W/m 1,0 C 0,7 C 9,7 km/h (2 Bft)
20.02.2023 01:07 2,3 C 1,1 C 93 % 1029,3 hPa 0,0 l/m 6,4 km/h (2 Bft) S-SW 202 0 min 0,0 UV-I 0 W/m 1,3 C 2,3 C 9,7 km/h (2 Bft)
20.02.2023 01:08 2,3 C 1,1 C 93 % 1029,4 hPa 0,0 l/m 3,2 km/h (1 Bft) S-SW 202 0 min 0,0 UV-I 0 W/m 1,3 C 2,3 C 4,8 km/h (1 Bft)
20.02.2023 01:09 2,3 C 1,1 C 92 % 1029,4 hPa 0,0 l/m 4,8 km/h (1 Bft) S-SW 202 0 min 0,0 UV-I 0 W/m 1,1 C 2,3 C 8,0 km/h (2 Bft)
20.02.2023 01:10 2,2 C 0,6 C 92 % 1029,4 hPa 0,0 l/m 4,8 km/h (1 Bft) S-SW 202 0 min 0,0 UV-I 0 W/m 1,0 C 2,2 C 8,0 km/h (2 Bft)
20.02.2023 01:11 2,3 C 1,1 C 92 % 1029,4 hPa 0,0 l/m 4,8 km/h (1 Bft) S-SW 202 0 min 0,0 UV-I 0 W/m 1,1 C 2,3 C 8,0 km/h (2 Bft)
20.02.2023 01:12 2,3 C 1,1 C 92 % 1029,3 hPa 0,0 l/m 6,4 km/h (2 Bft) S-SW 202 0 min 0,0 UV-I 0 W/m 1,1 C 2,3 C 8,0 km/h (2 Bft)
20.02.2023 01:13 2,3 C 1,1 C 93 % 1029,4 hPa 0,0 l/m 6,4 km/h (2 Bft) S-SW 202 0 min 0,0 UV-I 0 W/m 1,3 C 2,3 C 9,7 km/h (2 Bft)
20.02.2023 01:14 2,3 C 1,1 C 92 % 1029,4 hPa 0,0 l/m 6,4 km/h (2 Bft) S-SW 202 0 min 0,0 UV-I 0 W/m 1,1 C 2,3 C 9,7 km/h (2 Bft)
20.02.2023 01:15 2,3 C 1,1 C 92 % 1029,4 hPa 0,0 l/m 6,4 km/h (2 Bft) S-SW 202 0 min 0,0 UV-I 0 W/m 1,1 C 2,3 C 9,7 km/h (2 Bft)
20.02.2023 01:16 2,3 C 1,1 C 92 % 1029,4 hPa 0,0 l/m 6,4 km/h (2 Bft) S 180 0 min 0,0 UV-I 0 W/m 1,1 C 2,3 C 9,7 km/h (2 Bft)
20.02.2023 01:17 2,3 C 1,1 C 92 % 1029,4 hPa 0,0 l/m 6,4 km/h (2 Bft) S-SW 202 0 min 0,0 UV-I 0 W/m 1,1 C 2,3 C 8,0 km/h (2 Bft)
20.02.2023 01:18 2,2 C 1,1 C 92 % 1029,4 hPa 0,0 l/m 4,8 km/h (1 Bft) S-SW 202 0 min 0,0 UV-I 0 W/m 1,0 C 2,2 C 6,4 km/h (2 Bft)
20.02.2023 01:19 2,2 C 1,1 C 92 % 1029,3 hPa 0,0 l/m 4,8 km/h (1 Bft) S-SW 202 0 min 0,0 UV-I 0 W/m 1,0 C 2,2 C 6,4 km/h (2 Bft)
20.02.2023 01:20 2,2 C 0,6 C 92 % 1029,3 hPa 0,0 l/m 3,2 km/h (1 Bft) S-SW 202 0 min 0,0 UV-I 0 W/m 1,0 C 2,2 C 4,8 km/h (1 Bft)
20.02.2023 01:21 2,1 C 0,6 C 92 % 1029,4 hPa 0,0 l/m 4,8 km/h (1 Bft) S-SW 202 0 min 0,0 UV-I 0 W/m 0,9 C 2,1 C 6,4 km/h (2 Bft)
20.02.2023 01:22 2,1 C 0,6 C 92 % 1029,3 hPa 0,0 l/m 1,6 km/h (1 Bft) S-SW 202 0 min 0,0 UV-I 0 W/m 0,9 C 2,1 C 4,8 km/h (1 Bft)
20.02.2023 01:23 2,1 C 0,6 C 92 % 1029,3 hPa 0,0 l/m 3,2 km/h (1 Bft) S-SW 202 0 min 0,0 UV-I 0 W/m 0,9 C 2,1 C 4,8 km/h (1 Bft)
20.02.2023 01:24 2,1 C 0,6 C 92 % 1029,2 hPa 0,0 l/m 3,2 km/h (1 Bft) S-SW 202 0 min 0,0 UV-I 0 W/m 0,9 C 2,1 C 4,8 km/h (1 Bft)
20.02.2023 01:25 2,1 C 0,6 C 92 % 1029,3 hPa 0,0 l/m 1,6 km/h (1 Bft) S-SW 202 0 min 0,0 UV-I 0 W/m 0,9 C 2,1 C 4,8 km/h (1 Bft)
20.02.2023 01:26 2,2 C 0,6 C 92 % 1029,3 hPa 0,0 l/m 4,8 km/h (1 Bft) S 180 0 min 0,0 UV-I 0 W/m 1,0 C 2,2 C 8,0 km/h (2 Bft)
20.02.2023 01:27 2,2 C 0,6 C 92 % 1029,2 hPa 0,0 l/m 3,2 km/h (1 Bft) S 180 0 min 0,0 UV-I 0 W/m 1,0 C 2,2 C 4,8 km/h (1 Bft)
20.02.2023 01:28 2,1 C 0,6 C 92 % 1029,2 hPa 0,0 l/m 3,2 km/h (1 Bft) S 180 0 min 0,0 UV-I 0 W/m 0,9 C 2,1 C 6,4 km/h (2 Bft)
20.02.2023 01:29 2,2 C 0,6 C 92 % 1029,2 hPa 0,0 l/m 4,8 km/h (1 Bft) S-SW 202 0 min 0,0 UV-I 0 W/m 1,0 C 2,2 C 6,4 km/h (2 Bft)
20.02.2023 01:30 2,2 C 0,6 C 92 % 1029,2 hPa 0,0 l/m 3,2 km/h (1 Bft) S-SW 202 0 min 0,0 UV-I 0 W/m 1,0 C 2,2 C 4,8 km/h (1 Bft)
20.02.2023 01:31 2,1 C 0,6 C 92 % 1029,3 hPa 0,0 l/m 3,2 km/h (1 Bft) S-SW 202 0 min 0,0 UV-I 0 W/m 0,9 C 2,1 C 6,4 km/h (2 Bft)
20.02.2023 01:32 2,2 C 0,6 C 92 % 1029,2 hPa 0,0 l/m 4,8 km/h (1 Bft) S-SW 202 0 min 0,0 UV-I 0 W/m 1,0 C 2,2 C 6,4 km/h (2 Bft)
20.02.2023 01:33 2,2 C 0,6 C 92 % 1029,1 hPa 0,0 l/m 3,2 km/h (1 Bft) S-SW 202 0 min 0,0 UV-I 0 W/m 1,0 C 2,2 C 4,8 km/h (1 Bft)
20.02.2023 01:34 2,1 C 0,6 C 92 % 1029,1 hPa 0,0 l/m 3,2 km/h (1 Bft) S-SW 202 0 min 0,0 UV-I 0 W/m 0,9 C 2,1 C 4,8 km/h (1 Bft)
20.02.2023 01:35 2,1 C 0,6 C 92 % 1029,2 hPa 0,0 l/m 1,6 km/h (1 Bft) S-SW 202 0 min 0,0 UV-I 0 W/m 0,9 C 2,1 C 3,2 km/h (1 Bft)
20.02.2023 01:36 2,1 C 0,6 C 92 % 1029,1 hPa 0,0 l/m 1,6 km/h (1 Bft) S-SW 202 0 min 0,0 UV-I 0 W/m 0,9 C 2,1 C 3,2 km/h (1 Bft)
20.02.2023 01:37 2,1 C 0,0 C 92 % 1029,1 hPa 0,0 l/m 1,6 km/h (1 Bft) S-SW 202 0 min 0,0 UV-I 0 W/m 0,9 C 2,1 C 1,6 km/h (1 Bft)
20.02.2023 01:38 2,1 C 0,0 C 92 % 1029,0 hPa 0,0 l/m 1,6 km/h (1 Bft) S-SW 202 0 min 0,0 UV-I 0 W/m 0,9 C 2,1 C 3,2 km/h (1 Bft)
20.02.2023 01:39 2,0 C 0,0 C 92 % 1029,2 hPa 0,0 l/m 3,2 km/h (1 Bft) S-SW 202 0 min 0,0 UV-I 0 W/m 0,8 C 2,0 C 6,4 km/h (2 Bft)
20.02.2023 01:40 2,0 C 0,0 C 92 % 1029,2 hPa 0,0 l/m 1,6 km/h (1 Bft) S-SW 202 0 min 0,0 UV-I 0 W/m 0,8 C 2,0 C 3,2 km/h (1 Bft)
20.02.2023 01:41 2,0 C 0,6 C 93 % 1029,1 hPa 0,0 l/m 1,6 km/h (1 Bft) S-SW 202 0 min 0,0 UV-I 0 W/m 1,0 C 2,0 C 1,6 km/h (1 Bft)
20.02.2023 01:42 2,0 C 0,6 C 93 % 1029,1 hPa 0,0 l/m 1,6 km/h (1 Bft) S-SW 202 0 min 0,0 UV-I 0 W/m 1,0 C 2,0 C 4,8 km/h (1 Bft)
20.02.2023 01:43 1,9 C 0,6 C 93 % 1029,0 hPa 0,0 l/m 1,6 km/h (1 Bft) S-SW 202 0 min 0,0 UV-I 0 W/m 0,9 C 1,9 C 3,2 km/h (1 Bft)
20.02.2023 01:44 1,9 C 0,6 C 93 % 1029,1 hPa 0,0 l/m 0,0 km/h (0 Bft) S-SW 202 0 min 0,0 UV-I 0 W/m 0,9 C 1,9 C 1,6 km/h (1 Bft)
20.02.2023 01:45 1,9 C 0,0 C 93 % 1029,0 hPa 0,0 l/m 1,6 km/h (1 Bft) S-SW 202 0 min 0,0 UV-I 0 W/m 0,9 C 1,9 C 4,8 km/h (1 Bft)
20.02.2023 01:46 1,9 C 0,0 C 93 % 1029,0 hPa 0,0 l/m 1,6 km/h (1 Bft) S-SW 202 0 min 0,0 UV-I 0 W/m 0,9 C 1,9 C 1,6 km/h (1 Bft)
20.02.2023 01:47 1,9 C 0,0 C 93 % 1029,0 hPa 0,0 l/m 1,6 km/h (1 Bft) S-SW 202 0 min 0,0 UV-I 0 W/m 0,9 C 1,9 C 3,2 km/h (1 Bft)
20.02.2023 01:48 1,9 C 0,0 C 93 % 1028,9 hPa 0,0 l/m 1,6 km/h (1 Bft) S-SW 202 0 min 0,0 UV-I 0 W/m 0,9 C 1,9 C 3,2 km/h (1 Bft)
20.02.2023 01:49 1,9 C 0,0 C 93 % 1028,9 hPa 0,0 l/m 3,2 km/h (1 Bft) S-SW 202 0 min 0,0 UV-I 0 W/m 0,9 C 1,9 C 6,4 km/h (2 Bft)
20.02.2023 01:50 1,9 C 0,0 C 93 % 1028,9 hPa 0,0 l/m 6,4 km/h (2 Bft) S-SW 202 0 min 0,0 UV-I 0 W/m 0,9 C 1,9 C 9,7 km/h (2 Bft)
20.02.2023 01:51 1,9 C 0,6 C 93 % 1028,8 hPa 0,0 l/m 4,8 km/h (1 Bft) S-SW 202 0 min 0,0 UV-I 0 W/m 0,9 C 1,9 C 8,0 km/h (2 Bft)
20.02.2023 01:52 2,0 C 0,6 C 93 % 1028,9 hPa 0,0 l/m 8,0 km/h (2 Bft) S 180 0 min 0,0 UV-I 0 W/m 1,0 C 0,5 C 11,3 km/h (2 Bft)
20.02.2023 01:53 2,1 C 0,6 C 93 % 1028,8 hPa 0,0 l/m 6,4 km/h (2 Bft) SW 225 0 min 0,0 UV-I 0 W/m 1,1 C 2,1 C 11,3 km/h (2 Bft)
20.02.2023 01:54 2,1 C 1,1 C 93 % 1028,9 hPa 0,0 l/m 4,8 km/h (1 Bft) SW 225 0 min 0,0 UV-I 0 W/m 1,1 C 2,1 C 8,0 km/h (2 Bft)
20.02.2023 01:55 2,1 C 0,6 C 93 % 1028,9 hPa 0,0 l/m 4,8 km/h (1 Bft) SW 225 0 min 0,0 UV-I 0 W/m 1,1 C 2,1 C 8,0 km/h (2 Bft)
20.02.2023 01:56 2,1 C 0,6 C 93 % 1028,9 hPa 0,0 l/m 4,8 km/h (1 Bft) S 180 0 min 0,0 UV-I 0 W/m 1,1 C 2,1 C 9,7 km/h (2 Bft)
20.02.2023 01:57 2,1 C 0,6 C 93 % 1028,9 hPa 0,0 l/m 6,4 km/h (2 Bft) SW 225 0 min 0,0 UV-I 0 W/m 1,1 C 2,1 C 11,3 km/h (2 Bft)
20.02.2023 01:58 2,1 C 0,6 C 93 % 1028,9 hPa 0,0 l/m 6,4 km/h (2 Bft) S-SW 202 0 min 0,0 UV-I 0 W/m 1,1 C 2,1 C 9,7 km/h (2 Bft)
20.02.2023 01:59 2,1 C 1,1 C 93 % 1028,9 hPa 0,0 l/m 8,0 km/h (2 Bft) S-SW 202 0 min 0,0 UV-I 0 W/m 1,1 C 0,6 C 12,9 km/h (3 Bft)
20.02.2023 02:00 2,1 C 1,1 C 93 % 1028,9 hPa 0,0 l/m 9,7 km/h (2 Bft) S-SW 202 0 min 0,0 UV-I 0 W/m 1,1 C -0,9 C 11,3 km/h (2 Bft)
20.02.2023 02:01 2,2 C 1,1 C 93 % 1028,9 hPa 0,0 l/m 8,0 km/h (2 Bft) S-SW 202 0 min 0,0 UV-I 0 W/m 1,2 C 0,7 C 9,7 km/h (2 Bft)
20.02.2023 02:02 2,1 C 1,1 C 93 % 1028,9 hPa 0,0 l/m 9,7 km/h (2 Bft) S-SW 202 0 min 0,0 UV-I 0 W/m 1,1 C -0,9 C 11,3 km/h (2 Bft)
20.02.2023 02:03 2,1 C 1,1 C 93 % 1029,0 hPa 0,0 l/m 6,4 km/h (2 Bft) S-SW 202 0 min 0,0 UV-I 0 W/m 1,1 C 2,1 C 9,7 km/h (2 Bft)
20.02.2023 02:04 2,1 C 1,1 C 93 % 1028,9 hPa 0,0 l/m 8,0 km/h (2 Bft) S-SW 202 0 min 0,0 UV-I 0 W/m 1,1 C 0,6 C 9,7 km/h (2 Bft)
20.02.2023 02:05 2,1 C 0,6 C 93 % 1028,9 hPa 0,0 l/m 6,4 km/h (2 Bft) S-SW 202 0 min 0,0 UV-I 0 W/m 1,1 C 2,1 C 9,7 km/h (2 Bft)
20.02.2023 02:06 2,0 C 0,6 C 93 % 1028,9 hPa 0,0 l/m 6,4 km/h (2 Bft) S-SW 202 0 min 0,0 UV-I 0 W/m 1,0 C 2,0 C 8,0 km/h (2 Bft)
20.02.2023 02:07 2,0 C 0,6 C 93 % 1028,9 hPa 0,0 l/m 6,4 km/h (2 Bft) S-SW 202 0 min 0,0 UV-I 0 W/m 1,0 C 2,0 C 8,0 km/h (2 Bft)
20.02.2023 02:08 1,9 C 0,6 C 93 % 1028,9 hPa 0,0 l/m 6,4 km/h (2 Bft) S-SW 202 0 min 0,0 UV-I 0 W/m 0,9 C 1,9 C 9,7 km/h (2 Bft)
20.02.2023 02:09 2,0 C 1,1 C 93 % 1028,9 hPa 0,0 l/m 4,8 km/h (1 Bft) S-SW 202 0 min 0,0 UV-I 0 W/m 1,0 C 2,0 C 9,7 km/h (2 Bft)
20.02.2023 02:10 2,0 C 1,1 C 93 % 1028,9 hPa 0,0 l/m 6,4 km/h (2 Bft) S-SW 202 0 min 0,0 UV-I 0 W/m 1,0 C 2,0 C 8,0 km/h (2 Bft)
20.02.2023 02:11 2,1 C 1,1 C 93 % 1028,8 hPa 0,0 l/m 4,8 km/h (1 Bft) S-SW 202 0 min 0,0 UV-I 0 W/m 1,1 C 2,1 C 9,7 km/h (2 Bft)
20.02.2023 02:12 2,1 C 1,1 C 93 % 1029,0 hPa 0,0 l/m 8,0 km/h (2 Bft) S-SW 202 0 min 0,0 UV-I 0 W/m 1,1 C 0,6 C 9,7 km/h (2 Bft)
20.02.2023 02:13 2,1 C 1,1 C 93 % 1028,9 hPa 0,0 l/m 6,4 km/h (2 Bft) S-SW 202 0 min 0,0 UV-I 0 W/m 1,1 C 2,1 C 11,3 km/h (2 Bft)
20.02.2023 02:14 2,1 C 1,1 C 93 % 1028,9 hPa 0,0 l/m 6,4 km/h (2 Bft) S-SW 202 0 min 0,0 UV-I 0 W/m 1,1 C 2,1 C 9,7 km/h (2 Bft)
20.02.2023 02:15 2,1 C 1,1 C 93 % 1028,9 hPa 0,0 l/m 8,0 km/h (2 Bft) S-SW 202 0 min 0,0 UV-I 0 W/m 1,1 C 0,6 C 11,3 km/h (2 Bft)
20.02.2023 02:16 2,1 C 1,1 C 93 % 1029,0 hPa 0,0 l/m 8,0 km/h (2 Bft) S-SW 202 0 min 0,0 UV-I 0 W/m 1,1 C 0,6 C 9,7 km/h (2 Bft)
20.02.2023 02:17 2,1 C 1,1 C 93 % 1029,0 hPa 0,0 l/m 8,0 km/h (2 Bft) S-SW 202 0 min 0,0 UV-I 0 W/m 1,1 C 0,6 C 9,7 km/h (2 Bft)
20.02.2023 02:18 2,2 C 1,1 C 93 % 1028,9 hPa 0,0 l/m 6,4 km/h (2 Bft) S-SW 202 0 min 0,0 UV-I 0 W/m 1,2 C 2,2 C 8,0 km/h (2 Bft)
20.02.2023 02:19 2,1 C 1,1 C 93 % 1028,9 hPa 0,0 l/m 6,4 km/h (2 Bft) S-SW 202 0 min 0,0 UV-I 0 W/m 1,1 C 2,1 C 9,7 km/h (2 Bft)
20.02.2023 02:20 2,2 C 1,1 C 93 % 1028,9 hPa 0,0 l/m 9,7 km/h (2 Bft) S 180 0 min 0,0 UV-I 0 W/m 1,2 C -0,8 C 16,1 km/h (3 Bft)
20.02.2023 02:21 2,2 C 1,1 C 93 % 1028,9 hPa 0,0 l/m 6,4 km/h (2 Bft) S 180 0 min 0,0 UV-I 0 W/m 1,2 C 2,2 C 14,5 km/h (3 Bft)
20.02.2023 02:22 2,2 C 1,1 C 93 % 1028,9 hPa 0,0 l/m 6,4 km/h (2 Bft) S-SW 202 0 min 0,0 UV-I 0 W/m 1,2 C 2,2 C 9,7 km/h (2 Bft)
20.02.2023 02:23 2,3 C 1,7 C 93 % 1029,0 hPa 0,0 l/m 8,0 km/h (2 Bft) S-SW 202 0 min 0,0 UV-I 0 W/m 1,3 C 0,8 C 9,7 km/h (2 Bft)
20.02.2023 02:24 2,3 C 1,7 C 93 % 1028,9 hPa 0,0 l/m 8,0 km/h (2 Bft) S-SW 202 0 min 0,0 UV-I 0 W/m 1,3 C 0,8 C 9,7 km/h (2 Bft)
20.02.2023 02:25 2,4 C 1,7 C 93 % 1028,8 hPa 0,0 l/m 4,8 km/h (1 Bft) S-SW 202 0 min 0,0 UV-I 0 W/m 1,4 C 2,4 C 8,0 km/h (2 Bft)
20.02.2023 02:26 2,4 C 1,7 C 93 % 1028,9 hPa 0,0 l/m 6,4 km/h (2 Bft) S-SW 202 0 min 0,0 UV-I 0 W/m 1,4 C 2,4 C 9,7 km/h (2 Bft)
20.02.2023 02:27 2,4 C 1,7 C 93 % 1028,9 hPa 0,0 l/m 4,8 km/h (1 Bft) S-SW 202 0 min 0,0 UV-I 0 W/m 1,4 C 2,4 C 8,0 km/h (2 Bft)
20.02.2023 02:28 2,5 C 1,7 C 93 % 1028,9 hPa 0,0 l/m 6,4 km/h (2 Bft) S-SW 202 0 min 0,0 UV-I 0 W/m 1,5 C 2,5 C 9,7 km/h (2 Bft)
20.02.2023 02:29 2,5 C 1,7 C 93 % 1028,9 hPa 0,0 l/m 4,8 km/h (1 Bft) S 180 0 min 0,0 UV-I 0 W/m 1,5 C 2,5 C 9,7 km/h (2 Bft)
20.02.2023 02:30 2,5 C 1,7 C 93 % 1028,9 hPa 0,0 l/m 6,4 km/h (2 Bft) S-SW 202 0 min 0,0 UV-I 0 W/m 1,5 C 2,5 C 9,7 km/h (2 Bft)
20.02.2023 02:31 2,5 C 1,7 C 93 % 1028,9 hPa 0,0 l/m 3,2 km/h (1 Bft) S-SW 202 0 min 0,0 UV-I 0 W/m 1,5 C 2,5 C 6,4 km/h (2 Bft)
20.02.2023 02:32 2,6 C 1,7 C 93 % 1028,9 hPa 0,0 l/m 9,7 km/h (2 Bft) S-SW 202 0 min 0,0 UV-I 0 W/m 1,6 C -0,3 C 12,9 km/h (3 Bft)
20.02.2023 02:33 2,6 C 1,7 C 93 % 1028,9 hPa 0,0 l/m 8,0 km/h (2 Bft) S-SW 202 0 min 0,0 UV-I 0 W/m 1,6 C 1,1 C 11,3 km/h (2 Bft)
20.02.2023 02:34 2,6 C 1,7 C 93 % 1028,9 hPa 0,0 l/m 6,4 km/h (2 Bft) SW 225 0 min 0,0 UV-I 0 W/m 1,6 C 2,6 C 9,7 km/h (2 Bft)
20.02.2023 02:35 2,6 C 2,2 C 93 % 1029,0 hPa 0,0 l/m 6,4 km/h (2 Bft) S-SW 202 0 min 0,0 UV-I 0 W/m 1,6 C 2,6 C 8,0 km/h (2 Bft)
20.02.2023 02:36 2,6 C 2,2 C 93 % 1028,9 hPa 0,0 l/m 6,4 km/h (2 Bft) S-SW 202 0 min 0,0 UV-I 0 W/m 1,6 C 2,6 C 8,0 km/h (2 Bft)
20.02.2023 02:37 2,6 C 2,2 C 93 % 1029,0 hPa 0,0 l/m 4,8 km/h (1 Bft) S-SW 202 0 min 0,0 UV-I 0 W/m 1,6 C 2,6 C 6,4 km/h (2 Bft)
20.02.2023 02:38 2,6 C 2,2 C 93 % 1028,9 hPa 0,0 l/m 4,8 km/h (1 Bft) S-SW 202 0 min 0,0 UV-I 0 W/m 1,6 C 2,6 C 6,4 km/h (2 Bft)
20.02.2023 02:39 2,6 C 2,2 C 93 % 1028,9 hPa 0,0 l/m 1,6 km/h (1 Bft) S-SW 202 0 min 0,0 UV-I 0 W/m 1,6 C 2,6 C 4,8 km/h (1 Bft)
20.02.2023 02:40 2,6 C 2,2 C 93 % 1028,8 hPa 0,0 l/m 6,4 km/h (2 Bft) S-SW 202 0 min 0,0 UV-I 0 W/m 1,6 C 2,6 C 8,0 km/h (2 Bft)
20.02.2023 02:41 2,6 C 1,7 C 93 % 1028,8 hPa 0,0 l/m 9,7 km/h (2 Bft) S-SW 202 0 min 0,0 UV-I 0 W/m 1,6 C -0,3 C 12,9 km/h (3 Bft)
20.02.2023 02:42 2,6 C 2,2 C 93 % 1028,9 hPa 0,0 l/m 9,7 km/h (2 Bft) S-SW 202 0 min 0,0 UV-I 0 W/m 1,6 C -0,3 C 16,1 km/h (3 Bft)
20.02.2023 02:43 2,6 C 2,2 C 93 % 1028,9 hPa 0,0 l/m 9,7 km/h (2 Bft) SW 225 0 min 0,0 UV-I 0 W/m 1,6 C -0,3 C 16,1 km/h (3 Bft)
20.02.2023 02:44 2,6 C 1,7 C 93 % 1028,9 hPa 0,0 l/m 9,7 km/h (2 Bft) S-SW 202 0 min 0,0 UV-I 0 W/m 1,6 C -0,3 C 17,7 km/h (3 Bft)
20.02.2023 02:45 2,6 C 2,2 C 93 % 1028,9 hPa 0,0 l/m 11,3 km/h (2 Bft) S-SW 202 0 min 0,0 UV-I 0 W/m 1,6 C -1,5 C 17,7 km/h (3 Bft)
20.02.2023 02:46 2,6 C 2,2 C 93 % 1028,9 hPa 0,0 l/m 9,7 km/h (2 Bft) SW 225 0 min 0,0 UV-I 0 W/m 1,6 C -0,3 C 12,9 km/h (3 Bft)
20.02.2023 02:47 2,6 C 2,2 C 93 % 1028,9 hPa 0,0 l/m 12,9 km/h (3 Bft) S-SW 202 0 min 0,0 UV-I 0 W/m 1,6 C -2,6 C 17,7 km/h (3 Bft)
20.02.2023 02:48 2,6 C 2,2 C 93 % 1028,8 hPa 0,0 l/m 11,3 km/h (2 Bft) S-SW 202 0 min 0,0 UV-I 0 W/m 1,6 C -1,5 C 14,5 km/h (3 Bft)
20.02.2023 02:49 2,6 C 2,2 C 93 % 1028,9 hPa 0,0 l/m 11,3 km/h (2 Bft) SW 225 0 min 0,0 UV-I 0 W/m 1,6 C -1,5 C 16,1 km/h (3 Bft)
20.02.2023 02:50 2,6 C 2,2 C 93 % 1028,9 hPa 0,0 l/m 11,3 km/h (2 Bft) SW 225 0 min 0,0 UV-I 0 W/m 1,6 C -1,5 C 16,1 km/h (3 Bft)
20.02.2023 02:51 2,6 C 2,2 C 93 % 1028,9 hPa 0,0 l/m 12,9 km/h (3 Bft) S 180 0 min 0,0 UV-I 0 W/m 1,6 C -2,6 C 22,5 km/h (4 Bft)
20.02.2023 02:52 2,6 C 2,2 C 93 % 1028,9 hPa 0,0 l/m 9,7 km/h (2 Bft) S-SW 202 0 min 0,0 UV-I 0 W/m 1,6 C -0,3 C 20,9 km/h (4 Bft)
20.02.2023 02:53 2,6 C 2,2 C 93 % 1028,8 hPa 0,0 l/m 9,7 km/h (2 Bft) SW 225 0 min 0,0 UV-I 0 W/m 1,6 C -0,3 C 14,5 km/h (3 Bft)
20.02.2023 02:54 2,6 C 2,2 C 93 % 1028,9 hPa 0,0 l/m 12,9 km/h (3 Bft) S-SW 202 0 min 0,0 UV-I 0 W/m 1,6 C -2,6 C 17,7 km/h (3 Bft)
20.02.2023 02:55 2,6 C 2,2 C 93 % 1028,9 hPa 0,0 l/m 6,4 km/h (2 Bft) S-SW 202 0 min 0,0 UV-I 0 W/m 1,6 C 2,6 C 9,7 km/h (2 Bft)
20.02.2023 02:56 2,6 C 2,2 C 93 % 1028,9 hPa 0,0 l/m 8,0 km/h (2 Bft) S-SW 202 0 min 0,0 UV-I 0 W/m 1,6 C 1,1 C 12,9 km/h (3 Bft)
20.02.2023 02:57 2,6 C 2,2 C 93 % 1029,0 hPa 0,0 l/m 16,1 km/h (3 Bft) S-SW 202 0 min 0,0 UV-I 0 W/m 1,6 C -4,4 C 22,5 km/h (4 Bft)
20.02.2023 02:58 2,6 C 2,2 C 93 % 1028,9 hPa 0,0 l/m 12,9 km/h (3 Bft) S-SW 202 0 min 0,0 UV-I 0 W/m 1,6 C -2,6 C 17,7 km/h (3 Bft)
20.02.2023 02:59 2,6 C 2,2 C 93 % 1028,9 hPa 0,0 l/m 12,9 km/h (3 Bft) S-SW 202 0 min 0,0 UV-I 0 W/m 1,6 C -2,6 C 16,1 km/h (3 Bft)
20.02.2023 03:00 2,6 C 2,2 C 93 % 1028,9 hPa 0,0 l/m 11,3 km/h (2 Bft) S-SW 202 0 min 0,0 UV-I 0 W/m 1,6 C -1,5 C 14,5 km/h (3 Bft)
20.02.2023 03:01 2,6 C 2,2 C 93 % 1028,8 hPa 0,0 l/m 6,4 km/h (2 Bft) SW 225 0 min 0,0 UV-I 0 W/m 1,6 C 2,6 C 12,9 km/h (3 Bft)
20.02.2023 03:02 2,6 C 2,2 C 93 % 1028,8 hPa 0,0 l/m 8,0 km/h (2 Bft) S-SW 202 0 min 0,0 UV-I 0 W/m 1,6 C 1,1 C 9,7 km/h (2 Bft)
20.02.2023 03:03 2,6 C 2,2 C 93 % 1028,8 hPa 0,0 l/m 11,3 km/h (2 Bft) S-SW 202 0 min 0,0 UV-I 0 W/m 1,6 C -1,5 C 14,5 km/h (3 Bft)
20.02.2023 03:04 2,6 C 2,2 C 93 % 1028,8 hPa 0,0 l/m 9,7 km/h (2 Bft) S-SW 202 0 min 0,0 UV-I 0 W/m 1,6 C -0,3 C 12,9 km/h (3 Bft)
20.02.2023 03:05 2,6 C 2,2 C 93 % 1028,8 hPa 0,0 l/m 14,5 km/h (3 Bft) S-SW 202 0 min 0,0 UV-I 0 W/m 1,6 C -3,5 C 22,5 km/h (4 Bft)
20.02.2023 03:06 2,6 C 2,2 C 93 % 1028,8 hPa 0,0 l/m 12,9 km/h (3 Bft) S-SW 202 0 min 0,0 UV-I 0 W/m 1,6 C -2,6 C 24,1 km/h (4 Bft)
20.02.2023 03:07 2,6 C 2,2 C 93 % 1028,9 hPa 0,0 l/m 9,7 km/h (2 Bft) SW 225 0 min 0,0 UV-I 0 W/m 1,6 C -0,3 C 12,9 km/h (3 Bft)
20.02.2023 03:08 2,6 C 2,2 C 93 % 1028,8 hPa 0,0 l/m 8,0 km/h (2 Bft) S-SW 202 0 min 0,0 UV-I 0 W/m 1,6 C 1,1 C 11,3 km/h (2 Bft)
20.02.2023 03:09 2,6 C 2,2 C 93 % 1028,8 hPa 0,0 l/m 6,4 km/h (2 Bft) S-SW 202 0 min 0,0 UV-I 0 W/m 1,6 C 2,6 C 11,3 km/h (2 Bft)
20.02.2023 03:10 2,6 C 2,2 C 93 % 1028,8 hPa 0,0 l/m 9,7 km/h (2 Bft) S-SW 202 0 min 0,0 UV-I 0 W/m 1,6 C -0,3 C 12,9 km/h (3 Bft)
20.02.2023 03:11 2,6 C 2,2 C 93 % 1028,8 hPa 0,0 l/m 11,3 km/h (2 Bft) S-SW 202 0 min 0,0 UV-I 0 W/m 1,6 C -1,5 C 14,5 km/h (3 Bft)
20.02.2023 03:12 2,6 C 2,2 C 93 % 1028,7 hPa 0,0 l/m 11,3 km/h (2 Bft) S-SW 202 0 min 0,0 UV-I 0 W/m 1,6 C -1,5 C 14,5 km/h (3 Bft)
20.02.2023 03:13 2,6 C 2,2 C 94 % 1028,7 hPa 0,0 l/m 9,7 km/h (2 Bft) S-SW 202 0 min 0,0 UV-I 0 W/m 1,7 C -0,3 C 16,1 km/h (3 Bft)
20.02.2023 03:14 2,6 C 2,2 C 94 % 1028,7 hPa 0,0 l/m 8,0 km/h (2 Bft) SW 225 0 min 0,0 UV-I 0 W/m 1,7 C 1,1 C 14,5 km/h (3 Bft)
20.02.2023 03:15 2,6 C 2,2 C 93 % 1028,7 hPa 0,0 l/m 8,0 km/h (2 Bft) SW 225 0 min 0,0 UV-I 0 W/m 1,6 C 1,1 C 14,5 km/h (3 Bft)
20.02.2023 03:16 2,6 C 2,2 C 94 % 1028,7 hPa 0,0 l/m 9,7 km/h (2 Bft) S-SW 202 0 min 0,0 UV-I 0 W/m 1,7 C -0,3 C 12,9 km/h (3 Bft)
20.02.2023 03:17 2,6 C 2,2 C 94 % 1028,6 hPa 0,0 l/m 8,0 km/h (2 Bft) S-SW 202 0 min 0,0 UV-I 0 W/m 1,7 C 1,1 C 12,9 km/h (3 Bft)
20.02.2023 03:18 2,6 C 2,2 C 94 % 1028,6 hPa 0,0 l/m 6,4 km/h (2 Bft) W-SW 247 0 min 0,0 UV-I 0 W/m 1,7 C 2,6 C 12,9 km/h (3 Bft)
20.02.2023 03:19 2,6 C 2,2 C 94 % 1028,8 hPa 0,0 l/m 9,7 km/h (2 Bft) SW 225 0 min 0,0 UV-I 0 W/m 1,7 C -0,3 C 16,1 km/h (3 Bft)
20.02.2023 03:20 2,6 C 2,2 C 94 % 1028,8 hPa 0,0 l/m 12,9 km/h (3 Bft) S-SW 202 0 min 0,0 UV-I 0 W/m 1,7 C -2,6 C 17,7 km/h (3 Bft)
20.02.2023 03:21 2,6 C 2,2 C 94 % 1028,7 hPa 0,0 l/m 12,9 km/h (3 Bft) S-SW 202 0 min 0,0 UV-I 0 W/m 1,7 C -2,6 C 17,7 km/h (3 Bft)
20.02.2023 03:22 2,6 C 2,2 C 94 % 1028,8 hPa 0,0 l/m 9,7 km/h (2 Bft) S-SW 202 0 min 0,0 UV-I 0 W/m 1,7 C -0,3 C 16,1 km/h (3 Bft)
20.02.2023 03:23 2,6 C 2,2 C 94 % 1028,7 hPa 0,0 l/m 11,3 km/h (2 Bft) S-SW 202 0 min 0,0 UV-I 0 W/m 1,7 C -1,5 C 19,3 km/h (3 Bft)
20.02.2023 03:24 2,6 C 2,2 C 94 % 1028,6 hPa 0,0 l/m 12,9 km/h (3 Bft) S-SW 202 0 min 0,0 UV-I 0 W/m 1,7 C -2,6 C 19,3 km/h (3 Bft)
20.02.2023 03:25 2,6 C 2,2 C 94 % 1028,7 hPa 0,0 l/m 14,5 km/h (3 Bft) SW 225 0 min 0,0 UV-I 0 W/m 1,7 C -3,5 C 19,3 km/h (3 Bft)
20.02.2023 03:26 2,6 C 2,2 C 94 % 1028,6 hPa 0,0 l/m 12,9 km/h (3 Bft) SW 225 0 min 0,0 UV-I 0 W/m 1,7 C -2,6 C 16,1 km/h (3 Bft)
20.02.2023 03:27 2,6 C 2,2 C 94 % 1028,6 hPa 0,0 l/m 14,5 km/h (3 Bft) S-SW 202 0 min 0,0 UV-I 0 W/m 1,7 C -3,5 C 17,7 km/h (3 Bft)
20.02.2023 03:28 2,6 C 2,2 C 94 % 1028,6 hPa 0,0 l/m 11,3 km/h (2 Bft) S-SW 202 0 min 0,0 UV-I 0 W/m 1,7 C -1,5 C 16,1 km/h (3 Bft)
20.02.2023 03:29 2,6 C 2,2 C 94 % 1028,6 hPa 0,0 l/m 11,3 km/h (2 Bft) S-SW 202 0 min 0,0 UV-I 0 W/m 1,7 C -1,5 C 16,1 km/h (3 Bft)
20.02.2023 03:30 2,6 C 2,2 C 94 % 1028,6 hPa 0,0 l/m 11,3 km/h (2 Bft) SW 225 0 min 0,0 UV-I 0 W/m 1,7 C -1,5 C 16,1 km/h (3 Bft)
20.02.2023 03:31 2,6 C 2,2 C 94 % 1028,6 hPa 0,0 l/m 14,5 km/h (3 Bft) S-SW 202 0 min 0,0 UV-I 0 W/m 1,7 C -3,5 C 19,3 km/h (3 Bft)
20.02.2023 03:32 2,6 C 2,2 C 94 % 1028,6 hPa 0,0 l/m 14,5 km/h (3 Bft) S-SW 202 0 min 0,0 UV-I 0 W/m 1,7 C -3,5 C 19,3 km/h (3 Bft)
20.02.2023 03:33 2,6 C 2,2 C 94 % 1028,5 hPa 0,0 l/m 12,9 km/h (3 Bft) S-SW 202 0 min 0,0 UV-I 0 W/m 1,7 C -2,6 C 17,7 km/h (3 Bft)
20.02.2023 03:34 2,6 C 2,2 C 94 % 1028,5 hPa 0,0 l/m 14,5 km/h (3 Bft) S-SW 202 0 min 0,0 UV-I 0 W/m 1,7 C -3,5 C 19,3 km/h (3 Bft)
20.02.2023 03:35 2,6 C 2,2 C 94 % 1028,5 hPa 0,0 l/m 14,5 km/h (3 Bft) SW 225 0 min 0,0 UV-I 0 W/m 1,7 C -3,5 C 22,5 km/h (4 Bft)
20.02.2023 03:36 2,6 C 2,2 C 94 % 1028,5 hPa 0,0 l/m 14,5 km/h (3 Bft) S-SW 202 0 min 0,0 UV-I 0 W/m 1,7 C -3,5 C 17,7 km/h (3 Bft)
20.02.2023 03:37 2,6 C 2,2 C 93 % 1028,4 hPa 0,0 l/m 14,5 km/h (3 Bft) S-SW 202 0 min 0,0 UV-I 0 W/m 1,6 C -3,5 C 17,7 km/h (3 Bft)
20.02.2023 03:38 2,5 C 2,2 C 93 % 1028,4 hPa 0,0 l/m 14,5 km/h (3 Bft) S-SW 202 0 min 0,0 UV-I 0 W/m 1,5 C -3,7 C 17,7 km/h (3 Bft)
20.02.2023 03:39 2,5 C 2,2 C 93 % 1028,5 hPa 0,0 l/m 8,0 km/h (2 Bft) S-SW 202 0 min 0,0 UV-I 0 W/m 1,5 C 1,0 C 14,5 km/h (3 Bft)
20.02.2023 03:40 2,5 C 2,2 C 94 % 1028,3 hPa 0,0 l/m 12,9 km/h (3 Bft) S-SW 202 0 min 0,0 UV-I 0 W/m 1,6 C -2,7 C 19,3 km/h (3 Bft)
20.02.2023 03:41 2,5 C 2,2 C 94 % 1028,3 hPa 0,0 l/m 11,3 km/h (2 Bft) S-SW 202 0 min 0,0 UV-I 0 W/m 1,6 C -1,6 C 16,1 km/h (3 Bft)
20.02.2023 03:42 2,5 C 2,2 C 94 % 1028,3 hPa 0,0 l/m 11,3 km/h (2 Bft) S-SW 202 0 min 0,0 UV-I 0 W/m 1,6 C -1,6 C 14,5 km/h (3 Bft)
20.02.2023 03:43 2,5 C 2,2 C 94 % 1028,3 hPa 0,0 l/m 11,3 km/h (2 Bft) S-SW 202 0 min 0,0 UV-I 0 W/m 1,6 C -1,6 C 16,1 km/h (3 Bft)
20.02.2023 03:44 2,5 C 2,2 C 94 % 1028,3 hPa 0,0 l/m 12,9 km/h (3 Bft) S-SW 202 0 min 0,0 UV-I 0 W/m 1,6 C -2,7 C 16,1 km/h (3 Bft)
20.02.2023 03:45 2,5 C 2,2 C 94 % 1028,3 hPa 0,0 l/m 8,0 km/h (2 Bft) S-SW 202 0 min 0,0 UV-I 0 W/m 1,6 C 1,0 C 14,5 km/h (3 Bft)
20.02.2023 03:46 2,6 C 2,2 C 94 % 1028,3 hPa 0,0 l/m 8,0 km/h (2 Bft) SW 225 0 min 0,0 UV-I 0 W/m 1,7 C 1,1 C 16,1 km/h (3 Bft)
20.02.2023 03:47 2,5 C 2,2 C 94 % 1028,2 hPa 0,0 l/m 12,9 km/h (3 Bft) S-SW 202 0 min 0,0 UV-I 0 W/m 1,6 C -2,7 C 16,1 km/h (3 Bft)
20.02.2023 03:48 2,6 C 2,2 C 94 % 1028,2 hPa 0,0 l/m 9,7 km/h (2 Bft) SW 225 0 min 0,0 UV-I 0 W/m 1,7 C -0,3 C 14,5 km/h (3 Bft)
20.02.2023 03:49 2,6 C 2,2 C 94 % 1028,2 hPa 0,0 l/m 9,7 km/h (2 Bft) S-SW 202 0 min 0,0 UV-I 0 W/m 1,7 C -0,3 C 12,9 km/h (3 Bft)
20.02.2023 03:50 2,6 C 2,2 C 94 % 1028,3 hPa 0,0 l/m 8,0 km/h (2 Bft) S-SW 202 0 min 0,0 UV-I 0 W/m 1,7 C 1,1 C 12,9 km/h (3 Bft)
20.02.2023 03:51 2,6 C 2,2 C 94 % 1028,2 hPa 0,0 l/m 6,4 km/h (2 Bft) S-SW 202 0 min 0,0 UV-I 0 W/m 1,7 C 2,6 C 11,3 km/h (2 Bft)
20.02.2023 03:52 2,6 C 2,2 C 94 % 1028,3 hPa 0,0 l/m 11,3 km/h (2 Bft) S-SW 202 0 min 0,0 UV-I 0 W/m 1,7 C -1,5 C 16,1 km/h (3 Bft)
20.02.2023 03:53 2,6 C 2,2 C 94 % 1028,1 hPa 0,0 l/m 6,4 km/h (2 Bft) S-SW 202 0 min 0,0 UV-I 0 W/m 1,7 C 2,6 C 9,7 km/h (2 Bft)
20.02.2023 03:54 2,6 C 2,2 C 94 % 1028,2 hPa 0,0 l/m 6,4 km/h (2 Bft) SW 225 0 min 0,0 UV-I 0 W/m 1,7 C 2,6 C 11,3 km/h (2 Bft)
20.02.2023 03:55 2,6 C 2,2 C 94 % 1028,2 hPa 0,0 l/m 14,5 km/h (3 Bft) S-SW 202 0 min 0,0 UV-I 0 W/m 1,7 C -3,5 C 17,7 km/h (3 Bft)
20.02.2023 03:56 2,6 C 2,2 C 94 % 1028,2 hPa 0,0 l/m 11,3 km/h (2 Bft) S-SW 202 0 min 0,0 UV-I 0 W/m 1,7 C -1,5 C 14,5 km/h (3 Bft)
20.02.2023 03:57 2,5 C 2,2 C 94 % 1028,1 hPa 0,0 l/m 8,0 km/h (2 Bft) SW 225 0 min 0,0 UV-I 0 W/m 1,6 C 1,0 C 12,9 km/h (3 Bft)
20.02.2023 03:58 2,6 C 2,2 C 94 % 1028,1 hPa 0,0 l/m 14,5 km/h (3 Bft) S-SW 202 0 min 0,0 UV-I 0 W/m 1,7 C -3,5 C 19,3 km/h (3 Bft)
20.02.2023 03:59 2,6 C 2,2 C 94 % 1028,1 hPa 0,0 l/m 11,3 km/h (2 Bft) SW 225 0 min 0,0 UV-I 0 W/m 1,7 C -1,5 C 16,1 km/h (3 Bft)
20.02.2023 04:00 2,6 C 2,2 C 94 % 1028,1 hPa 0,0 l/m 9,7 km/h (2 Bft) S-SW 202 0 min 0,0 UV-I 0 W/m 1,7 C -0,3 C 12,9 km/h (3 Bft)
20.02.2023 04:01 2,5 C 2,2 C 94 % 1028,1 hPa 0,0 l/m 6,4 km/h (2 Bft) SW 225 0 min 0,0 UV-I 0 W/m 1,6 C 2,5 C 12,9 km/h (3 Bft)
20.02.2023 04:02 2,5 C 2,2 C 94 % 1028,1 hPa 0,0 l/m 6,4 km/h (2 Bft) W-SW 247 0 min 0,0 UV-I 0 W/m 1,6 C 2,5 C 11,3 km/h (2 Bft)
20.02.2023 04:03 2,5 C 2,2 C 94 % 1028,1 hPa 0,0 l/m 9,7 km/h (2 Bft) S-SW 202 0 min 0,0 UV-I 0 W/m 1,6 C -0,5 C 14,5 km/h (3 Bft)
20.02.2023 04:04 2,5 C 2,2 C 94 % 1028,0 hPa 0,0 l/m 9,7 km/h (2 Bft) SW 225 0 min 0,0 UV-I 0 W/m 1,6 C -0,5 C 16,1 km/h (3 Bft)
20.02.2023 04:05 2,5 C 2,2 C 94 % 1028,0 hPa 0,0 l/m 6,4 km/h (2 Bft) S-SW 202 0 min 0,0 UV-I 0 W/m 1,6 C 2,5 C 9,7 km/h (2 Bft)
20.02.2023 04:06 2,5 C 2,2 C 94 % 1028,1 hPa 0,0 l/m 9,7 km/h (2 Bft) S-SW 202 0 min 0,0 UV-I 0 W/m 1,6 C -0,5 C 16,1 km/h (3 Bft)
20.02.2023 04:07 2,5 C 2,2 C 94 % 1028,1 hPa 0,0 l/m 9,7 km/h (2 Bft) S-SW 202 0 min 0,0 UV-I 0 W/m 1,6 C -0,5 C 11,3 km/h (2 Bft)
20.02.2023 04:08 2,6 C 2,2 C 94 % 1028,0 hPa 0,0 l/m 8,0 km/h (2 Bft) S-SW 202 0 min 0,0 UV-I 0 W/m 1,7 C 1,1 C 9,7 km/h (2 Bft)
20.02.2023 04:09 2,5 C 2,2 C 94 % 1028,0 hPa 0,0 l/m 6,4 km/h (2 Bft) SW 225 0 min 0,0 UV-I 0 W/m 1,6 C 2,5 C 12,9 km/h (3 Bft)
20.02.2023 04:10 2,6 C 2,2 C 94 % 1028,0 hPa 0,0 l/m 4,8 km/h (1 Bft) SW 225 0 min 0,0 UV-I 0 W/m 1,7 C 2,6 C 6,4 km/h (2 Bft)
20.02.2023 04:11 2,6 C 2,2 C 94 % 1028,0 hPa 0,0 l/m 6,4 km/h (2 Bft) SW 225 0 min 0,0 UV-I 0 W/m 1,7 C 2,6 C 11,3 km/h (2 Bft)
20.02.2023 04:12 2,6 C 2,2 C 94 % 1028,1 hPa 0,0 l/m 8,0 km/h (2 Bft) SW 225 0 min 0,0 UV-I 0 W/m 1,7 C 1,1 C 11,3 km/h (2 Bft)
20.02.2023 04:13 2,6 C 2,2 C 94 % 1027,9 hPa 0,0 l/m 6,4 km/h (2 Bft) SW 225 0 min 0,0 UV-I 0 W/m 1,7 C 2,6 C 12,9 km/h (3 Bft)
20.02.2023 04:14 2,6 C 2,2 C 94 % 1028,0 hPa 0,0 l/m 6,4 km/h (2 Bft) S-SW 202 0 min 0,0 UV-I 0 W/m 1,7 C 2,6 C 9,7 km/h (2 Bft)
20.02.2023 04:15 2,6 C 2,2 C 94 % 1028,1 hPa 0,0 l/m 4,8 km/h (1 Bft) SW 225 0 min 0,0 UV-I 0 W/m 1,7 C 2,6 C 11,3 km/h (2 Bft)
20.02.2023 04:16 2,6 C 2,2 C 94 % 1028,0 hPa 0,0 l/m 12,9 km/h (3 Bft) S-SW 202 0 min 0,0 UV-I 0 W/m 1,7 C -2,6 C 17,7 km/h (3 Bft)
20.02.2023 04:17 2,7 C 2,2 C 94 % 1028,0 hPa 0,0 l/m 9,7 km/h (2 Bft) SW 225 0 min 0,0 UV-I 0 W/m 1,8 C -0,2 C 16,1 km/h (3 Bft)
20.02.2023 04:18 2,7 C 2,2 C 94 % 1028,0 hPa 0,0 l/m 11,3 km/h (2 Bft) SW 225 0 min 0,0 UV-I 0 W/m 1,8 C -1,4 C 14,5 km/h (3 Bft)
20.02.2023 04:19 2,7 C 2,2 C 94 % 1028,0 hPa 0,0 l/m 11,3 km/h (2 Bft) S 180 0 min 0,0 UV-I 0 W/m 1,8 C -1,4 C 17,7 km/h (3 Bft)
20.02.2023 04:20 2,7 C 2,2 C 94 % 1028,0 hPa 0,0 l/m 12,9 km/h (3 Bft) S 180 0 min 0,0 UV-I 0 W/m 1,8 C -2,5 C 17,7 km/h (3 Bft)
20.02.2023 04:21 2,7 C 2,2 C 94 % 1028,1 hPa 0,0 l/m 8,0 km/h (2 Bft) S-SW 202 0 min 0,0 UV-I 0 W/m 1,8 C 1,2 C 14,5 km/h (3 Bft)
20.02.2023 04:22 2,7 C 2,2 C 94 % 1028,0 hPa 0,0 l/m 11,3 km/h (2 Bft) S-SW 202 0 min 0,0 UV-I 0 W/m 1,8 C -1,4 C 14,5 km/h (3 Bft)
20.02.2023 04:23 2,7 C 2,2 C 94 % 1028,0 hPa 0,0 l/m 11,3 km/h (2 Bft) SW 225 0 min 0,0 UV-I 0 W/m 1,8 C -1,4 C 17,7 km/h (3 Bft)
20.02.2023 04:24 2,7 C 2,2 C 94 % 1028,1 hPa 0,0 l/m 11,3 km/h (2 Bft) S-SW 202 0 min 0,0 UV-I 0 W/m 1,8 C -1,4 C 12,9 km/h (3 Bft)
20.02.2023 04:25 2,7 C 2,2 C 94 % 1028,1 hPa 0,0 l/m 11,3 km/h (2 Bft) SW 225 0 min 0,0 UV-I 0 W/m 1,8 C -1,4 C 16,1 km/h (3 Bft)
20.02.2023 04:26 2,7 C 2,2 C 94 % 1028,1 hPa 0,0 l/m 12,9 km/h (3 Bft) S-SW 202 0 min 0,0 UV-I 0 W/m 1,8 C -2,5 C 19,3 km/h (3 Bft)
20.02.2023 04:27 2,7 C 2,2 C 94 % 1028,1 hPa 0,0 l/m 16,1 km/h (3 Bft) S-SW 202 0 min 0,0 UV-I 0 W/m 1,8 C -4,3 C 22,5 km/h (4 Bft)
20.02.2023 04:28 2,7 C 2,2 C 94 % 1028,2 hPa 0,0 l/m 9,7 km/h (2 Bft) S-SW 202 0 min 0,0 UV-I 0 W/m 1,8 C -0,2 C 14,5 km/h (3 Bft)
20.02.2023 04:29 2,7 C 2,2 C 94 % 1028,1 hPa 0,0 l/m 8,0 km/h (2 Bft) S-SW 202 0 min 0,0 UV-I 0 W/m 1,8 C 1,2 C 12,9 km/h (3 Bft)
20.02.2023 04:30 2,7 C 2,2 C 94 % 1028,2 hPa 0,0 l/m 11,3 km/h (2 Bft) S-SW 202 0 min 0,0 UV-I 0 W/m 1,8 C -1,4 C 14,5 km/h (3 Bft)
20.02.2023 04:31 2,7 C 2,2 C 94 % 1028,2 hPa 0,0 l/m 8,0 km/h (2 Bft) S-SW 202 0 min 0,0 UV-I 0 W/m 1,8 C 1,2 C 12,9 km/h (3 Bft)
20.02.2023 04:32 2,7 C 2,2 C 94 % 1028,2 hPa 0,0 l/m 9,7 km/h (2 Bft) S-SW 202 0 min 0,0 UV-I 0 W/m 1,8 C -0,2 C 16,1 km/h (3 Bft)
20.02.2023 04:33 2,7 C 2,2 C 94 % 1028,2 hPa 0,0 l/m 9,7 km/h (2 Bft) SW 225 0 min 0,0 UV-I 0 W/m 1,8 C -0,2 C 16,1 km/h (3 Bft)
20.02.2023 04:34 2,7 C 2,2 C 94 % 1028,1 hPa 0,0 l/m 11,3 km/h (2 Bft) S-SW 202 0 min 0,0 UV-I 0 W/m 1,8 C -1,4 C 16,1 km/h (3 Bft)
20.02.2023 04:35 2,6 C 2,2 C 94 % 1028,0 hPa 0,0 l/m 14,5 km/h (3 Bft) S-SW 202 0 min 0,0 UV-I 0 W/m 1,7 C -3,5 C 17,7 km/h (3 Bft)
20.02.2023 04:36 2,6 C 2,2 C 94 % 1028,0 hPa 0,0 l/m 12,9 km/h (3 Bft) S-SW 202 0 min 0,0 UV-I 0 W/m 1,7 C -2,6 C 17,7 km/h (3 Bft)
20.02.2023 04:37 2,6 C 2,2 C 94 % 1028,0 hPa 0,0 l/m 14,5 km/h (3 Bft) S-SW 202 0 min 0,0 UV-I 0 W/m 1,7 C -3,5 C 17,7 km/h (3 Bft)
20.02.2023 04:38 2,7 C 2,2 C 94 % 1028,0 hPa 0,0 l/m 12,9 km/h (3 Bft) S-SW 202 0 min 0,0 UV-I 0 W/m 1,8 C -2,5 C 17,7 km/h (3 Bft)
20.02.2023 04:39 2,7 C 2,2 C 94 % 1028,0 hPa 0,0 l/m 11,3 km/h (2 Bft) S-SW 202 0 min 0,0 UV-I 0 W/m 1,8 C -1,4 C 17,7 km/h (3 Bft)
20.02.2023 04:40 2,7 C 2,2 C 94 % 1028,0 hPa 0,0 l/m 14,5 km/h (3 Bft) S-SW 202 0 min 0,0 UV-I 0 W/m 1,8 C -3,4 C 17,7 km/h (3 Bft)
20.02.2023 04:41 2,7 C 2,2 C 94 % 1028,0 hPa 0,0 l/m 9,7 km/h (2 Bft) S-SW 202 0 min 0,0 UV-I 0 W/m 1,8 C -0,2 C 14,5 km/h (3 Bft)
20.02.2023 04:42 2,7 C 2,2 C 94 % 1027,9 hPa 0,0 l/m 14,5 km/h (3 Bft) S-SW 202 0 min 0,0 UV-I 0 W/m 1,8 C -3,4 C 17,7 km/h (3 Bft)
20.02.2023 04:43 2,7 C 2,2 C 94 % 1028,0 hPa 0,0 l/m 16,1 km/h (3 Bft) S-SW 202 0 min 0,0 UV-I 0 W/m 1,8 C -4,3 C 19,3 km/h (3 Bft)
20.02.2023 04:44 2,7 C 2,2 C 94 % 1027,9 hPa 0,0 l/m 16,1 km/h (3 Bft) S-SW 202 0 min 0,0 UV-I 0 W/m 1,8 C -4,3 C 22,5 km/h (4 Bft)
20.02.2023 04:45 2,7 C 2,2 C 94 % 1027,9 hPa 0,0 l/m 17,7 km/h (3 Bft) S-SW 202 0 min 0,0 UV-I 0 W/m 1,8 C -5,1 C 20,9 km/h (4 Bft)
20.02.2023 04:46 2,7 C 2,2 C 94 % 1027,8 hPa 0,0 l/m 16,1 km/h (3 Bft) S-SW 202 0 min 0,0 UV-I 0 W/m 1,8 C -4,3 C 22,5 km/h (4 Bft)
20.02.2023 04:47 2,7 C 2,2 C 94 % 1027,7 hPa 0,0 l/m 14,5 km/h (3 Bft) S-SW 202 0 min 0,0 UV-I 0 W/m 1,8 C -3,4 C 19,3 km/h (3 Bft)
20.02.2023 04:48 2,7 C 2,2 C 94 % 1027,7 hPa 0,0 l/m 11,3 km/h (2 Bft) S-SW 202 0 min 0,0 UV-I 0 W/m 1,8 C -1,4 C 19,3 km/h (3 Bft)
20.02.2023 04:49 2,7 C 2,2 C 94 % 1027,7 hPa 0,0 l/m 12,9 km/h (3 Bft) S-SW 202 0 min 0,0 UV-I 0 W/m 1,8 C -2,5 C 19,3 km/h (3 Bft)
20.02.2023 04:50 2,7 C 2,2 C 94 % 1027,7 hPa 0,0 l/m 12,9 km/h (3 Bft) S-SW 202 0 min 0,0 UV-I 0 W/m 1,8 C -2,5 C 16,1 km/h (3 Bft)
20.02.2023 04:51 2,7 C 2,2 C 94 % 1027,6 hPa 0,0 l/m 16,1 km/h (3 Bft) SW 225 0 min 0,0 UV-I 0 W/m 1,8 C -4,3 C 20,9 km/h (4 Bft)
20.02.2023 04:52 2,7 C 2,2 C 94 % 1027,6 hPa 0,0 l/m 11,3 km/h (2 Bft) S-SW 202 0 min 0,0 UV-I 0 W/m 1,8 C -1,4 C 16,1 km/h (3 Bft)
20.02.2023 04:53 2,7 C 2,2 C 94 % 1027,6 hPa 0,0 l/m 11,3 km/h (2 Bft) S-SW 202 0 min 0,0 UV-I 0 W/m 1,8 C -1,4 C 16,1 km/h (3 Bft)
20.02.2023 04:54 2,8 C 2,2 C 94 % 1027,6 hPa 0,0 l/m 12,9 km/h (3 Bft) S-SW 202 0 min 0,0 UV-I 0 W/m 1,9 C -2,4 C 17,7 km/h (3 Bft)
20.02.2023 04:55 2,8 C 2,2 C 94 % 1027,6 hPa 0,0 l/m 8,0 km/h (2 Bft) SW 225 0 min 0,0 UV-I 0 W/m 1,9 C 1,3 C 12,9 km/h (3 Bft)
20.02.2023 04:56 2,8 C 2,2 C 94 % 1027,7 hPa 0,0 l/m 11,3 km/h (2 Bft) S-SW 202 0 min 0,0 UV-I 0 W/m 1,9 C -1,3 C 16,1 km/h (3 Bft)
20.02.2023 04:57 2,8 C 2,8 C 94 % 1027,6 hPa 0,0 l/m 11,3 km/h (2 Bft) S-SW 202 0 min 0,0 UV-I 0 W/m 1,9 C -1,3 C 17,7 km/h (3 Bft)
20.02.2023 04:58 2,8 C 2,8 C 94 % 1027,6 hPa 0,0 l/m 11,3 km/h (2 Bft) SW 225 0 min 0,0 UV-I 0 W/m 1,9 C -1,3 C 22,5 km/h (4 Bft)
20.02.2023 04:59 2,9 C 2,8 C 94 % 1027,7 hPa 0,0 l/m 12,9 km/h (3 Bft) S-SW 202 0 min 0,0 UV-I 0 W/m 2,0 C -2,2 C 22,5 km/h (4 Bft)
20.02.2023 05:00 2,9 C 2,8 C 94 % 1027,7 hPa 0,0 l/m 11,3 km/h (2 Bft) SW 225 0 min 0,0 UV-I 0 W/m 2,0 C -1,2 C 19,3 km/h (3 Bft)
20.02.2023 05:01 2,9 C 2,8 C 94 % 1027,7 hPa 0,0 l/m 16,1 km/h (3 Bft) S-SW 202 0 min 0,0 UV-I 0 W/m 2,0 C -4,1 C 19,3 km/h (3 Bft)
20.02.2023 05:02 2,9 C 2,8 C 94 % 1027,7 hPa 0,0 l/m 11,3 km/h (2 Bft) S-SW 202 0 min 0,0 UV-I 0 W/m 2,0 C -1,2 C 16,1 km/h (3 Bft)
20.02.2023 05:03 2,9 C 2,8 C 94 % 1027,8 hPa 0,0 l/m 11,3 km/h (2 Bft) S-SW 202 0 min 0,0 UV-I 0 W/m 2,0 C -1,2 C 17,7 km/h (3 Bft)
20.02.2023 05:04 3,0 C 2,8 C 94 % 1027,7 hPa 0,0 l/m 16,1 km/h (3 Bft) SW 225 0 min 0,0 UV-I 0 W/m 2,1 C -3,9 C 25,7 km/h (4 Bft)
20.02.2023 05:05 3,0 C 2,8 C 94 % 1027,7 hPa 0,0 l/m 12,9 km/h (3 Bft) S-SW 202 0 min 0,0 UV-I 0 W/m 2,1 C -2,1 C 20,9 km/h (4 Bft)
20.02.2023 05:06 3,1 C 2,8 C 94 % 1027,6 hPa 0,0 l/m 16,1 km/h (3 Bft) S-SW 202 0 min 0,0 UV-I 0 W/m 2,2 C -3,8 C 25,7 km/h (4 Bft)
20.02.2023 05:07 3,1 C 2,8 C 94 % 1027,6 hPa 0,0 l/m 11,3 km/h (2 Bft) SW 225 0 min 0,0 UV-I 0 W/m 2,2 C -1,0 C 19,3 km/h (3 Bft)
20.02.2023 05:08 3,1 C 2,8 C 94 % 1027,5 hPa 0,0 l/m 9,7 km/h (2 Bft) S-SW 202 0 min 0,0 UV-I 0 W/m 2,2 C 0,2 C 14,5 km/h (3 Bft)
20.02.2023 05:09 3,1 C 2,8 C 94 % 1027,5 hPa 0,0 l/m 9,7 km/h (2 Bft) SW 225 0 min 0,0 UV-I 0 W/m 2,2 C 0,2 C 17,7 km/h (3 Bft)
20.02.2023 05:10 3,1 C 2,8 C 94 % 1027,5 hPa 0,0 l/m 17,7 km/h (3 Bft) S-SW 202 0 min 0,0 UV-I 0 W/m 2,2 C -4,6 C 29,0 km/h (5 Bft)
20.02.2023 05:11 3,1 C 2,8 C 94 % 1027,5 hPa 0,0 l/m 14,5 km/h (3 Bft) S-SW 202 0 min 0,0 UV-I 0 W/m 2,2 C -2,9 C 19,3 km/h (3 Bft)
20.02.2023 05:12 3,1 C 2,8 C 94 % 1027,6 hPa 0,0 l/m 12,9 km/h (3 Bft) S-SW 202 0 min 0,0 UV-I 0 W/m 2,2 C -2,0 C 29,0 km/h (5 Bft)
20.02.2023 05:13 3,1 C 2,8 C 94 % 1027,5 hPa 0,0 l/m 14,5 km/h (3 Bft) S-SW 202 0 min 0,0 UV-I 0 W/m 2,2 C -2,9 C 25,7 km/h (4 Bft)
20.02.2023 05:14 3,1 C 2,8 C 94 % 1027,5 hPa 0,0 l/m 20,9 km/h (4 Bft) S-SW 202 0 min 0,0 UV-I 0 W/m 2,2 C -6,0 C 27,4 km/h (4 Bft)
20.02.2023 05:15 3,1 C 2,8 C 94 % 1027,5 hPa 0,0 l/m 16,1 km/h (3 Bft) S-SW 202 0 min 0,0 UV-I 0 W/m 2,2 C -3,8 C 24,1 km/h (4 Bft)
20.02.2023 05:16 3,1 C 2,8 C 94 % 1027,4 hPa 0,0 l/m 17,7 km/h (3 Bft) S-SW 202 0 min 0,0 UV-I 0 W/m 2,2 C -4,6 C 24,1 km/h (4 Bft)
20.02.2023 05:17 3,1 C 2,8 C 94 % 1027,6 hPa 0,0 l/m 17,7 km/h (3 Bft) SW 225 0 min 0,0 UV-I 0 W/m 2,2 C -4,6 C 24,1 km/h (4 Bft)
20.02.2023 05:18 3,1 C 2,8 C 94 % 1027,5 hPa 0,0 l/m 14,5 km/h (3 Bft) SW 225 0 min 0,0 UV-I 0 W/m 2,2 C -2,9 C 22,5 km/h (4 Bft)
20.02.2023 05:19 3,1 C 2,8 C 94 % 1027,5 hPa 0,0 l/m 14,5 km/h (3 Bft) S-SW 202 0 min 0,0 UV-I 0 W/m 2,2 C -2,9 C 24,1 km/h (4 Bft)
20.02.2023 05:20 3,1 C 2,8 C 94 % 1027,5 hPa 0,0 l/m 12,9 km/h (3 Bft) SW 225 0 min 0,0 UV-I 0 W/m 2,2 C -2,0 C 16,1 km/h (3 Bft)
20.02.2023 05:21 3,1 C 2,8 C 94 % 1027,5 hPa 0,0 l/m 12,9 km/h (3 Bft) S-SW 202 0 min 0,0 UV-I 0 W/m 2,2 C -2,0 C 22,5 km/h (4 Bft)
20.02.2023 05:22 3,1 C 2,8 C 94 % 1027,5 hPa 0,0 l/m 12,9 km/h (3 Bft) S-SW 202 0 min 0,0 UV-I 0 W/m 2,2 C -2,0 C 19,3 km/h (3 Bft)
20.02.2023 05:23 3,1 C 2,8 C 94 % 1027,5 hPa 0,0 l/m 16,1 km/h (3 Bft) S-SW 202 0 min 0,0 UV-I 0 W/m 2,2 C -3,8 C 22,5 km/h (4 Bft)
20.02.2023 05:24 3,1 C 2,8 C 94 % 1027,4 hPa 0,0 l/m 16,1 km/h (3 Bft) S-SW 202 0 min 0,0 UV-I 0 W/m 2,2 C -3,8 C 20,9 km/h (4 Bft)
20.02.2023 05:25 3,1 C 2,8 C 94 % 1027,5 hPa 0,0 l/m 14,5 km/h (3 Bft) S-SW 202 0 min 0,0 UV-I 0 W/m 2,2 C -2,9 C 19,3 km/h (3 Bft)
20.02.2023 05:26 3,2 C 2,8 C 94 % 1027,4 hPa 0,0 l/m 17,7 km/h (3 Bft) S-SW 202 0 min 0,0 UV-I 0 W/m 2,3 C -4,5 C 24,1 km/h (4 Bft)
20.02.2023 05:27 3,1 C 2,8 C 94 % 1027,4 hPa 0,0 l/m 11,3 km/h (2 Bft) SW 225 0 min 0,0 UV-I 0 W/m 2,2 C -1,0 C 19,3 km/h (3 Bft)
20.02.2023 05:28 3,1 C 2,8 C 94 % 1027,4 hPa 0,0 l/m 12,9 km/h (3 Bft) SW 225 0 min 0,0 UV-I 0 W/m 2,2 C -2,0 C 17,7 km/h (3 Bft)
20.02.2023 05:29 3,1 C 2,8 C 94 % 1027,4 hPa 0,0 l/m 17,7 km/h (3 Bft) S-SW 202 0 min 0,0 UV-I 0 W/m 2,2 C -4,6 C 25,7 km/h (4 Bft)
20.02.2023 05:30 3,1 C 2,8 C 94 % 1027,5 hPa 0,0 l/m 19,3 km/h (3 Bft) S-SW 202 0 min 0,0 UV-I 0 W/m 2,2 C -5,3 C 29,0 km/h (5 Bft)
20.02.2023 05:31 3,2 C 2,8 C 94 % 1027,4 hPa 0,0 l/m 14,5 km/h (3 Bft) S-SW 202 0 min 0,0 UV-I 0 W/m 2,3 C -2,8 C 19,3 km/h (3 Bft)
20.02.2023 05:32 3,2 C 2,8 C 94 % 1027,5 hPa 0,0 l/m 14,5 km/h (3 Bft) S-SW 202 0 min 0,0 UV-I 0 W/m 2,3 C -2,8 C 19,3 km/h (3 Bft)
20.02.2023 05:33 3,1 C 2,8 C 94 % 1027,5 hPa 0,0 l/m 14,5 km/h (3 Bft) SW 225 0 min 0,0 UV-I 0 W/m 2,2 C -2,9 C 24,1 km/h (4 Bft)
20.02.2023 05:34 3,1 C 2,8 C 94 % 1027,5 hPa 0,0 l/m 20,9 km/h (4 Bft) SW 225 0 min 0,0 UV-I 0 W/m 2,2 C -6,0 C 27,4 km/h (4 Bft)
20.02.2023 05:35 3,1 C 2,8 C 94 % 1027,5 hPa 0,0 l/m 19,3 km/h (3 Bft) S-SW 202 0 min 0,0 UV-I 0 W/m 2,2 C -5,3 C 24,1 km/h (4 Bft)
20.02.2023 05:36 3,1 C 2,8 C 94 % 1027,6 hPa 0,0 l/m 20,9 km/h (4 Bft) S-SW 202 0 min 0,0 UV-I 0 W/m 2,2 C -6,0 C 29,0 km/h (5 Bft)
20.02.2023 05:37 3,1 C 2,8 C 94 % 1027,5 hPa 0,0 l/m 16,1 km/h (3 Bft) SW 225 0 min 0,0 UV-I 0 W/m 2,2 C -3,8 C 22,5 km/h (4 Bft)
20.02.2023 05:38 3,1 C 2,8 C 94 % 1027,6 hPa 0,0 l/m 16,1 km/h (3 Bft) S-SW 202 0 min 0,0 UV-I 0 W/m 2,2 C -3,8 C 25,7 km/h (4 Bft)
20.02.2023 05:39 3,1 C 2,8 C 94 % 1027,5 hPa 0,0 l/m 12,9 km/h (3 Bft) S-SW 202 0 min 0,0 UV-I 0 W/m 2,2 C -2,0 C 20,9 km/h (4 Bft)
20.02.2023 05:40 3,1 C 2,8 C 94 % 1027,5 hPa 0,0 l/m 16,1 km/h (3 Bft) S-SW 202 0 min 0,0 UV-I 0 W/m 2,2 C -3,8 C 22,5 km/h (4 Bft)
20.02.2023 05:41 3,1 C 2,8 C 94 % 1027,6 hPa 0,0 l/m 14,5 km/h (3 Bft) S-SW 202 0 min 0,0 UV-I 0 W/m 2,2 C -2,9 C 20,9 km/h (4 Bft)
20.02.2023 05:42 3,1 C 2,8 C 94 % 1027,5 hPa 0,0 l/m 16,1 km/h (3 Bft) S-SW 202 0 min 0,0 UV-I 0 W/m 2,2 C -3,8 C 22,5 km/h (4 Bft)
20.02.2023 05:43 3,1 C 2,8 C 94 % 1027,5 hPa 0,0 l/m 16,1 km/h (3 Bft) S-SW 202 0 min 0,0 UV-I 0 W/m 2,2 C -3,8 C 22,5 km/h (4 Bft)
20.02.2023 05:44 3,1 C 2,8 C 94 % 1027,6 hPa 0,0 l/m 14,5 km/h (3 Bft) S 180 0 min 0,0 UV-I 0 W/m 2,2 C -2,9 C 20,9 km/h (4 Bft)
20.02.2023 05:45 3,1 C 2,8 C 94 % 1027,5 hPa 0,0 l/m 17,7 km/h (3 Bft) S-SW 202 0 min 0,0 UV-I 0 W/m 2,2 C -4,6 C 30,6 km/h (5 Bft)
20.02.2023 05:46 3,1 C 2,8 C 94 % 1027,6 hPa 0,0 l/m 19,3 km/h (3 Bft) S-SW 202 0 min 0,0 UV-I 0 W/m 2,2 C -5,3 C 25,7 km/h (4 Bft)
20.02.2023 05:47 3,1 C 2,8 C 94 % 1027,5 hPa 0,0 l/m 16,1 km/h (3 Bft) S-SW 202 0 min 0,0 UV-I 0 W/m 2,2 C -3,8 C 30,6 km/h (5 Bft)
20.02.2023 05:48 3,1 C 2,8 C 94 % 1027,5 hPa 0,0 l/m 16,1 km/h (3 Bft) S-SW 202 0 min 0,0 UV-I 0 W/m 2,2 C -3,8 C 22,5 km/h (4 Bft)
20.02.2023 05:49 3,1 C 2,8 C 94 % 1027,6 hPa 0,0 l/m 17,7 km/h (3 Bft) S-SW 202 0 min 0,0 UV-I 0 W/m 2,2 C -4,6 C 20,9 km/h (4 Bft)
20.02.2023 05:50 3,1 C 2,8 C 94 % 1027,5 hPa 0,0 l/m 14,5 km/h (3 Bft) S-SW 202 0 min 0,0 UV-I 0 W/m 2,2 C -2,9 C 20,9 km/h (4 Bft)
20.02.2023 05:51 3,1 C 2,8 C 94 % 1027,6 hPa 0,0 l/m 11,3 km/h (2 Bft) S-SW 202 0 min 0,0 UV-I 0 W/m 2,2 C -1,0 C 14,5 km/h (3 Bft)
20.02.2023 05:52 3,1 C 2,8 C 94 % 1027,6 hPa 0,0 l/m 16,1 km/h (3 Bft) S 180 0 min 0,0 UV-I 0 W/m 2,2 C -3,8 C 25,7 km/h (4 Bft)
20.02.2023 05:53 3,1 C 2,8 C 94 % 1027,5 hPa 0,0 l/m 12,9 km/h (3 Bft) S-SW 202 0 min 0,0 UV-I 0 W/m 2,2 C -2,0 C 20,9 km/h (4 Bft)
20.02.2023 05:54 3,1 C 2,8 C 94 % 1027,5 hPa 0,0 l/m 14,5 km/h (3 Bft) S-SW 202 0 min 0,0 UV-I 0 W/m 2,2 C -2,9 C 20,9 km/h (4 Bft)
20.02.2023 05:55 3,1 C 2,8 C 94 % 1027,6 hPa 0,0 l/m 12,9 km/h (3 Bft) S-SW 202 0 min 0,0 UV-I 0 W/m 2,2 C -2,0 C 20,9 km/h (4 Bft)
20.02.2023 05:56 3,1 C 2,8 C 94 % 1027,6 hPa 0,0 l/m 12,9 km/h (3 Bft) S-SW 202 0 min 0,0 UV-I 0 W/m 2,2 C -2,0 C 17,7 km/h (3 Bft)
20.02.2023 05:57 3,1 C 2,8 C 94 % 1027,6 hPa 0,0 l/m 14,5 km/h (3 Bft) S-SW 202 0 min 0,0 UV-I 0 W/m 2,2 C -2,9 C 19,3 km/h (3 Bft)
20.02.2023 05:58 3,0 C 2,8 C 94 % 1027,6 hPa 0,0 l/m 16,1 km/h (3 Bft) S-SW 202 0 min 0,0 UV-I 0 W/m 2,1 C -3,9 C 22,5 km/h (4 Bft)
20.02.2023 05:59 3,1 C 2,8 C 94 % 1027,6 hPa 0,0 l/m 14,5 km/h (3 Bft) S-SW 202 0 min 0,0 UV-I 0 W/m 2,2 C -2,9 C 20,9 km/h (4 Bft)
20.02.2023 06:00 3,0 C 2,8 C 94 % 1027,7 hPa 0,0 l/m 14,5 km/h (3 Bft) S-SW 202 0 min 0,0 UV-I 0 W/m 2,1 C -3,1 C 17,7 km/h (3 Bft)
20.02.2023 06:01 3,0 C 2,8 C 94 % 1027,7 hPa 0,0 l/m 16,1 km/h (3 Bft) S-SW 202 0 min 0,0 UV-I 0 W/m 2,1 C -3,9 C 20,9 km/h (4 Bft)
20.02.2023 06:02 3,0 C 2,8 C 94 % 1027,7 hPa 0,0 l/m 14,5 km/h (3 Bft) S-SW 202 0 min 0,0 UV-I 0 W/m 2,1 C -3,1 C 19,3 km/h (3 Bft)
20.02.2023 06:03 3,0 C 2,8 C 94 % 1027,7 hPa 0,0 l/m 14,5 km/h (3 Bft) S-SW 202 0 min 0,0 UV-I 0 W/m 2,1 C -3,1 C 20,9 km/h (4 Bft)
20.02.2023 06:04 3,0 C 2,8 C 94 % 1027,7 hPa 0,0 l/m 19,3 km/h (3 Bft) S-SW 202 0 min 0,0 UV-I 0 W/m 2,1 C -5,5 C 25,7 km/h (4 Bft)
20.02.2023 06:05 3,0 C 2,8 C 94 % 1027,7 hPa 0,0 l/m 19,3 km/h (3 Bft) S-SW 202 0 min 0,0 UV-I 0 W/m 2,1 C -5,5 C 24,1 km/h (4 Bft)
20.02.2023 06:06 3,0 C 2,8 C 94 % 1027,8 hPa 0,0 l/m 16,1 km/h (3 Bft) S-SW 202 0 min 0,0 UV-I 0 W/m 2,1 C -3,9 C 20,9 km/h (4 Bft)
20.02.2023 06:07 2,9 C 2,2 C 94 % 1027,7 hPa 0,0 l/m 12,9 km/h (3 Bft) S-SW 202 0 min 0,0 UV-I 0 W/m 2,0 C -2,2 C 17,7 km/h (3 Bft)
20.02.2023 06:08 2,9 C 2,2 C 94 % 1027,7 hPa 0,0 l/m 14,5 km/h (3 Bft) S-SW 202 0 min 0,0 UV-I 0 W/m 2,0 C -3,2 C 19,3 km/h (3 Bft)
20.02.2023 06:09 2,9 C 2,2 C 94 % 1027,8 hPa 0,0 l/m 9,7 km/h (2 Bft) S 180 0 min 0,0 UV-I 0 W/m 2,0 C -0,0 C 11,3 km/h (2 Bft)
20.02.2023 06:10 2,9 C 2,2 C 94 % 1027,7 hPa 0,0 l/m 14,5 km/h (3 Bft) S-SW 202 0 min 0,0 UV-I 0 W/m 2,0 C -3,2 C 19,3 km/h (3 Bft)
20.02.2023 06:11 2,9 C 2,2 C 94 % 1027,8 hPa 0,0 l/m 19,3 km/h (3 Bft) S-SW 202 0 min 0,0 UV-I 0 W/m 2,0 C -5,6 C 27,4 km/h (4 Bft)
20.02.2023 06:12 2,9 C 2,2 C 94 % 1027,8 hPa 0,0 l/m 12,9 km/h (3 Bft) S 180 0 min 0,0 UV-I 0 W/m 2,0 C -2,2 C 25,7 km/h (4 Bft)
20.02.2023 06:13 2,9 C 2,2 C 94 % 1027,8 hPa 0,0 l/m 16,1 km/h (3 Bft) S-SW 202 0 min 0,0 UV-I 0 W/m 2,0 C -4,1 C 24,1 km/h (4 Bft)
20.02.2023 06:14 2,9 C 2,2 C 94 % 1027,8 hPa 0,0 l/m 14,5 km/h (3 Bft) S-SW 202 0 min 0,0 UV-I 0 W/m 2,0 C -3,2 C 20,9 km/h (4 Bft)
20.02.2023 06:15 2,9 C 2,2 C 94 % 1027,9 hPa 0,0 l/m 16,1 km/h (3 Bft) S-SW 202 0 min 0,0 UV-I 0 W/m 2,0 C -4,1 C 19,3 km/h (3 Bft)
20.02.2023 06:16 2,9 C 2,2 C 94 % 1027,7 hPa 0,0 l/m 12,9 km/h (3 Bft) S-SW 202 0 min 0,0 UV-I 0 W/m 2,0 C -2,2 C 16,1 km/h (3 Bft)
20.02.2023 06:17 2,9 C 2,2 C 94 % 1027,8 hPa 0,0 l/m 11,3 km/h (2 Bft) SW 225 0 min 0,0 UV-I 0 W/m 2,0 C -1,2 C 17,7 km/h (3 Bft)
20.02.2023 06:18 2,9 C 2,2 C 94 % 1027,8 hPa 0,0 l/m 12,9 km/h (3 Bft) S-SW 202 0 min 0,0 UV-I 0 W/m 2,0 C -2,2 C 16,1 km/h (3 Bft)
20.02.2023 06:19 2,9 C 2,2 C 94 % 1027,8 hPa 0,0 l/m 9,7 km/h (2 Bft) S-SW 202 0 min 0,0 UV-I 0 W/m 2,0 C -0,0 C 14,5 km/h (3 Bft)
20.02.2023 06:20 2,9 C 2,8 C 94 % 1027,8 hPa 0,0 l/m 12,9 km/h (3 Bft) S-SW 202 0 min 0,0 UV-I 0 W/m 2,0 C -2,2 C 17,7 km/h (3 Bft)
20.02.2023 06:21 2,9 C 2,8 C 94 % 1027,8 hPa 0,0 l/m 11,3 km/h (2 Bft) S-SW 202 0 min 0,0 UV-I 0 W/m 2,0 C -1,2 C 14,5 km/h (3 Bft)
20.02.2023 06:22 2,9 C 2,8 C 94 % 1027,8 hPa 0,0 l/m 14,5 km/h (3 Bft) S-SW 202 0 min 0,0 UV-I 0 W/m 2,0 C -3,2 C 20,9 km/h (4 Bft)
20.02.2023 06:23 2,9 C 2,8 C 94 % 1027,9 hPa 0,0 l/m 9,7 km/h (2 Bft) SW 225 0 min 0,0 UV-I 0 W/m 2,0 C -0,0 C 14,5 km/h (3 Bft)
20.02.2023 06:24 2,9 C 2,2 C 94 % 1027,8 hPa 0,0 l/m 14,5 km/h (3 Bft) S-SW 202 0 min 0,0 UV-I 0 W/m 2,0 C -3,2 C 17,7 km/h (3 Bft)
20.02.2023 06:25 2,9 C 2,2 C 94 % 1027,8 hPa 0,0 l/m 14,5 km/h (3 Bft) S-SW 202 0 min 0,0 UV-I 0 W/m 2,0 C -3,2 C 17,7 km/h (3 Bft)
20.02.2023 06:26 2,9 C 2,2 C 94 % 1027,7 hPa 0,0 l/m 12,9 km/h (3 Bft) SW 225 0 min 0,0 UV-I 0 W/m 2,0 C -2,2 C 20,9 km/h (4 Bft)
20.02.2023 06:27 2,9 C 2,2 C 94 % 1027,7 hPa 0,0 l/m 14,5 km/h (3 Bft) SW 225 0 min 0,0 UV-I 0 W/m 2,0 C -3,2 C 20,9 km/h (4 Bft)
20.02.2023 06:28 2,9 C 2,2 C 94 % 1027,7 hPa 0,0 l/m 17,7 km/h (3 Bft) S-SW 202 0 min 0,0 UV-I 0 W/m 2,0 C -4,8 C 27,4 km/h (4 Bft)
20.02.2023 06:29 2,9 C 2,2 C 94 % 1027,6 hPa 0,0 l/m 12,9 km/h (3 Bft) S-SW 202 0 min 0,0 UV-I 0 W/m 2,0 C -2,2 C 17,7 km/h (3 Bft)
20.02.2023 06:30 2,9 C 2,2 C 94 % 1027,8 hPa 0,0 l/m 14,5 km/h (3 Bft) S-SW 202 0 min 0,0 UV-I 0 W/m 2,0 C -3,2 C 20,9 km/h (4 Bft)
20.02.2023 06:31 2,9 C 2,2 C 94 % 1027,6 hPa 0,0 l/m 9,7 km/h (2 Bft) S-SW 202 0 min 0,0 UV-I 0 W/m 2,0 C -0,0 C 12,9 km/h (3 Bft)
20.02.2023 06:32 2,9 C 2,2 C 94 % 1027,6 hPa 0,0 l/m 14,5 km/h (3 Bft) S-SW 202 0 min 0,0 UV-I 0 W/m 2,0 C -3,2 C 19,3 km/h (3 Bft)
20.02.2023 06:33 2,8 C 2,2 C 94 % 1027,7 hPa 0,0 l/m 12,9 km/h (3 Bft) SW 225 0 min 0,0 UV-I 0 W/m 1,9 C -2,4 C 17,7 km/h (3 Bft)
20.02.2023 06:34 2,9 C 2,2 C 94 % 1027,6 hPa 0,0 l/m 11,3 km/h (2 Bft) S-SW 202 0 min 0,0 UV-I 0 W/m 2,0 C -1,2 C 16,1 km/h (3 Bft)
20.02.2023 06:35 2,9 C 2,2 C 94 % 1027,7 hPa 0,0 l/m 14,5 km/h (3 Bft) S-SW 202 0 min 0,0 UV-I 0 W/m 2,0 C -3,2 C 22,5 km/h (4 Bft)
20.02.2023 06:36 2,8 C 2,2 C 94 % 1027,6 hPa 0,0 l/m 17,7 km/h (3 Bft) S-SW 202 0 min 0,0 UV-I 0 W/m 1,9 C -5,0 C 27,4 km/h (4 Bft)
20.02.2023 06:37 2,8 C 2,2 C 94 % 1027,5 hPa 0,0 l/m 17,7 km/h (3 Bft) S-SW 202 0 min 0,0 UV-I 0 W/m 1,9 C -5,0 C 22,5 km/h (4 Bft)
20.02.2023 06:38 2,8 C 2,2 C 94 % 1027,6 hPa 0,0 l/m 14,5 km/h (3 Bft) S-SW 202 0 min 0,0 UV-I 0 W/m 1,9 C -3,3 C 22,5 km/h (4 Bft)
20.02.2023 06:39 2,8 C 2,2 C 94 % 1027,5 hPa 0,0 l/m 17,7 km/h (3 Bft) S-SW 202 0 min 0,0 UV-I 0 W/m 1,9 C -5,0 C 25,7 km/h (4 Bft)
20.02.2023 06:40 2,8 C 2,2 C 94 % 1027,5 hPa 0,0 l/m 19,3 km/h (3 Bft) S-SW 202 0 min 0,0 UV-I 0 W/m 1,9 C -5,7 C 29,0 km/h (5 Bft)
20.02.2023 06:41 2,8 C 2,2 C 94 % 1027,5 hPa 0,0 l/m 12,9 km/h (3 Bft) S-SW 202 0 min 0,0 UV-I 0 W/m 1,9 C -2,4 C 22,5 km/h (4 Bft)
20.02.2023 06:42 2,8 C 2,2 C 94 % 1027,5 hPa 0,0 l/m 16,1 km/h (3 Bft) S-SW 202 0 min 0,0 UV-I 0 W/m 1,9 C -4,2 C 22,5 km/h (4 Bft)
20.02.2023 06:43 2,8 C 2,2 C 94 % 1027,5 hPa 0,0 l/m 14,5 km/h (3 Bft) S-SW 202 0 min 0,0 UV-I 0 W/m 1,9 C -3,3 C 19,3 km/h (3 Bft)
20.02.2023 06:44 2,8 C 2,2 C 94 % 1027,5 hPa 0,0 l/m 16,1 km/h (3 Bft) S-SW 202 0 min 0,0 UV-I 0 W/m 1,9 C -4,2 C 19,3 km/h (3 Bft)
20.02.2023 06:45 2,8 C 2,2 C 94 % 1027,6 hPa 0,0 l/m 14,5 km/h (3 Bft) S-SW 202 0 min 0,0 UV-I 0 W/m 1,9 C -3,3 C 22,5 km/h (4 Bft)
20.02.2023 06:46 2,8 C 2,2 C 94 % 1027,6 hPa 0,0 l/m 14,5 km/h (3 Bft) S-SW 202 0 min 0,0 UV-I 0 W/m 1,9 C -3,3 C 22,5 km/h (4 Bft)
20.02.2023 06:47 2,8 C 2,2 C 94 % 1027,6 hPa 0,0 l/m 9,7 km/h (2 Bft) S-SW 202 0 min 0,0 UV-I 0 W/m 1,9 C -0,1 C 14,5 km/h (3 Bft)
20.02.2023 06:48 2,8 C 2,2 C 94 % 1027,5 hPa 0,0 l/m 12,9 km/h (3 Bft) S-SW 202 0 min 0,0 UV-I 0 W/m 1,9 C -2,4 C 19,3 km/h (3 Bft)
20.02.2023 06:49 2,8 C 2,2 C 94 % 1027,6 hPa 0,0 l/m 11,3 km/h (2 Bft) SW 225 0 min 0,0 UV-I 0 W/m 1,9 C -1,3 C 17,7 km/h (3 Bft)
20.02.2023 06:50 2,8 C 2,2 C 94 % 1027,5 hPa 0,0 l/m 14,5 km/h (3 Bft) S-SW 202 0 min 0,0 UV-I 0 W/m 1,9 C -3,3 C 17,7 km/h (3 Bft)
20.02.2023 06:51 2,8 C 2,2 C 94 % 1027,5 hPa 0,0 l/m 14,5 km/h (3 Bft) S-SW 202 0 min 0,0 UV-I 0 W/m 1,9 C -3,3 C 19,3 km/h (3 Bft)
20.02.2023 06:52 2,8 C 2,2 C 94 % 1027,5 hPa 0,0 l/m 14,5 km/h (3 Bft) S-SW 202 0 min 0,0 UV-I 0 W/m 1,9 C -3,3 C 19,3 km/h (3 Bft)
20.02.2023 06:53 2,7 C 2,2 C 94 % 1027,6 hPa 0,0 l/m 14,5 km/h (3 Bft) S-SW 202 0 min 0,0 UV-I 0 W/m 1,8 C -3,4 C 20,9 km/h (4 Bft)
20.02.2023 06:54 2,7 C 2,2 C 94 % 1027,5 hPa 0,0 l/m 16,1 km/h (3 Bft) S 180 0 min 0,0 UV-I 0 W/m 1,8 C -4,3 C 24,1 km/h (4 Bft)
20.02.2023 06:55 2,7 C 2,2 C 94 % 1027,6 hPa 0,0 l/m 11,3 km/h (2 Bft) SW 225 0 min 0,0 UV-I 0 W/m 1,8 C -1,4 C 17,7 km/h (3 Bft)
20.02.2023 06:56 2,7 C 2,2 C 94 % 1027,6 hPa 0,0 l/m 12,9 km/h (3 Bft) S-SW 202 0 min 0,0 UV-I 0 W/m 1,8 C -2,5 C 19,3 km/h (3 Bft)
20.02.2023 06:57 2,7 C 2,2 C 94 % 1027,5 hPa 0,0 l/m 12,9 km/h (3 Bft) S-SW 202 0 min 0,0 UV-I 0 W/m 1,8 C -2,5 C 16,1 km/h (3 Bft)
20.02.2023 06:58 2,7 C 2,2 C 94 % 1027,6 hPa 0,0 l/m 12,9 km/h (3 Bft) S-SW 202 0 min 0,0 UV-I 0 W/m 1,8 C -2,5 C 19,3 km/h (3 Bft)
20.02.2023 06:59 2,7 C 2,2 C 94 % 1027,5 hPa 0,0 l/m 12,9 km/h (3 Bft) S-SW 202 0 min 0,0 UV-I 0 W/m 1,8 C -2,5 C 19,3 km/h (3 Bft)
20.02.2023 07:00 2,7 C 2,2 C 94 % 1027,6 hPa 0,0 l/m 9,7 km/h (2 Bft) S-SW 202 0 min 0,0 UV-I 0 W/m 1,8 C -0,2 C 16,1 km/h (3 Bft)
20.02.2023 07:01 2,7 C 2,2 C 94 % 1027,5 hPa 0,0 l/m 12,9 km/h (3 Bft) S-SW 202 0 min 0,0 UV-I 0 W/m 1,8 C -2,5 C 19,3 km/h (3 Bft)
20.02.2023 07:02 2,7 C 2,2 C 94 % 1027,5 hPa 0,0 l/m 16,1 km/h (3 Bft) SW 225 0 min 0,0 UV-I 0 W/m 1,8 C -4,3 C 24,1 km/h (4 Bft)
20.02.2023 07:03 2,7 C 2,2 C 94 % 1027,5 hPa 0,0 l/m 14,5 km/h (3 Bft) S-SW 202 0 min 0,0 UV-I 0 W/m 1,8 C -3,4 C 19,3 km/h (3 Bft)
20.02.2023 07:04 2,7 C 2,2 C 94 % 1027,6 hPa 0,0 l/m 12,9 km/h (3 Bft) S-SW 202 0 min 0,0 UV-I 0 W/m 1,8 C -2,5 C 16,1 km/h (3 Bft)
20.02.2023 07:05 2,7 C 2,2 C 94 % 1027,6 hPa 0,0 l/m 9,7 km/h (2 Bft) SW 225 0 min 0,0 UV-I 0 W/m 1,8 C -0,2 C 12,9 km/h (3 Bft)
20.02.2023 07:06 2,8 C 2,2 C 94 % 1027,6 hPa 0,0 l/m 8,0 km/h (2 Bft) S-SW 202 0 min 0,0 UV-I 0 W/m 1,9 C 1,3 C 11,3 km/h (2 Bft)
20.02.2023 07:07 2,8 C 2,2 C 94 % 1027,6 hPa 0,0 l/m 11,3 km/h (2 Bft) S-SW 202 0 min 0,0 UV-I 0 W/m 1,9 C -1,3 C 14,5 km/h (3 Bft)
20.02.2023 07:08 2,8 C 2,2 C 94 % 1027,6 hPa 0,0 l/m 11,3 km/h (2 Bft) S-SW 202 0 min 0,0 UV-I 0 W/m 1,9 C -1,3 C 16,1 km/h (3 Bft)
20.02.2023 07:09 2,8 C 2,2 C 94 % 1027,5 hPa 0,0 l/m 11,3 km/h (2 Bft) S-SW 202 0 min 0,0 UV-I 0 W/m 1,9 C -1,3 C 14,5 km/h (3 Bft)
20.02.2023 07:10 2,8 C 2,2 C 94 % 1027,5 hPa 0,0 l/m 12,9 km/h (3 Bft) S-SW 202 0 min 0,0 UV-I 0 W/m 1,9 C -2,4 C 16,1 km/h (3 Bft)
20.02.2023 07:11 2,7 C 2,2 C 94 % 1027,5 hPa 0,0 l/m 6,4 km/h (2 Bft) SW 225 0 min 0,0 UV-I 0 W/m 1,8 C 2,7 C 11,3 km/h (2 Bft)
20.02.2023 07:12 2,8 C 2,2 C 94 % 1027,6 hPa 0,0 l/m 6,4 km/h (2 Bft) S 180 0 min 0,0 UV-I 0 W/m 1,9 C 2,8 C 11,3 km/h (2 Bft)
20.02.2023 07:13 2,8 C 2,2 C 94 % 1027,5 hPa 0,0 l/m 8,0 km/h (2 Bft) S 180 0 min 0,0 UV-I 0 W/m 1,9 C 1,3 C 12,9 km/h (3 Bft)
20.02.2023 07:14 2,8 C 2,2 C 94 % 1027,6 hPa 0,0 l/m 14,5 km/h (3 Bft) S-SW 202 0 min 0,0 UV-I 0 W/m 1,9 C -3,3 C 17,7 km/h (3 Bft)
20.02.2023 07:15 2,8 C 2,2 C 94 % 1027,5 hPa 0,0 l/m 14,5 km/h (3 Bft) S 180 0 min 0,0 UV-I 0 W/m 1,9 C -3,3 C 17,7 km/h (3 Bft)
20.02.2023 07:16 2,8 C 2,2 C 94 % 1027,5 hPa 0,0 l/m 8,0 km/h (2 Bft) SW 225 0 min 0,0 UV-I 0 W/m 1,9 C 1,3 C 12,9 km/h (3 Bft)
20.02.2023 07:17 2,8 C 2,2 C 94 % 1027,5 hPa 0,0 l/m 6,4 km/h (2 Bft) SW 225 0 min 0,0 UV-I 0 W/m 1,9 C 2,8 C 11,3 km/h (2 Bft)
20.02.2023 07:18 2,8 C 2,2 C 94 % 1027,5 hPa 0,0 l/m 9,7 km/h (2 Bft) SW 225 0 min 0,0 UV-I 0 W/m 1,9 C -0,1 C 11,3 km/h (2 Bft)
20.02.2023 07:19 2,8 C 2,2 C 94 % 1027,5 hPa 0,0 l/m 11,3 km/h (2 Bft) S-SW 202 0 min 0,0 UV-I 0 W/m 1,9 C -1,3 C 14,5 km/h (3 Bft)
20.02.2023 07:20 2,8 C 2,2 C 94 % 1027,5 hPa 0,0 l/m 8,0 km/h (2 Bft) S 180 0 min 0,0 UV-I 0 W/m 1,9 C 1,3 C 11,3 km/h (2 Bft)
20.02.2023 07:21 2,8 C 2,2 C 94 % 1027,5 hPa 0,0 l/m 6,4 km/h (2 Bft) SW 225 0 min 0,0 UV-I 0 W/m 1,9 C 2,8 C 9,7 km/h (2 Bft)
20.02.2023 07:22 2,8 C 2,2 C 94 % 1027,5 hPa 0,0 l/m 9,7 km/h (2 Bft) S-SW 202 0 min 0,0 UV-I 0 W/m 1,9 C -0,1 C 12,9 km/h (3 Bft)
20.02.2023 07:23 2,7 C 2,2 C 94 % 1027,4 hPa 0,0 l/m 9,7 km/h (2 Bft) S-SW 202 0 min 0,0 UV-I 0 W/m 1,8 C -0,2 C 19,3 km/h (3 Bft)
20.02.2023 07:24 2,7 C 2,2 C 94 % 1027,5 hPa 0,0 l/m 12,9 km/h (3 Bft) S 180 0 min 0,0 UV-I 0 W/m 1,8 C -2,5 C 19,3 km/h (3 Bft)
20.02.2023 07:25 2,8 C 2,2 C 94 % 1027,4 hPa 0,0 l/m 11,3 km/h (2 Bft) S 180 0 min 0,0 UV-I 0 W/m 1,9 C -1,3 C 17,7 km/h (3 Bft)
20.02.2023 07:26 2,7 C 2,2 C 94 % 1027,4 hPa 0,0 l/m 9,7 km/h (2 Bft) S-SW 202 0 min 0,0 UV-I 0 W/m 1,8 C -0,2 C 16,1 km/h (3 Bft)
20.02.2023 07:27 2,8 C 2,2 C 94 % 1027,4 hPa 0,0 l/m 11,3 km/h (2 Bft) S-SW 202 0 min 0,0 UV-I 0 W/m 1,9 C -1,3 C 14,5 km/h (3 Bft)
20.02.2023 07:28 2,7 C 2,2 C 94 % 1027,4 hPa 0,0 l/m 8,0 km/h (2 Bft) S-SW 202 0 min 0,0 UV-I 0 W/m 1,8 C 1,2 C 11,3 km/h (2 Bft)
20.02.2023 07:29 2,7 C 2,2 C 94 % 1027,4 hPa 0,0 l/m 4,8 km/h (1 Bft) SW 225 0 min 0,0 UV-I 0 W/m 1,8 C 2,7 C 8,0 km/h (2 Bft)
20.02.2023 07:30 2,7 C 2,2 C 94 % 1027,5 hPa 0,0 l/m 9,7 km/h (2 Bft) S-SW 202 0 min 0,0 UV-I 0 W/m 1,8 C -0,2 C 11,3 km/h (2 Bft)
20.02.2023 07:31 2,7 C 2,2 C 94 % 1027,4 hPa 0,0 l/m 9,7 km/h (2 Bft) S 180 0 min 0,0 UV-I 0 W/m 1,8 C -0,2 C 14,5 km/h (3 Bft)
20.02.2023 07:32 2,7 C 2,2 C 94 % 1027,4 hPa 0,0 l/m 6,4 km/h (2 Bft) SW 225 0 min 0,0 UV-I 0 W/m 1,8 C 2,7 C 9,7 km/h (2 Bft)
20.02.2023 07:33 2,7 C 2,2 C 94 % 1027,5 hPa 0,0 l/m 6,4 km/h (2 Bft) S 180 0 min 0,0 UV-I 0 W/m 1,8 C 2,7 C 12,9 km/h (3 Bft)
20.02.2023 07:34 2,7 C 2,2 C 94 % 1027,5 hPa 0,0 l/m 9,7 km/h (2 Bft) S-SW 202 0 min 0,0 UV-I 0 W/m 1,8 C -0,2 C 12,9 km/h (3 Bft)
20.02.2023 07:35 2,7 C 2,2 C 94 % 1027,5 hPa 0,0 l/m 8,0 km/h (2 Bft) S-SW 202 0 min 0,0 UV-I 0 W/m 1,8 C 1,2 C 11,3 km/h (2 Bft)
20.02.2023 07:36 2,7 C 2,2 C 94 % 1027,5 hPa 0,0 l/m 8,0 km/h (2 Bft) S 180 0 min 0,0 UV-I 0 W/m 1,8 C 1,2 C 12,9 km/h (3 Bft)
20.02.2023 07:37 2,7 C 2,2 C 94 % 1027,5 hPa 0,0 l/m 9,7 km/h (2 Bft) S-SW 202 0 min 0,0 UV-I 0 W/m 1,8 C -0,2 C 14,5 km/h (3 Bft)
20.02.2023 07:38 2,7 C 2,2 C 94 % 1027,4 hPa 0,0 l/m 11,3 km/h (2 Bft) S-SW 202 0 min 0,0 UV-I 0 W/m 1,8 C -1,4 C 17,7 km/h (3 Bft)
20.02.2023 07:39 2,7 C 2,2 C 94 % 1027,5 hPa 0,0 l/m 8,0 km/h (2 Bft) S-SW 202 0 min 0,0 UV-I 0 W/m 1,8 C 1,2 C 11,3 km/h (2 Bft)
20.02.2023 07:40 2,7 C 2,2 C 94 % 1027,4 hPa 0,0 l/m 6,4 km/h (2 Bft) S-SW 202 0 min 0,0 UV-I 0 W/m 1,8 C 2,7 C 9,7 km/h (2 Bft)
20.02.2023 07:41 2,7 C 2,2 C 94 % 1027,4 hPa 0,0 l/m 9,7 km/h (2 Bft) S 180 0 min 0,0 UV-I 0 W/m 1,8 C -0,2 C 17,7 km/h (3 Bft)
20.02.2023 07:42 2,7 C 2,2 C 94 % 1027,5 hPa 0,0 l/m 11,3 km/h (2 Bft) S-SW 202 0 min 0,0 UV-I 0 W/m 1,8 C -1,4 C 17,7 km/h (3 Bft)
20.02.2023 07:43 2,7 C 2,2 C 94 % 1027,5 hPa 0,0 l/m 8,0 km/h (2 Bft) S-SW 202 0 min 0,0 UV-I 0 W/m 1,8 C 1,2 C 16,1 km/h (3 Bft)
20.02.2023 07:44 2,7 C 2,2 C 94 % 1027,5 hPa 0,0 l/m 8,0 km/h (2 Bft) S 180 0 min 0,0 UV-I 0 W/m 1,8 C 1,2 C 14,5 km/h (3 Bft)
20.02.2023 07:45 2,7 C 2,2 C 94 % 1027,5 hPa 0,0 l/m 9,7 km/h (2 Bft) S-SW 202 0 min 0,0 UV-I 0 W/m 1,8 C -0,2 C 17,7 km/h (3 Bft)
20.02.2023 07:46 2,6 C 2,2 C 94 % 1027,5 hPa 0,0 l/m 9,7 km/h (2 Bft) S-SW 202 0 min 0,0 UV-I 0 W/m 1,7 C -0,3 C 14,5 km/h (3 Bft)
20.02.2023 07:47 2,6 C 2,2 C 94 % 1027,5 hPa 0,0 l/m 12,9 km/h (3 Bft) SW 225 0 min 0,0 UV-I 5 W/m 1,7 C -2,6 C 17,7 km/h (3 Bft)
20.02.2023 07:48 2,6 C 2,2 C 94 % 1027,5 hPa 0,0 l/m 11,3 km/h (2 Bft) S-SW 202 0 min 0,0 UV-I 5 W/m 1,7 C -1,5 C 16,1 km/h (3 Bft)
20.02.2023 07:49 2,6 C 2,2 C 94 % 1027,4 hPa 0,0 l/m 9,7 km/h (2 Bft) SW 225 0 min 0,0 UV-I 5 W/m 1,7 C -0,3 C 12,9 km/h (3 Bft)
20.02.2023 07:50 2,6 C 2,2 C 94 % 1027,5 hPa 0,0 l/m 6,4 km/h (2 Bft) SW 225 0 min 0,0 UV-I 5 W/m 1,7 C 2,6 C 19,3 km/h (3 Bft)
20.02.2023 07:51 2,6 C 2,2 C 94 % 1027,5 hPa 0,0 l/m 12,9 km/h (3 Bft) S-SW 202 0 min 0,0 UV-I 5 W/m 1,7 C -2,6 C 22,5 km/h (4 Bft)
20.02.2023 07:52 2,6 C 2,2 C 94 % 1027,5 hPa 0,0 l/m 6,4 km/h (2 Bft) SW 225 0 min 0,0 UV-I 5 W/m 1,7 C 2,6 C 12,9 km/h (3 Bft)
20.02.2023 07:53 2,6 C 2,2 C 94 % 1027,5 hPa 0,0 l/m 4,8 km/h (1 Bft) SW 225 0 min 0,0 UV-I 7 W/m 1,7 C 2,6 C 12,9 km/h (3 Bft)
20.02.2023 07:54 2,6 C 2,2 C 94 % 1027,5 hPa 0,0 l/m 6,4 km/h (2 Bft) SW 225 0 min 0,0 UV-I 7 W/m 1,7 C 2,6 C 14,5 km/h (3 Bft)
20.02.2023 07:55 2,6 C 2,2 C 94 % 1027,5 hPa 0,0 l/m 6,4 km/h (2 Bft) SW 225 0 min 0,0 UV-I 7 W/m 1,7 C 2,6 C 9,7 km/h (2 Bft)
20.02.2023 07:56 2,6 C 2,2 C 94 % 1027,5 hPa 0,0 l/m 8,0 km/h (2 Bft) SW 225 0 min 0,0 UV-I 7 W/m 1,7 C 1,1 C 12,9 km/h (3 Bft)
20.02.2023 07:57 2,6 C 2,2 C 94 % 1027,5 hPa 0,0 l/m 9,7 km/h (2 Bft) SW 225 0 min 0,0 UV-I 7 W/m 1,7 C -0,3 C 17,7 km/h (3 Bft)
20.02.2023 07:58 2,6 C 2,2 C 94 % 1027,6 hPa 0,0 l/m 12,9 km/h (3 Bft) S-SW 202 0 min 0,0 UV-I 9 W/m 1,7 C -2,6 C 17,7 km/h (3 Bft)
20.02.2023 07:59 2,6 C 2,2 C 94 % 1027,5 hPa 0,0 l/m 11,3 km/h (2 Bft) S-SW 202 0 min 0,0 UV-I 10 W/m 1,7 C -1,5 C 14,5 km/h (3 Bft)
20.02.2023 08:00 2,6 C 2,2 C 94 % 1027,5 hPa 0,0 l/m 9,7 km/h (2 Bft) SW 225 0 min 0,0 UV-I 11 W/m 1,7 C -0,3 C 11,3 km/h (2 Bft)
20.02.2023 08:01 2,7 C 2,2 C 94 % 1027,6 hPa 0,0 l/m 8,0 km/h (2 Bft) S-SW 202 0 min 0,0 UV-I 14 W/m 1,8 C 1,2 C 11,3 km/h (2 Bft)
20.02.2023 08:02 2,7 C 2,2 C 94 % 1027,6 hPa 0,0 l/m 11,3 km/h (2 Bft) S-SW 202 0 min 0,0 UV-I 14 W/m 1,8 C -1,4 C 17,7 km/h (3 Bft)
20.02.2023 08:03 2,7 C 2,2 C 94 % 1027,6 hPa 0,0 l/m 12,9 km/h (3 Bft) S-SW 202 0 min 0,0 UV-I 14 W/m 1,8 C -2,5 C 16,1 km/h (3 Bft)
20.02.2023 08:04 2,7 C 2,2 C 94 % 1027,6 hPa 0,0 l/m 11,3 km/h (2 Bft) S-SW 202 0 min 0,0 UV-I 14 W/m 1,8 C -1,4 C 16,1 km/h (3 Bft)
20.02.2023 08:05 2,7 C 2,2 C 94 % 1027,6 hPa 0,0 l/m 8,0 km/h (2 Bft) S-SW 202 0 min 0,0 UV-I 13 W/m 1,8 C 1,2 C 11,3 km/h (2 Bft)
20.02.2023 08:06 2,7 C 2,2 C 94 % 1027,6 hPa 0,0 l/m 9,7 km/h (2 Bft) S-SW 202 0 min 0,0 UV-I 14 W/m 1,8 C -0,2 C 12,9 km/h (3 Bft)
20.02.2023 08:07 2,7 C 2,2 C 94 % 1027,6 hPa 0,0 l/m 11,3 km/h (2 Bft) S-SW 202 0 min 0,0 UV-I 11 W/m 1,8 C -1,4 C 17,7 km/h (3 Bft)
20.02.2023 08:08 2,7 C 2,2 C 94 % 1027,7 hPa 0,0 l/m 6,4 km/h (2 Bft) SW 225 0 min 0,0 UV-I 11 W/m 1,8 C 2,7 C 9,7 km/h (2 Bft)
20.02.2023 08:09 2,7 C 2,2 C 94 % 1027,6 hPa 0,0 l/m 9,7 km/h (2 Bft) S-SW 202 0 min 0,0 UV-I 9 W/m 1,8 C -0,2 C 14,5 km/h (3 Bft)
20.02.2023 08:10 2,7 C 2,2 C 94 % 1027,7 hPa 0,0 l/m 8,0 km/h (2 Bft) S-SW 202 0 min 0,0 UV-I 9 W/m 1,8 C 1,2 C 12,9 km/h (3 Bft)
20.02.2023 08:11 2,7 C 2,2 C 94 % 1027,7 hPa 0,0 l/m 12,9 km/h (3 Bft) S-SW 202 0 min 0,0 UV-I 9 W/m 1,8 C -2,5 C 17,7 km/h (3 Bft)
20.02.2023 08:12 2,7 C 2,2 C 94 % 1027,8 hPa 0,0 l/m 9,7 km/h (2 Bft) S-SW 202 0 min 0,0 UV-I 9 W/m 1,8 C -0,2 C 12,9 km/h (3 Bft)
20.02.2023 08:13 2,7 C 2,2 C 94 % 1027,7 hPa 0,0 l/m 9,7 km/h (2 Bft) SW 225 0 min 0,0 UV-I 9 W/m 1,8 C -0,2 C 14,5 km/h (3 Bft)
20.02.2023 08:14 2,7 C 2,2 C 94 % 1027,7 hPa 0,0 l/m 11,3 km/h (2 Bft) S-SW 202 0 min 0,0 UV-I 9 W/m 1,8 C -1,4 C 16,1 km/h (3 Bft)
20.02.2023 08:15 2,7 C 2,2 C 94 % 1027,7 hPa 0,0 l/m 12,9 km/h (3 Bft) S-SW 202 0 min 0,0 UV-I 9 W/m 1,8 C -2,5 C 20,9 km/h (4 Bft)
20.02.2023 08:16 2,7 C 2,2 C 94 % 1028,1 hPa 0,0 l/m 14,5 km/h (3 Bft) S-SW 202 0 min 0,0 UV-I 9 W/m 1,8 C -3,4 C 19,3 km/h (3 Bft)
20.02.2023 08:17 2,7 C 2,2 C 94 % 1027,7 hPa 0,0 l/m 12,9 km/h (3 Bft) S-SW 202 0 min 0,0 UV-I 10 W/m 1,8 C -2,5 C 17,7 km/h (3 Bft)
20.02.2023 08:18 2,7 C 2,2 C 94 % 1027,7 hPa 0,0 l/m 9,7 km/h (2 Bft) S-SW 202 0 min 0,0 UV-I 11 W/m 1,8 C -0,2 C 16,1 km/h (3 Bft)
20.02.2023 08:19 2,7 C 2,2 C 94 % 1027,7 hPa 0,0 l/m 12,9 km/h (3 Bft) S-SW 202 0 min 0,0 UV-I 11 W/m 1,8 C -2,5 C 16,1 km/h (3 Bft)
20.02.2023 08:20 2,7 C 2,2 C 94 % 1027,7 hPa 0,0 l/m 6,4 km/h (2 Bft) SW 225 0 min 0,0 UV-I 12 W/m 1,8 C 2,7 C 11,3 km/h (2 Bft)
20.02.2023 08:21 2,7 C 2,2 C 94 % 1027,7 hPa 0,0 l/m 11,3 km/h (2 Bft) S-SW 202 0 min 0,0 UV-I 12 W/m 1,8 C -1,4 C 17,7 km/h (3 Bft)
20.02.2023 08:22 2,7 C 2,2 C 94 % 1027,8 hPa 0,0 l/m 8,0 km/h (2 Bft) S 180 0 min 0,0 UV-I 12 W/m 1,8 C 1,2 C 11,3 km/h (2 Bft)
20.02.2023 08:23 2,7 C 2,2 C 94 % 1027,7 hPa 0,0 l/m 6,4 km/h (2 Bft) S-SW 202 0 min 0,0 UV-I 13 W/m 1,8 C 2,7 C 9,7 km/h (2 Bft)
20.02.2023 08:24 2,7 C 2,2 C 94 % 1027,8 hPa 0,0 l/m 8,0 km/h (2 Bft) SW 225 0 min 0,0 UV-I 16 W/m 1,8 C 1,2 C 11,3 km/h (2 Bft)
20.02.2023 08:25 2,7 C 2,2 C 94 % 1027,8 hPa 0,0 l/m 4,8 km/h (1 Bft) SW 225 0 min 0,0 UV-I 18 W/m 1,8 C 2,7 C 14,5 km/h (3 Bft)
20.02.2023 08:26 2,6 C 2,2 C 94 % 1027,8 hPa 0,0 l/m 12,9 km/h (3 Bft) S-SW 202 0 min 0,0 UV-I 18 W/m 1,7 C -2,6 C 16,1 km/h (3 Bft)
20.02.2023 08:27 2,7 C 2,2 C 94 % 1027,8 hPa 0,0 l/m 12,9 km/h (3 Bft) SW 225 0 min 0,0 UV-I 26 W/m 1,8 C -2,5 C 20,9 km/h (4 Bft)
20.02.2023 08:28 2,7 C 2,2 C 94 % 1027,8 hPa 0,0 l/m 16,1 km/h (3 Bft) S-SW 202 0 min 0,0 UV-I 23 W/m 1,8 C -4,3 C 22,5 km/h (4 Bft)
20.02.2023 08:29 2,7 C 2,2 C 94 % 1027,8 hPa 0,0 l/m 14,5 km/h (3 Bft) S-SW 202 0 min 0,0 UV-I 32 W/m 1,8 C -3,4 C 19,3 km/h (3 Bft)
20.02.2023 08:30 2,7 C 2,2 C 94 % 1027,8 hPa 0,0 l/m 11,3 km/h (2 Bft) SW 225 0 min 0,0 UV-I 37 W/m 1,8 C -1,4 C 20,9 km/h (4 Bft)
20.02.2023 08:31 2,6 C 2,2 C 94 % 1027,8 hPa 0,0 l/m 12,9 km/h (3 Bft) SW 225 0 min 0,0 UV-I 40 W/m 1,7 C -2,6 C 16,1 km/h (3 Bft)
20.02.2023 08:32 2,6 C 2,8 C 94 % 1027,7 hPa 0,0 l/m 14,5 km/h (3 Bft) S-SW 202 0 min 0,0 UV-I 44 W/m 1,7 C -3,5 C 19,3 km/h (3 Bft)
20.02.2023 08:33 2,6 C 2,8 C 94 % 1027,6 hPa 0,0 l/m 11,3 km/h (2 Bft) S-SW 202 0 min 0,0 UV-I 51 W/m 1,7 C -1,5 C 17,7 km/h (3 Bft)
20.02.2023 08:34 2,6 C 2,8 C 94 % 1027,8 hPa 0,0 l/m 11,3 km/h (2 Bft) SW 225 0 min 0,0 UV-I 49 W/m 1,7 C -1,5 C 19,3 km/h (3 Bft)
20.02.2023 08:35 2,7 C 2,8 C 94 % 1027,7 hPa 0,0 l/m 11,3 km/h (2 Bft) S-SW 202 0 min 0,0 UV-I 63 W/m 1,8 C -1,4 C 16,1 km/h (3 Bft)
20.02.2023 08:36 2,6 C 2,8 C 94 % 1027,6 hPa 0,0 l/m 12,9 km/h (3 Bft) S-SW 202 0 min 0,0 UV-I 51 W/m 1,7 C -2,6 C 20,9 km/h (4 Bft)
20.02.2023 08:37 2,7 C 2,8 C 94 % 1027,7 hPa 0,0 l/m 11,3 km/h (2 Bft) S-SW 202 0 min 0,0 UV-I 56 W/m 1,8 C -1,4 C 19,3 km/h (3 Bft)
20.02.2023 08:38 2,7 C 2,8 C 94 % 1027,7 hPa 0,0 l/m 14,5 km/h (3 Bft) SW 225 0 min 0,0 UV-I 53 W/m 1,8 C -3,4 C 24,1 km/h (4 Bft)
20.02.2023 08:39 2,7 C 2,8 C 94 % 1027,6 hPa 0,0 l/m 11,3 km/h (2 Bft) S-SW 202 0 min 0,0 UV-I 67 W/m 1,8 C -1,4 C 19,3 km/h (3 Bft)
20.02.2023 08:40 2,7 C 2,8 C 94 % 1027,6 hPa 0,0 l/m 16,1 km/h (3 Bft) S-SW 202 0 min 0,0 UV-I 72 W/m 1,8 C -4,3 C 19,3 km/h (3 Bft)
20.02.2023 08:41 2,7 C 2,8 C 94 % 1027,6 hPa 0,0 l/m 11,3 km/h (2 Bft) SW 225 0 min 0,0 UV-I 76 W/m 1,8 C -1,4 C 16,1 km/h (3 Bft)
20.02.2023 08:42 2,7 C 2,8 C 94 % 1027,7 hPa 0,0 l/m 16,1 km/h (3 Bft) SW 225 0 min 0,0 UV-I 54 W/m 1,8 C -4,3 C 24,1 km/h (4 Bft)
20.02.2023 08:43 2,7 C 2,8 C 94 % 1027,6 hPa 0,0 l/m 19,3 km/h (3 Bft) S-SW 202 0 min 0,0 UV-I 69 W/m 1,8 C -5,8 C 24,1 km/h (4 Bft)
20.02.2023 08:44 2,7 C 2,8 C 94 % 1027,6 hPa 0,0 l/m 12,9 km/h (3 Bft) SW 225 0 min 0,0 UV-I 76 W/m 1,8 C -2,5 C 19,3 km/h (3 Bft)
20.02.2023 08:45 2,7 C 2,8 C 94 % 1027,6 hPa 0,0 l/m 8,0 km/h (2 Bft) S-SW 202 0 min 0,0 UV-I 69 W/m 1,8 C 1,2 C 14,5 km/h (3 Bft)
20.02.2023 08:46 2,7 C 2,8 C 94 % 1027,6 hPa 0,0 l/m 8,0 km/h (2 Bft) SW 225 0 min 0,0 UV-I 74 W/m 1,8 C 1,2 C 12,9 km/h (3 Bft)
20.02.2023 08:47 2,7 C 2,8 C 94 % 1027,6 hPa 0,0 l/m 8,0 km/h (2 Bft) S-SW 202 0 min 0,0 UV-I 72 W/m 1,8 C 1,2 C 12,9 km/h (3 Bft)
20.02.2023 08:48 2,8 C 2,8 C 94 % 1027,6 hPa 0,0 l/m 14,5 km/h (3 Bft) S-SW 202 0 min 0,0 UV-I 72 W/m 1,9 C -3,3 C 19,3 km/h (3 Bft)
20.02.2023 08:49 2,8 C 2,8 C 94 % 1027,6 hPa 0,0 l/m 12,9 km/h (3 Bft) S-SW 202 0 min 0,0 UV-I 88 W/m 1,9 C -2,4 C 16,1 km/h (3 Bft)
20.02.2023 08:50 2,8 C 2,8 C 94 % 1027,6 hPa 0,0 l/m 12,9 km/h (3 Bft) S-SW 202 0 min 0,0 UV-I 84 W/m 1,9 C -2,4 C 16,1 km/h (3 Bft)
20.02.2023 08:51 2,8 C 2,8 C 94 % 1027,6 hPa 0,0 l/m 14,5 km/h (3 Bft) S-SW 202 0 min 0,0 UV-I 102 W/m 1,9 C -3,3 C 17,7 km/h (3 Bft)
20.02.2023 08:52 2,8 C 2,8 C 94 % 1027,5 hPa 0,0 l/m 11,3 km/h (2 Bft) S-SW 202 0 min 0,0 UV-I 74 W/m 1,9 C -1,3 C 16,1 km/h (3 Bft)
20.02.2023 08:53 2,8 C 2,8 C 94 % 1027,6 hPa 0,0 l/m 12,9 km/h (3 Bft) S-SW 202 0 min 0,0 UV-I 83 W/m 1,9 C -2,4 C 17,7 km/h (3 Bft)
20.02.2023 08:54 2,8 C 2,8 C 94 % 1027,6 hPa 0,0 l/m 14,5 km/h (3 Bft) S-SW 202 0 min 0,0 UV-I 77 W/m 1,9 C -3,3 C 20,9 km/h (4 Bft)
20.02.2023 08:55 2,8 C 2,8 C 94 % 1027,5 hPa 0,0 l/m 9,7 km/h (2 Bft) SW 225 0 min 0,0 UV-I 97 W/m 1,9 C -0,1 C 16,1 km/h (3 Bft)
20.02.2023 08:56 2,8 C 2,8 C 94 % 1027,6 hPa 0,0 l/m 19,3 km/h (3 Bft) S-SW 202 0 min 0,0 UV-I 81 W/m 1,9 C -5,7 C 24,1 km/h (4 Bft)
20.02.2023 08:57 2,8 C 2,8 C 94 % 1027,5 hPa 0,0 l/m 19,3 km/h (3 Bft) S-SW 202 0 min 0,0 UV-I 79 W/m 1,9 C -5,7 C 25,7 km/h (4 Bft)
20.02.2023 08:58 2,8 C 2,8 C 94 % 1027,5 hPa 0,0 l/m 17,7 km/h (3 Bft) S-SW 202 0 min 0,0 UV-I 86 W/m 1,9 C -5,0 C 22,5 km/h (4 Bft)
20.02.2023 08:59 2,8 C 2,8 C 94 % 1027,5 hPa 0,0 l/m 16,1 km/h (3 Bft) S-SW 202 0 min 0,0 UV-I 54 W/m 1,9 C -4,2 C 19,3 km/h (3 Bft)
20.02.2023 09:00 2,8 C 2,8 C 94 % 1027,6 hPa 0,0 l/m 14,5 km/h (3 Bft) S-SW 202 0 min 0,0 UV-I 91 W/m 1,9 C -3,3 C 19,3 km/h (3 Bft)
20.02.2023 09:01 2,8 C 2,8 C 94 % 1027,4 hPa 0,0 l/m 16,1 km/h (3 Bft) S-SW 202 0 min 0,0 UV-I 77 W/m 1,9 C -4,2 C 19,3 km/h (3 Bft)
20.02.2023 09:02 2,8 C 2,8 C 94 % 1027,5 hPa 0,0 l/m 17,7 km/h (3 Bft) S-SW 202 0 min 0,0 UV-I 93 W/m 1,9 C -5,0 C 20,9 km/h (4 Bft)
20.02.2023 09:03 2,7 C 2,8 C 94 % 1027,5 hPa 0,0 l/m 16,1 km/h (3 Bft) S-SW 202 0 min 0,0 UV-I 90 W/m 1,8 C -4,3 C 17,7 km/h (3 Bft)
20.02.2023 09:04 2,8 C 2,8 C 94 % 1027,5 hPa 0,0 l/m 12,9 km/h (3 Bft) S-SW 202 0 min 0,0 UV-I 80 W/m 1,9 C -2,4 C 25,7 km/h (4 Bft)
20.02.2023 09:05 2,8 C 2,8 C 94 % 1027,5 hPa 0,0 l/m 19,3 km/h (3 Bft) S-SW 202 0 min 0,0 UV-I 111 W/m 1,9 C -5,7 C 25,7 km/h (4 Bft)
20.02.2023 09:06 2,8 C 2,8 C 94 % 1027,5 hPa 0,0 l/m 17,7 km/h (3 Bft) S-SW 202 0 min 0,0 UV-I 104 W/m 1,9 C -5,0 C 22,5 km/h (4 Bft)
20.02.2023 09:07 2,8 C 3,3 C 94 % 1027,5 hPa 0,0 l/m 12,9 km/h (3 Bft) S 180 0 min 0,0 UV-I 105 W/m 1,9 C -2,4 C 19,3 km/h (3 Bft)
20.02.2023 09:08 2,8 C 3,3 C 94 % 1027,5 hPa 0,0 l/m 11,3 km/h (2 Bft) S 180 0 min 0,0 UV-I 65 W/m 1,9 C -1,3 C 19,3 km/h (3 Bft)
20.02.2023 09:09 2,8 C 3,3 C 94 % 1027,6 hPa 0,0 l/m 11,3 km/h (2 Bft) S-SW 202 0 min 0,0 UV-I 81 W/m 1,9 C -1,3 C 16,1 km/h (3 Bft)
20.02.2023 09:10 2,8 C 3,3 C 94 % 1027,6 hPa 0,0 l/m 16,1 km/h (3 Bft) S-SW 202 0 min 0,0 UV-I 95 W/m 1,9 C -4,2 C 25,7 km/h (4 Bft)
20.02.2023 09:11 2,8 C 3,3 C 94 % 1027,5 hPa 0,0 l/m 16,1 km/h (3 Bft) S-SW 202 0 min 0,0 UV-I 93 W/m 1,9 C -4,2 C 20,9 km/h (4 Bft)
20.02.2023 09:12 2,8 C 3,3 C 94 % 1027,5 hPa 0,0 l/m 17,7 km/h (3 Bft) S-SW 202 0 min 0,0 UV-I 100 W/m 1,9 C -5,0 C 27,4 km/h (4 Bft)
20.02.2023 09:13 2,8 C 3,3 C 94 % 1027,5 hPa 0,0 l/m 12,9 km/h (3 Bft) S 180 0 min 0,0 UV-I 91 W/m 1,9 C -2,4 C 19,3 km/h (3 Bft)
20.02.2023 09:14 2,8 C 3,3 C 94 % 1027,5 hPa 0,0 l/m 17,7 km/h (3 Bft) SW 225 0 min 0,0 UV-I 93 W/m 1,9 C -5,0 C 24,1 km/h (4 Bft)
20.02.2023 09:15 2,8 C 3,3 C 94 % 1027,5 hPa 0,0 l/m 12,9 km/h (3 Bft) S-SW 202 0 min 0,0 UV-I 97 W/m 1,9 C -2,4 C 17,7 km/h (3 Bft)
20.02.2023 09:16 2,8 C 3,3 C 94 % 1027,6 hPa 0,0 l/m 14,5 km/h (3 Bft) S-SW 202 0 min 0,0 UV-I 77 W/m 1,9 C -3,3 C 20,9 km/h (4 Bft)
20.02.2023 09:17 2,9 C 3,3 C 94 % 1027,5 hPa 0,0 l/m 16,1 km/h (3 Bft) S 180 0 min 0,5 UV-I 127 W/m 2,0 C -4,1 C 22,5 km/h (4 Bft)
20.02.2023 09:18 2,9 C 3,3 C 94 % 1027,4 hPa 0,0 l/m 12,9 km/h (3 Bft) S 180 0 min 0,0 UV-I 127 W/m 2,0 C -2,2 C 17,7 km/h (3 Bft)
20.02.2023 09:19 2,9 C 3,3 C 94 % 1027,5 hPa 0,0 l/m 12,9 km/h (3 Bft) S-SW 202 0 min 0,0 UV-I 84 W/m 2,0 C -2,2 C 16,1 km/h (3 Bft)
20.02.2023 09:20 2,9 C 3,3 C 94 % 1027,3 hPa 0,0 l/m 14,5 km/h (3 Bft) S-SW 202 0 min 0,0 UV-I 104 W/m 2,0 C -3,2 C 17,7 km/h (3 Bft)
20.02.2023 09:21 2,9 C 3,3 C 94 % 1027,5 hPa 0,0 l/m 12,9 km/h (3 Bft) S-SW 202 0 min 0,0 UV-I 106 W/m 2,0 C -2,2 C 22,5 km/h (4 Bft)
20.02.2023 09:22 3,0 C 3,9 C 94 % 1027,5 hPa 0,0 l/m 14,5 km/h (3 Bft) S-SW 202 0 min 0,5 UV-I 160 W/m 2,1 C -3,1 C 19,3 km/h (3 Bft)
20.02.2023 09:23 3,0 C 3,9 C 94 % 1027,5 hPa 0,0 l/m 16,1 km/h (3 Bft) S-SW 202 0 min 0,5 UV-I 116 W/m 2,1 C -3,9 C 22,5 km/h (4 Bft)
20.02.2023 09:24 3,1 C 3,9 C 94 % 1027,5 hPa 0,0 l/m 14,5 km/h (3 Bft) S-SW 202 0 min 0,0 UV-I 98 W/m 2,2 C -2,9 C 19,3 km/h (3 Bft)
20.02.2023 09:25 3,1 C 3,3 C 94 % 1027,5 hPa 0,0 l/m 12,9 km/h (3 Bft) S-SW 202 0 min 0,5 UV-I 134 W/m 2,2 C -2,0 C 19,3 km/h (3 Bft)
20.02.2023 09:26 3,1 C 3,9 C 94 % 1027,6 hPa 0,0 l/m 14,5 km/h (3 Bft) S-SW 202 0 min 0,5 UV-I 111 W/m 2,2 C -2,9 C 17,7 km/h (3 Bft)
20.02.2023 09:27 3,1 C 3,9 C 94 % 1027,5 hPa 0,0 l/m 9,7 km/h (2 Bft) S-SO 157 0 min 0,5 UV-I 118 W/m 2,2 C 0,2 C 14,5 km/h (3 Bft)
20.02.2023 09:28 3,2 C 3,9 C 94 % 1027,6 hPa 0,0 l/m 11,3 km/h (2 Bft) S-SW 202 0 min 0,5 UV-I 116 W/m 2,3 C -0,8 C 16,1 km/h (3 Bft)
20.02.2023 09:29 3,2 C 3,9 C 94 % 1027,6 hPa 0,0 l/m 12,9 km/h (3 Bft) S-SW 202 0 min 0,5 UV-I 111 W/m 2,3 C -1,9 C 19,3 km/h (3 Bft)
20.02.2023 09:30 3,2 C 3,9 C 94 % 1027,6 hPa 0,0 l/m 11,3 km/h (2 Bft) S 180 0 min 0,5 UV-I 107 W/m 2,3 C -0,8 C 17,7 km/h (3 Bft)
20.02.2023 09:31 3,2 C 3,9 C 94 % 1027,6 hPa 0,0 l/m 16,1 km/h (3 Bft) S 180 0 min 0,5 UV-I 107 W/m 2,3 C -3,7 C 22,5 km/h (4 Bft)
20.02.2023 09:32 3,2 C 3,9 C 94 % 1027,5 hPa 0,0 l/m 12,9 km/h (3 Bft) S 180 0 min 0,5 UV-I 128 W/m 2,3 C -1,9 C 17,7 km/h (3 Bft)
20.02.2023 09:33 3,2 C 3,9 C 94 % 1027,6 hPa 0,0 l/m 14,5 km/h (3 Bft) S 180 0 min 0,6 UV-I 132 W/m 2,3 C -2,8 C 19,3 km/h (3 Bft)
20.02.2023 09:34 3,2 C 3,9 C 94 % 1027,7 hPa 0,0 l/m 19,3 km/h (3 Bft) S 180 0 min 0,6 UV-I 104 W/m 2,3 C -5,2 C 29,0 km/h (5 Bft)
20.02.2023 09:35 3,2 C 3,9 C 94 % 1027,6 hPa 0,0 l/m 14,5 km/h (3 Bft) S-SW 202 0 min 0,6 UV-I 127 W/m 2,3 C -2,8 C 25,7 km/h (4 Bft)
20.02.2023 09:36 3,2 C 3,9 C 94 % 1027,6 hPa 0,0 l/m 12,9 km/h (3 Bft) S-SW 202 0 min 0,6 UV-I 127 W/m 2,3 C -1,9 C 17,7 km/h (3 Bft)
20.02.2023 09:37 3,3 C 3,9 C 94 % 1027,5 hPa 0,0 l/m 12,9 km/h (3 Bft) S-SW 202 0 min 0,6 UV-I 139 W/m 2,4 C -1,8 C 19,3 km/h (3 Bft)
20.02.2023 09:38 3,3 C 4,4 C 94 % 1027,6 hPa 0,0 l/m 14,5 km/h (3 Bft) S-SW 202 0 min 0,6 UV-I 169 W/m 2,4 C -2,7 C 19,3 km/h (3 Bft)
20.02.2023 09:39 3,3 C 4,4 C 94 % 1027,7 hPa 0,0 l/m 16,1 km/h (3 Bft) S-SW 202 0 min 0,6 UV-I 125 W/m 2,4 C -3,6 C 24,1 km/h (4 Bft)
20.02.2023 09:40 3,4 C 4,4 C 94 % 1027,6 hPa 0,0 l/m 9,7 km/h (2 Bft) S-SW 202 0 min 0,7 UV-I 179 W/m 2,5 C 0,5 C 16,1 km/h (3 Bft)
20.02.2023 09:41 3,4 C 4,4 C 94 % 1027,8 hPa 0,0 l/m 12,9 km/h (3 Bft) S-SW 202 0 min 0,7 UV-I 149 W/m 2,5 C -1,7 C 19,3 km/h (3 Bft)
20.02.2023 09:42 3,4 C 5,0 C 94 % 1027,7 hPa 0,0 l/m 16,1 km/h (3 Bft) S-SW 202 0 min 0,8 UV-I 149 W/m 2,5 C -3,4 C 22,5 km/h (4 Bft)
20.02.2023 09:43 3,5 C 5,0 C 94 % 1027,6 hPa 0,0 l/m 14,5 km/h (3 Bft) S-SW 202 1 min 0,9 UV-I 322 W/m 2,6 C -2,5 C 19,3 km/h (3 Bft)
20.02.2023 09:44 3,6 C 5,0 C 94 % 1027,6 hPa 0,0 l/m 22,5 km/h (4 Bft) S-SW 202 1 min 0,8 UV-I 255 W/m 2,7 C -6,0 C 27,4 km/h (4 Bft)
20.02.2023 09:48 3,7 C 5,6 C 94 % 1027,6 hPa 0,0 l/m 14,1 km/h (3 Bft) SW 224 0 min 0,7 UV-I 144 W/m 2,8 C -2,0 C 19,3 km/h (3 Bft)
20.02.2023 09:51 3,8 C 5,0 C 94 % 1027,6 hPa 0,0 l/m 14,5 km/h (3 Bft) SW 221 0 min 0,7 UV-I 160 W/m 2,9 C -2,1 C 24,1 km/h (4 Bft)
20.02.2023 09:54 3,8 C 5,6 C 94 % 1027,6 hPa 0,0 l/m 14,8 km/h (3 Bft) S-SW 200 0 min 0,8 UV-I 152 W/m 2,9 C -2,3 C 24,1 km/h (4 Bft)
20.02.2023 09:57 3,9 C 6,7 C 93 % 1027,6 hPa 0,0 l/m 14,4 km/h (3 Bft) SW 229 0 min 0,9 UV-I 225 W/m 2,9 C -1,9 C 25,7 km/h (4 Bft)
20.02.2023 10:00 4,2 C 7,2 C 93 % 1027,5 hPa 0,0 l/m 15,4 km/h (3 Bft) S 189 3 min 1,0 UV-I 304 W/m 3,2 C -2,1 C 24,1 km/h (4 Bft)
20.02.2023 10:03 4,3 C 7,2 C 93 % 1027,6 hPa 0,0 l/m 15,1 km/h (3 Bft) S-SO 153 3 min 1,1 UV-I 315 W/m 3,3 C -1,8 C 27,4 km/h (4 Bft)
20.02.2023 10:06 4,4 C 7,8 C 93 % 1027,6 hPa 0,0 l/m 16,0 km/h (3 Bft) SW 223 3 min 1,1 UV-I 321 W/m 3,4 C -2,2 C 30,6 km/h (5 Bft)
20.02.2023 10:09 4,5 C 8,3 C 92 % 1027,9 hPa 0,0 l/m 16,5 km/h (3 Bft) W-SW 241 3 min 1,1 UV-I 320 W/m 3,3 C -2,3 C 24,1 km/h (4 Bft)
20.02.2023 10:12 4,6 C 7,8 C 92 % 1027,8 hPa 0,0 l/m 17,0 km/h (3 Bft) SW 225 3 min 1,2 UV-I 333 W/m 3,4 C -2,4 C 27,4 km/h (4 Bft)
20.02.2023 10:15 4,8 C 8,3 C 92 % 1027,8 hPa 0,0 l/m 14,7 km/h (3 Bft) W-SW 251 3 min 1,2 UV-I 336 W/m 3,6 C -1,0 C 22,5 km/h (4 Bft)
20.02.2023 10:18 4,8 C 8,3 C 91 % 1027,8 hPa 0,0 l/m 15,6 km/h (3 Bft) S-SW 198 3 min 1,2 UV-I 342 W/m 3,5 C -1,5 C 27,4 km/h (4 Bft)
20.02.2023 10:21 4,9 C 8,9 C 91 % 1027,8 hPa 0,0 l/m 14,5 km/h (3 Bft) SW 217 3 min 1,3 UV-I 333 W/m 3,6 C -0,8 C 22,5 km/h (4 Bft)
20.02.2023 10:24 4,9 C 8,3 C 90 % 1027,7 hPa 0,0 l/m 16,3 km/h (3 Bft) S-SW 204 3 min 1,2 UV-I 286 W/m 3,4 C -1,7 C 33,8 km/h (5 Bft)
20.02.2023 10:27 4,8 C 7,8 C 90 % 1027,7 hPa 0,0 l/m 17,4 km/h (3 Bft) W-SW 240 3 min 1,2 UV-I 296 W/m 3,3 C -2,3 C 29,0 km/h (5 Bft)
20.02.2023 10:30 4,8 C 6,7 C 89 % 1027,8 hPa 0,0 l/m 13,8 km/h (3 Bft) SW 233 0 min 1,1 UV-I 238 W/m 3,1 C -0,5 C 24,1 km/h (4 Bft)
20.02.2023 10:33 4,9 C 8,3 C 89 % 1027,8 hPa 0,0 l/m 14,2 km/h (3 Bft) S 185 3 min 1,3 UV-I 308 W/m 3,2 C -0,6 C 22,5 km/h (4 Bft)
20.02.2023 10:36 5,1 C 8,9 C 89 % 1027,7 hPa 0,0 l/m 12,9 km/h (3 Bft) S 178 3 min 1,3 UV-I 335 W/m 3,4 C 0,3 C 19,3 km/h (3 Bft)
20.02.2023 10:39 5,1 C 8,9 C 88 % 1027,9 hPa 0,0 l/m 16,4 km/h (3 Bft) SW 219 3 min 1,4 UV-I 359 W/m 3,3 C -1,5 C 24,1 km/h (4 Bft)
20.02.2023 10:42 5,2 C 9,4 C 88 % 1027,8 hPa 0,0 l/m 15,1 km/h (3 Bft) S 180 3 min 1,4 UV-I 353 W/m 3,4 C -0,7 C 20,9 km/h (4 Bft)
20.02.2023 10:45 5,3 C 10,0 C 88 % 1027,7 hPa 0,0 l/m 13,4 km/h (3 Bft) S-SW 199 3 min 1,5 UV-I 366 W/m 3,5 C 0,3 C 20,9 km/h (4 Bft)
20.02.2023 10:48 5,4 C 9,4 C 88 % 1027,9 hPa 0,0 l/m 17,1 km/h (3 Bft) S-SO 165 3 min 1,5 UV-I 374 W/m 3,6 C -1,4 C 24,1 km/h (4 Bft)
20.02.2023 10:51 5,4 C 9,4 C 87 % 1027,6 hPa 0,0 l/m 16,1 km/h (3 Bft) S 190 3 min 1,5 UV-I 375 W/m 3,4 C -1,0 C 25,7 km/h (4 Bft)
20.02.2023 10:54 5,6 C 10,0 C 87 % 1027,7 hPa 0,0 l/m 14,8 km/h (3 Bft) S-SW 209 3 min 1,6 UV-I 377 W/m 3,6 C -0,1 C 25,7 km/h (4 Bft)
20.02.2023 10:57 5,8 C 10,0 C 87 % 1027,7 hPa 0,0 l/m 15,3 km/h (3 Bft) S 188 3 min 1,6 UV-I 384 W/m 3,8 C -0,1 C 25,7 km/h (4 Bft)
20.02.2023 11:00 5,8 C 10,6 C 86 % 1027,7 hPa 0,0 l/m 15,9 km/h (3 Bft) S-SW 193 3 min 1,6 UV-I 397 W/m 3,6 C -0,4 C 25,7 km/h (4 Bft)
20.02.2023 11:03 6,0 C 11,1 C 86 % 1027,7 hPa 0,0 l/m 16,0 km/h (3 Bft) SW 214 3 min 1,7 UV-I 401 W/m 3,8 C -0,2 C 24,1 km/h (4 Bft)
20.02.2023 11:06 6,2 C 11,1 C 86 % 1027,7 hPa 0,0 l/m 15,3 km/h (3 Bft) S 189 3 min 1,7 UV-I 409 W/m 4,0 C 0,4 C 22,5 km/h (4 Bft)
20.02.2023 11:09 6,3 C 11,1 C 85 % 1027,8 hPa 0,0 l/m 15,6 km/h (3 Bft) S-SW 213 3 min 1,7 UV-I 378 W/m 4,0 C 0,4 C 24,1 km/h (4 Bft)
20.02.2023 11:12 6,3 C 11,1 C 85 % 1027,8 hPa 0,0 l/m 15,5 km/h (3 Bft) S 184 3 min 1,7 UV-I 400 W/m 4,0 C 0,4 C 25,7 km/h (4 Bft)
20.02.2023 11:15 6,5 C 12,2 C 85 % 1027,8 hPa 0,0 l/m 11,6 km/h (2 Bft) SW 215 3 min 1,8 UV-I 412 W/m 4,2 C 2,7 C 19,3 km/h (3 Bft)
20.02.2023 11:18 6,7 C 12,8 C 85 % 1027,7 hPa 0,0 l/m 10,5 km/h (2 Bft) S 177 3 min 1,8 UV-I 419 W/m 4,4 C 3,6 C 19,3 km/h (3 Bft)
20.02.2023 11:21 6,8 C 12,2 C 84 % 1027,7 hPa 0,0 l/m 14,2 km/h (3 Bft) S 178 3 min 1,8 UV-I 420 W/m 4,3 C 1,6 C 24,1 km/h (4 Bft)
20.02.2023 11:24 6,8 C 12,2 C 84 % 1027,7 hPa 0,0 l/m 14,4 km/h (3 Bft) SW 228 3 min 1,8 UV-I 427 W/m 4,3 C 1,5 C 22,5 km/h (4 Bft)
20.02.2023 11:27 7,0 C 12,8 C 84 % 1027,6 hPa 0,0 l/m 13,5 km/h (3 Bft) SW 225 3 min 1,9 UV-I 432 W/m 4,5 C 2,2 C 24,1 km/h (4 Bft)
20.02.2023 11:30 7,2 C 12,2 C 84 % 1027,7 hPa 0,0 l/m 12,2 km/h (2 Bft) SW 220 3 min 1,9 UV-I 435 W/m 4,7 C 3,2 C 19,3 km/h (3 Bft)
20.02.2023 11:33 7,2 C 12,2 C 81 % 1027,7 hPa 0,0 l/m 14,1 km/h (3 Bft) S 174 3 min 1,9 UV-I 437 W/m 4,2 C 2,2 C 24,1 km/h (4 Bft)
20.02.2023 11:36 7,3 C 12,8 C 82 % 1027,6 hPa 0,0 l/m 12,3 km/h (3 Bft) S-SW 196 3 min 1,9 UV-I 439 W/m 4,4 C 3,2 C 22,5 km/h (4 Bft)
20.02.2023 11:39 7,3 C 12,8 C 81 % 1027,6 hPa 0,0 l/m 13,7 km/h (3 Bft) S-SW 200 3 min 1,9 UV-I 439 W/m 4,3 C 2,5 C 27,4 km/h (4 Bft)
20.02.2023 11:42 7,6 C 13,3 C 82 % 1027,6 hPa 0,0 l/m 13,8 km/h (3 Bft) S 188 3 min 2,0 UV-I 446 W/m 4,7 C 2,8 C 22,5 km/h (4 Bft)
20.02.2023 11:45 7,4 C 12,8 C 81 % 1027,6 hPa 0,0 l/m 18,6 km/h (3 Bft) S 169 3 min 2,0 UV-I 456 W/m 4,4 C 0,5 C 35,4 km/h (5 Bft)
20.02.2023 11:48 7,2 C 12,2 C 80 % 1027,6 hPa 0,0 l/m 19,3 km/h (3 Bft) S-SW 208 3 min 2,0 UV-I 458 W/m 4,0 C -0,1 C 29,0 km/h (5 Bft)
20.02.2023 11:51 7,2 C 12,2 C 80 % 1027,5 hPa 0,0 l/m 21,3 km/h (4 Bft) S-SW 209 3 min 2,0 UV-I 458 W/m 4,0 C -0,8 C 30,6 km/h (5 Bft)
20.02.2023 11:54 7,3 C 12,2 C 80 % 1027,6 hPa 0,0 l/m 19,0 km/h (3 Bft) S-SW 194 3 min 2,1 UV-I 463 W/m 4,1 C 0,2 C 32,2 km/h (5 Bft)
20.02.2023 11:57 7,4 C 12,8 C 81 % 1027,7 hPa 0,0 l/m 15,8 km/h (3 Bft) S 188 3 min 2,1 UV-I 467 W/m 4,4 C 1,6 C 27,4 km/h (4 Bft)
20.02.2023 12:00 7,6 C 12,8 C 80 % 1027,4 hPa 0,0 l/m 19,4 km/h (3 Bft) S 188 3 min 2,1 UV-I 466 W/m 4,4 C 0,4 C 29,0 km/h (5 Bft)
20.02.2023 12:03 7,7 C 13,3 C 80 % 1027,5 hPa 0,0 l/m 15,7 km/h (3 Bft) S 185 3 min 2,1 UV-I 466 W/m 4,5 C 2,0 C 24,1 km/h (4 Bft)
20.02.2023 12:06 7,7 C 12,8 C 78 % 1027,7 hPa 0,0 l/m 17,0 km/h (3 Bft) S-SW 197 3 min 2,1 UV-I 468 W/m 4,1 C 1,5 C 27,4 km/h (4 Bft)
20.02.2023 12:09 7,8 C 13,3 C 78 % 1027,4 hPa 0,0 l/m 17,5 km/h (3 Bft) SW 215 3 min 2,1 UV-I 470 W/m 4,2 C 1,4 C 25,7 km/h (4 Bft)
20.02.2023 12:12 8,1 C 13,9 C 79 % 1027,3 hPa 0,0 l/m 14,7 km/h (3 Bft) S-SW 206 3 min 2,1 UV-I 473 W/m 4,7 C 3,0 C 22,5 km/h (4 Bft)
20.02.2023 12:13 8,1 C 13,9 C 78 % 1027,3 hPa 0,0 l/m 14,5 km/h (3 Bft) S-SW 202 1 min 2,2 UV-I 475 W/m 4,5 C 3,1 C 19,3 km/h (3 Bft)
20.02.2023 12:14 8,2 C 13,9 C 77 % 1027,3 hPa 0,0 l/m 16,1 km/h (3 Bft) S-SW 202 1 min 2,2 UV-I 475 W/m 4,4 C 2,5 C 24,1 km/h (4 Bft)
20.02.2023 12:18 8,1 C 13,3 C 77 % 1027,2 hPa 0,0 l/m 18,0 km/h (3 Bft) S 190 4 min 2,2 UV-I 475 W/m 4,3 C 1,6 C 25,7 km/h (4 Bft)
20.02.2023 12:21 8,2 C 13,9 C 78 % 1027,1 hPa 0,0 l/m 14,7 km/h (3 Bft) S-SW 203 3 min 2,2 UV-I 474 W/m 4,6 C 3,1 C 24,1 km/h (4 Bft)
20.02.2023 12:24 8,3 C 13,3 C 77 % 1027,2 hPa 0,0 l/m 18,7 km/h (3 Bft) S-SW 213 3 min 2,2 UV-I 472 W/m 4,5 C 1,6 C 27,4 km/h (4 Bft)
20.02.2023 12:27 8,5 C 14,4 C 77 % 1027,0 hPa 0,0 l/m 13,7 km/h (3 Bft) SW 236 3 min 2,2 UV-I 471 W/m 4,7 C 3,9 C 20,9 km/h (4 Bft)
20.02.2023 12:30 8,6 C 13,9 C 77 % 1027,1 hPa 0,0 l/m 13,8 km/h (3 Bft) S-SW 204 3 min 2,2 UV-I 474 W/m 4,8 C 4,0 C 22,5 km/h (4 Bft)
20.02.2023 12:33 8,7 C 13,9 C 76 % 1027,1 hPa 0,0 l/m 15,9 km/h (3 Bft) S-SW 202 3 min 2,2 UV-I 475 W/m 4,7 C 3,2 C 24,1 km/h (4 Bft)
20.02.2023 12:36 8,7 C 14,4 C 75 % 1027,1 hPa 0,0 l/m 15,5 km/h (3 Bft) S-SW 195 3 min 2,2 UV-I 474 W/m 4,5 C 3,3 C 24,1 km/h (4 Bft)
20.02.2023 12:39 8,8 C 13,9 C 75 % 1027,2 hPa 0,0 l/m 17,7 km/h (3 Bft) S 190 3 min 2,2 UV-I 470 W/m 4,6 C 2,6 C 27,4 km/h (4 Bft)
20.02.2023 12:42 8,6 C 13,9 C 74 % 1027,1 hPa 0,0 l/m 17,9 km/h (3 Bft) S 180 3 min 2,2 UV-I 468 W/m 4,2 C 2,2 C 30,6 km/h (5 Bft)
20.02.2023 12:45 8,7 C 13,9 C 76 % 1027,1 hPa 0,0 l/m 16,7 km/h (3 Bft) S-SW 192 3 min 2,2 UV-I 471 W/m 4,7 C 2,8 C 27,4 km/h (4 Bft)
20.02.2023 12:48 8,9 C 14,4 C 76 % 1027,1 hPa 0,0 l/m 15,9 km/h (3 Bft) S-SW 197 3 min 2,2 UV-I 471 W/m 4,9 C 3,4 C 27,4 km/h (4 Bft)
20.02.2023 12:51 9,1 C 15,0 C 75 % 1027,0 hPa 0,0 l/m 14,0 km/h (3 Bft) S-SW 195 3 min 2,2 UV-I 473 W/m 4,9 C 4,5 C 22,5 km/h (4 Bft)
20.02.2023 12:54 9,2 C 15,0 C 75 % 1027,1 hPa 0,0 l/m 14,6 km/h (3 Bft) S-SW 208 3 min 2,2 UV-I 472 W/m 5,0 C 4,3 C 29,0 km/h (5 Bft)
20.02.2023 12:57 9,2 C 15,0 C 74 % 1026,7 hPa 0,0 l/m 13,9 km/h (3 Bft) S-SW 192 3 min 2,2 UV-I 471 W/m 4,8 C 4,7 C 20,9 km/h (4 Bft)
20.02.2023 13:00 9,1 C 14,4 C 74 % 1026,9 hPa 0,0 l/m 17,5 km/h (3 Bft) S-SW 198 3 min 2,2 UV-I 460 W/m 4,7 C 3,0 C 25,7 km/h (4 Bft)
20.02.2023 13:03 9,0 C 13,9 C 74 % 1026,9 hPa 0,0 l/m 19,0 km/h (3 Bft) S-SW 207 3 min 2,2 UV-I 467 W/m 4,6 C 2,3 C 27,4 km/h (4 Bft)
20.02.2023 13:06 9,1 C 14,4 C 74 % 1026,8 hPa 0,0 l/m 16,3 km/h (3 Bft) S-SW 193 3 min 2,2 UV-I 470 W/m 4,7 C 3,5 C 29,0 km/h (5 Bft)
20.02.2023 13:09 9,2 C 14,4 C 74 % 1026,8 hPa 0,0 l/m 16,2 km/h (3 Bft) S-SW 212 3 min 2,2 UV-I 472 W/m 4,8 C 3,7 C 27,4 km/h (4 Bft)
20.02.2023 13:12 9,3 C 14,4 C 74 % 1026,7 hPa 0,0 l/m 17,3 km/h (3 Bft) S-SW 192 3 min 2,2 UV-I 473 W/m 4,9 C 3,3 C 27,4 km/h (4 Bft)
20.02.2023 13:15 9,4 C 15,0 C 74 % 1026,7 hPa 0,0 l/m 14,4 km/h (3 Bft) S-SW 205 3 min 2,2 UV-I 470 W/m 5,0 C 4,7 C 22,5 km/h (4 Bft)
20.02.2023 13:18 9,4 C 15,0 C 74 % 1026,6 hPa 0,0 l/m 16,1 km/h (3 Bft) SW 232 3 min 2,2 UV-I 469 W/m 5,0 C 3,9 C 24,1 km/h (4 Bft)
20.02.2023 13:21 9,4 C 15,0 C 74 % 1026,6 hPa 0,0 l/m 14,5 km/h (3 Bft) S-SW 209 3 min 2,2 UV-I 465 W/m 5,0 C 4,6 C 20,9 km/h (4 Bft)
20.02.2023 13:24 9,7 C 15,6 C 74 % 1026,4 hPa 0,0 l/m 14,7 km/h (3 Bft) S-SO 165 3 min 2,2 UV-I 464 W/m 5,3 C 4,9 C 20,9 km/h (4 Bft)
20.02.2023 13:27 9,8 C 15,6 C 74 % 1026,4 hPa 0,0 l/m 15,1 km/h (3 Bft) S-SW 213 3 min 2,2 UV-I 468 W/m 5,4 C 4,8 C 20,9 km/h (4 Bft)
20.02.2023 13:30 9,9 C 15,6 C 74 % 1026,3 hPa 0,0 l/m 14,0 km/h (3 Bft) SW 223 3 min 2,2 UV-I 467 W/m 5,5 C 5,4 C 24,1 km/h (4 Bft)
20.02.2023 13:33 9,8 C 15,6 C 73 % 1026,2 hPa 0,0 l/m 15,7 km/h (3 Bft) W-SW 256 3 min 2,1 UV-I 464 W/m 5,2 C 4,6 C 32,2 km/h (5 Bft)
20.02.2023 13:36 9,9 C 15,0 C 73 % 1026,2 hPa 0,0 l/m 15,1 km/h (3 Bft) S-SW 207 3 min 2,1 UV-I 460 W/m 5,3 C 5,0 C 20,9 km/h (4 Bft)
20.02.2023 13:39 10,0 C 15,6 C 73 % 1026,1 hPa 0,0 l/m 15,1 km/h (3 Bft) S 177 3 min 2,1 UV-I 455 W/m 5,4 C 5,1 C 24,1 km/h (4 Bft)
20.02.2023 13:42 10,1 C 15,6 C 72 % 1026,1 hPa 0,0 l/m 14,5 km/h (3 Bft) S 181 3 min 2,1 UV-I 448 W/m 5,3 C 5,5 C 25,7 km/h (4 Bft)
20.02.2023 13:45 10,1 C 15,6 C 73 % 1026,0 hPa 0,0 l/m 14,3 km/h (3 Bft) S-SW 194 3 min 2,1 UV-I 457 W/m 5,5 C 5,6 C 25,7 km/h (4 Bft)
20.02.2023 13:48 10,1 C 15,6 C 74 % 1026,1 hPa 0,0 l/m 16,6 km/h (3 Bft) S 190 3 min 2,1 UV-I 461 W/m 5,7 C 4,6 C 27,4 km/h (4 Bft)
20.02.2023 13:51 10,2 C 16,1 C 74 % 1026,0 hPa 0,0 l/m 15,3 km/h (3 Bft) W-SW 244 3 min 2,1 UV-I 459 W/m 5,8 C 5,3 C 25,7 km/h (4 Bft)
20.02.2023 13:54 10,5 C 16,7 C 74 % 1025,8 hPa 0,0 l/m 12,3 km/h (3 Bft) S 190 3 min 2,1 UV-I 457 W/m 6,1 C 6,9 C 19,3 km/h (3 Bft)
20.02.2023 13:57 10,6 C 16,7 C 73 % 1025,9 hPa 0,0 l/m 11,6 km/h (2 Bft) S-SW 205 3 min 2,1 UV-I 460 W/m 6,0 C 7,4 C 19,3 km/h (3 Bft)
20.02.2023 14:00 10,5 C 16,1 C 73 % 1025,8 hPa 0,0 l/m 16,7 km/h (3 Bft) S-SW 198 3 min 2,0 UV-I 460 W/m 5,9 C 5,1 C 27,4 km/h (4 Bft)
20.02.2023 14:03 10,6 C 16,1 C 73 % 1025,7 hPa 0,0 l/m 17,7 km/h (3 Bft) S 171 3 min 2,0 UV-I 461 W/m 6,0 C 4,8 C 29,0 km/h (5 Bft)
20.02.2023 14:06 10,5 C 16,1 C 73 % 1025,6 hPa 0,0 l/m 18,2 km/h (3 Bft) S 191 3 min 2,0 UV-I 456 W/m 5,9 C 4,5 C 30,6 km/h (5 Bft)
20.02.2023 14:09 10,6 C 16,1 C 74 % 1025,7 hPa 0,0 l/m 16,2 km/h (3 Bft) SW 220 3 min 2,0 UV-I 454 W/m 6,2 C 5,4 C 27,4 km/h (4 Bft)
20.02.2023 14:12 10,7 C 16,1 C 74 % 1025,6 hPa 0,0 l/m 20,5 km/h (4 Bft) S 171 3 min 2,0 UV-I 450 W/m 6,3 C 4,0 C 30,6 km/h (5 Bft)
20.02.2023 14:15 10,7 C 16,1 C 74 % 1025,6 hPa 0,0 l/m 17,6 km/h (3 Bft) S 188 3 min 1,9 UV-I 444 W/m 6,3 C 5,0 C 27,4 km/h (4 Bft)
20.02.2023 14:18 10,7 C 15,6 C 74 % 1025,6 hPa 0,0 l/m 17,9 km/h (3 Bft) S-SO 160 3 min 1,9 UV-I 445 W/m 6,3 C 4,9 C 24,1 km/h (4 Bft)
20.02.2023 14:21 10,9 C 16,7 C 74 % 1025,6 hPa 0,0 l/m 13,0 km/h (3 Bft) S 183 3 min 1,9 UV-I 437 W/m 6,5 C 7,1 C 20,9 km/h (4 Bft)
20.02.2023 14:24 11,1 C 17,2 C 74 % 1025,5 hPa 0,0 l/m 13,4 km/h (3 Bft) S 178 3 min 1,9 UV-I 436 W/m 6,6 C 7,1 C 22,5 km/h (4 Bft)
20.02.2023 14:27 11,1 C 16,7 C 73 % 1025,5 hPa 0,0 l/m 14,5 km/h (3 Bft) S-SO 165 3 min 1,9 UV-I 433 W/m 6,4 C 6,7 C 22,5 km/h (4 Bft)
20.02.2023 14:30 11,0 C 17,2 C 74 % 1025,5 hPa 0,0 l/m 15,7 km/h (3 Bft) S-SW 195 3 min 1,8 UV-I 431 W/m 6,5 C 6,1 C 24,1 km/h (4 Bft)
20.02.2023 14:33 10,9 C 16,7 C 74 % 1025,6 hPa 0,0 l/m 16,9 km/h (3 Bft) SW 227 3 min 1,8 UV-I 427 W/m 6,5 C 5,5 C 24,1 km/h (4 Bft)
20.02.2023 14:36 11,1 C 17,2 C 74 % 1025,4 hPa 0,0 l/m 12,9 km/h (3 Bft) S-SW 199 3 min 1,8 UV-I 423 W/m 6,6 C 7,4 C 20,9 km/h (4 Bft)
20.02.2023 14:39 11,2 C 16,7 C 74 % 1025,3 hPa 0,0 l/m 14,2 km/h (3 Bft) S 191 3 min 1,7 UV-I 419 W/m 6,7 C 6,9 C 27,4 km/h (4 Bft)
20.02.2023 14:42 11,3 C 17,8 C 74 % 1025,3 hPa 0,0 l/m 10,9 km/h (2 Bft) S 185 3 min 1,7 UV-I 428 W/m 6,8 C 8,6 C 19,3 km/h (3 Bft)
20.02.2023 14:45 11,4 C 17,8 C 75 % 1025,2 hPa 0,0 l/m 14,6 km/h (3 Bft) S-SW 194 3 min 1,8 UV-I 463 W/m 7,1 C 7,0 C 22,5 km/h (4 Bft)
20.02.2023 14:48 11,4 C 17,8 C 73 % 1025,1 hPa 0,0 l/m 13,4 km/h (3 Bft) SW 219 3 min 1,7 UV-I 441 W/m 6,7 C 7,5 C 20,9 km/h (4 Bft)
20.02.2023 14:51 11,4 C 16,7 C 74 % 1025,0 hPa 0,0 l/m 14,6 km/h (3 Bft) S 185 3 min 1,6 UV-I 411 W/m 6,9 C 7,0 C 22,5 km/h (4 Bft)
20.02.2023 14:54 11,2 C 16,1 C 74 % 1024,9 hPa 0,0 l/m 18,0 km/h (3 Bft) S 175 3 min 1,6 UV-I 406 W/m 6,7 C 5,5 C 27,4 km/h (4 Bft)
20.02.2023 14:57 11,1 C 16,7 C 75 % 1024,9 hPa 0,0 l/m 16,5 km/h (3 Bft) S 169 3 min 1,5 UV-I 404 W/m 6,8 C 5,9 C 35,4 km/h (5 Bft)
20.02.2023 15:00 11,2 C 16,7 C 74 % 1024,8 hPa 0,0 l/m 14,1 km/h (3 Bft) S-SW 213 3 min 1,5 UV-I 388 W/m 6,7 C 7,0 C 25,7 km/h (4 Bft)
20.02.2023 15:03 11,1 C 16,1 C 74 % 1024,7 hPa 0,0 l/m 17,7 km/h (3 Bft) S-SW 196 3 min 1,5 UV-I 382 W/m 6,6 C 5,5 C 29,0 km/h (5 Bft)
20.02.2023 15:06 11,1 C 16,1 C 75 % 1024,8 hPa 0,0 l/m 18,4 km/h (3 Bft) S 185 3 min 1,5 UV-I 376 W/m 6,8 C 5,2 C 27,4 km/h (4 Bft)
20.02.2023 15:09 11,2 C 17,2 C 75 % 1024,6 hPa 0,0 l/m 14,2 km/h (3 Bft) S 182 3 min 1,4 UV-I 373 W/m 6,9 C 6,9 C 20,9 km/h (4 Bft)
20.02.2023 15:12 11,3 C 17,2 C 75 % 1024,6 hPa 0,0 l/m 10,0 km/h (2 Bft) S-SW 192 3 min 1,4 UV-I 368 W/m 7,0 C 9,0 C 19,3 km/h (3 Bft)
20.02.2023 15:15 11,6 C 17,8 C 75 % 1024,7 hPa 0,0 l/m 12,1 km/h (2 Bft) S-SW 206 3 min 1,4 UV-I 364 W/m 7,3 C 8,3 C 24,1 km/h (4 Bft)
20.02.2023 15:18 11,3 C 17,2 C 74 % 1024,7 hPa 0,0 l/m 11,8 km/h (2 Bft) W-SW 248 3 min 1,3 UV-I 359 W/m 6,8 C 8,1 C 17,7 km/h (3 Bft)
20.02.2023 15:21 11,6 C 18,3 C 75 % 1024,6 hPa 0,0 l/m 8,0 km/h (2 Bft) S-SW 205 3 min 1,3 UV-I 353 W/m 7,3 C 10,5 C 17,7 km/h (3 Bft)
20.02.2023 15:24 11,6 C 17,8 C 74 % 1024,6 hPa 0,0 l/m 10,2 km/h (2 Bft) S 186 3 min 1,3 UV-I 348 W/m 7,1 C 9,3 C 17,7 km/h (3 Bft)
20.02.2023 15:27 11,7 C 17,8 C 74 % 1024,5 hPa 0,0 l/m 12,2 km/h (2 Bft) W 259 3 min 1,3 UV-I 343 W/m 7,2 C 8,4 C 19,3 km/h (3 Bft)
20.02.2023 15:30 11,6 C 17,2 C 74 % 1024,5 hPa 0,0 l/m 12,9 km/h (3 Bft) S-SW 192 3 min 1,2 UV-I 336 W/m 7,1 C 7,9 C 19,3 km/h (3 Bft)
20.02.2023 15:33 11,6 C 17,2 C 74 % 1024,5 hPa 0,0 l/m 11,6 km/h (2 Bft) S 178 3 min 1,2 UV-I 329 W/m 7,1 C 8,5 C 17,7 km/h (3 Bft)
20.02.2023 15:36 11,6 C 17,2 C 74 % 1024,4 hPa 0,0 l/m 10,3 km/h (2 Bft) S 178 3 min 1,2 UV-I 322 W/m 7,1 C 9,2 C 17,7 km/h (3 Bft)
20.02.2023 15:39 11,6 C 17,2 C 74 % 1024,3 hPa 0,0 l/m 13,6 km/h (3 Bft) SW 218 3 min 1,1 UV-I 318 W/m 7,1 C 7,6 C 19,3 km/h (3 Bft)
20.02.2023 15:42 11,7 C 17,2 C 74 % 1024,3 hPa 0,0 l/m 12,0 km/h (2 Bft) S-SW 202 3 min 1,1 UV-I 311 W/m 7,2 C 8,5 C 19,3 km/h (3 Bft)
20.02.2023 15:45 11,7 C 16,7 C 75 % 1024,2 hPa 0,0 l/m 12,4 km/h (3 Bft) S-SW 203 3 min 1,1 UV-I 305 W/m 7,4 C 8,3 C 17,7 km/h (3 Bft)
20.02.2023 15:48 11,7 C 16,7 C 73 % 1024,2 hPa 0,0 l/m 13,6 km/h (3 Bft) S 187 3 min 1,0 UV-I 299 W/m 7,0 C 7,8 C 25,7 km/h (4 Bft)
20.02.2023 15:51 11,6 C 16,1 C 73 % 1024,1 hPa 0,0 l/m 15,5 km/h (3 Bft) SW 215 3 min 1,0 UV-I 291 W/m 6,9 C 6,9 C 25,7 km/h (4 Bft)
20.02.2023 15:54 11,6 C 16,1 C 72 % 1024,1 hPa 0,0 l/m 15,9 km/h (3 Bft) S-SW 206 3 min 1,0 UV-I 283 W/m 6,7 C 6,7 C 24,1 km/h (4 Bft)
20.02.2023 15:57 11,6 C 16,1 C 73 % 1024,2 hPa 0,0 l/m 15,2 km/h (3 Bft) S 181 3 min 0,9 UV-I 275 W/m 6,9 C 7,0 C 22,5 km/h (4 Bft)
20.02.2023 16:00 11,6 C 16,1 C 74 % 1024,1 hPa 0,0 l/m 12,3 km/h (3 Bft) S-SW 209 3 min 0,9 UV-I 270 W/m 7,1 C 8,2 C 17,7 km/h (3 Bft)
20.02.2023 16:03 11,4 C 15,0 C 73 % 1024,1 hPa 0,0 l/m 13,6 km/h (3 Bft) W-SW 243 3 min 0,9 UV-I 265 W/m 6,7 C 7,4 C 19,3 km/h (3 Bft)
20.02.2023 16:06 11,4 C 12,8 C 74 % 1024,0 hPa 0,0 l/m 11,4 km/h (2 Bft) S 182 3 min 0,8 UV-I 258 W/m 6,9 C 8,4 C 17,7 km/h (3 Bft)
20.02.2023 16:09 11,5 C 12,2 C 74 % 1024,1 hPa 0,0 l/m 10,2 km/h (2 Bft) S-SW 210 3 min 0,8 UV-I 251 W/m 7,0 C 9,1 C 17,7 km/h (3 Bft)
20.02.2023 16:12 11,5 C 13,3 C 73 % 1024,2 hPa 0,0 l/m 12,9 km/h (3 Bft) S-SW 204 0 min 0,8 UV-I 245 W/m 6,8 C 7,8 C 17,7 km/h (3 Bft)
20.02.2023 16:15 11,5 C 15,6 C 73 % 1024,1 hPa 0,0 l/m 12,3 km/h (3 Bft) S-SW 203 0 min 0,7 UV-I 238 W/m 6,8 C 8,1 C 17,7 km/h (3 Bft)
20.02.2023 16:18 11,6 C 16,1 C 72 % 1024,0 hPa 0,0 l/m 9,6 km/h (2 Bft) W-SW 251 0 min 0,7 UV-I 231 W/m 6,7 C 9,6 C 17,7 km/h (3 Bft)
20.02.2023 16:21 11,6 C 15,6 C 70 % 1024,2 hPa 0,0 l/m 13,5 km/h (3 Bft) S-SW 193 0 min 0,7 UV-I 223 W/m 6,3 C 7,7 C 24,1 km/h (4 Bft)
20.02.2023 16:24 11,4 C 16,1 C 69 % 1024,1 hPa 0,0 l/m 12,7 km/h (3 Bft) S-SW 195 0 min 0,6 UV-I 213 W/m 5,9 C 7,8 C 25,7 km/h (4 Bft)
20.02.2023 16:27 11,4 C 16,1 C 70 % 1024,1 hPa 0,0 l/m 11,7 km/h (2 Bft) SW 217 0 min 0,6 UV-I 203 W/m 6,1 C 8,3 C 22,5 km/h (4 Bft)
20.02.2023 16:30 11,4 C 16,1 C 70 % 1024,1 hPa 0,0 l/m 10,9 km/h (2 Bft) SW 224 0 min 0,6 UV-I 196 W/m 6,1 C 8,7 C 25,7 km/h (4 Bft)
20.02.2023 16:33 11,4 C 15,6 C 69 % 1024,0 hPa 0,0 l/m 14,1 km/h (3 Bft) S-SW 198 0 min 0,6 UV-I 188 W/m 5,9 C 7,2 C 22,5 km/h (4 Bft)
20.02.2023 16:36 11,3 C 15,0 C 69 % 1023,9 hPa 0,0 l/m 14,9 km/h (3 Bft) W-SW 248 0 min 0,5 UV-I 179 W/m 5,8 C 6,7 C 22,5 km/h (4 Bft)
20.02.2023 16:39 11,3 C 15,0 C 69 % 1023,9 hPa 0,0 l/m 11,5 km/h (2 Bft) S-SW 204 0 min 0,5 UV-I 169 W/m 5,8 C 8,3 C 22,5 km/h (4 Bft)
20.02.2023 16:42 11,3 C 16,1 C 69 % 1023,9 hPa 0,0 l/m 9,9 km/h (2 Bft) S-SW 202 0 min 0,5 UV-I 159 W/m 5,8 C 9,1 C 25,7 km/h (4 Bft)
20.02.2023 16:45 11,2 C 15,6 C 69 % 1023,9 hPa 0,0 l/m 12,8 km/h (3 Bft) SW 220 0 min 0,1 UV-I 150 W/m 5,7 C 7,5 C 27,4 km/h (4 Bft)
20.02.2023 16:48 11,2 C 15,6 C 70 % 1023,9 hPa 0,0 l/m 7,0 km/h (2 Bft) SW 221 0 min 0,0 UV-I 142 W/m 5,9 C 10,8 C 12,9 km/h (3 Bft)
20.02.2023 16:51 11,1 C 15,0 C 70 % 1023,8 hPa 0,0 l/m 9,1 km/h (2 Bft) S 188 0 min 0,0 UV-I 133 W/m 5,8 C 9,3 C 17,7 km/h (3 Bft)
20.02.2023 16:54 11,1 C 14,4 C 69 % 1023,9 hPa 0,0 l/m 11,5 km/h (2 Bft) S 188 0 min 0,0 UV-I 124 W/m 5,6 C 8,0 C 22,5 km/h (4 Bft)
20.02.2023 16:57 10,9 C 13,9 C 69 % 1023,9 hPa 0,0 l/m 14,6 km/h (3 Bft) SW 221 0 min 0,0 UV-I 116 W/m 5,4 C 6,4 C 27,4 km/h (4 Bft)
20.02.2023 17:00 10,9 C 13,3 C 69 % 1023,8 hPa 0,0 l/m 12,2 km/h (2 Bft) SW 217 0 min 0,0 UV-I 107 W/m 5,4 C 7,5 C 25,7 km/h (4 Bft)
20.02.2023 17:03 10,8 C 11,7 C 69 % 1023,8 hPa 0,0 l/m 9,8 km/h (2 Bft) SW 225 0 min 0,0 UV-I 88 W/m 5,3 C 8,6 C 20,9 km/h (4 Bft)
20.02.2023 17:06 10,7 C 11,1 C 69 % 1023,9 hPa 0,0 l/m 11,3 km/h (2 Bft) SW 215 0 min 0,0 UV-I 76 W/m 5,2 C 7,7 C 19,3 km/h (3 Bft)
20.02.2023 17:09 10,6 C 10,0 C 70 % 1023,9 hPa 0,0 l/m 7,7 km/h (2 Bft) SW 235 0 min 0,0 UV-I 73 W/m 5,4 C 9,7 C 19,3 km/h (3 Bft)
20.02.2023 17:12 10,4 C 9,4 C 70 % 1023,9 hPa 0,0 l/m 6,5 km/h (2 Bft) W-SW 246 0 min 0,0 UV-I 67 W/m 5,2 C 10,4 C 11,3 km/h (2 Bft)
20.02.2023 17:15 10,3 C 9,4 C 71 % 1023,8 hPa 0,0 l/m 6,6 km/h (2 Bft) SW 215 0 min 0,0 UV-I 65 W/m 5,3 C 10,2 C 12,9 km/h (3 Bft)
20.02.2023 17:18 10,3 C 11,1 C 71 % 1023,9 hPa 0,0 l/m 7,9 km/h (2 Bft) SW 230 0 min 0,0 UV-I 59 W/m 5,3 C 9,2 C 12,9 km/h (3 Bft)
20.02.2023 17:21 10,2 C 10,0 C 72 % 1023,9 hPa 0,0 l/m 9,0 km/h (2 Bft) S-SW 198 0 min 0,0 UV-I 52 W/m 5,4 C 8,4 C 22,5 km/h (4 Bft)
20.02.2023 17:24 10,2 C 10,0 C 72 % 1023,9 hPa 0,0 l/m 6,0 km/h (2 Bft) SW 214 0 min 0,0 UV-I 44 W/m 5,4 C 10,2 C 14,5 km/h (3 Bft)
20.02.2023 17:27 10,1 C 9,4 C 72 % 1023,8 hPa 0,0 l/m 6,8 km/h (2 Bft) SW 222 0 min 0,0 UV-I 34 W/m 5,3 C 9,8 C 11,3 km/h (2 Bft)
20.02.2023 17:30 9,8 C 8,3 C 73 % 1023,7 hPa 0,0 l/m 7,2 km/h (2 Bft) W-SW 242 0 min 0,0 UV-I 17 W/m 5,2 C 9,2 C 11,3 km/h (2 Bft)
20.02.2023 17:33 9,8 C 8,3 C 73 % 1023,8 hPa 0,0 l/m 8,6 km/h (2 Bft) W-SW 241 0 min 0,0 UV-I 15 W/m 5,2 C 8,2 C 20,9 km/h (4 Bft)
20.02.2023 17:36 9,7 C 8,3 C 73 % 1023,7 hPa 0,0 l/m 8,6 km/h (2 Bft) S-SW 201 0 min 0,0 UV-I 14 W/m 5,1 C 8,1 C 14,5 km/h (3 Bft)
20.02.2023 17:39 9,6 C 7,8 C 73 % 1023,7 hPa 0,0 l/m 7,8 km/h (2 Bft) SW 227 0 min 0,0 UV-I 14 W/m 5,0 C 8,6 C 14,5 km/h (3 Bft)
20.02.2023 17:42 9,4 C 7,8 C 73 % 1023,7 hPa 0,0 l/m 9,0 km/h (2 Bft) S-SW 205 0 min 0,0 UV-I 12 W/m 4,8 C 7,6 C 16,1 km/h (3 Bft)
20.02.2023 17:45 9,4 C 7,8 C 74 % 1023,7 hPa 0,0 l/m 10,7 km/h (2 Bft) S-SW 209 0 min 0,0 UV-I 11 W/m 5,0 C 6,5 C 16,1 km/h (3 Bft)
20.02.2023 17:48 9,3 C 7,8 C 74 % 1023,7 hPa 0,0 l/m 6,1 km/h (2 Bft) W-SW 239 0 min 0,0 UV-I 10 W/m 4,9 C 9,3 C 11,3 km/h (2 Bft)
20.02.2023 17:51 9,1 C 7,8 C 74 % 1023,7 hPa 0,0 l/m 3,8 km/h (1 Bft) SW 222 0 min 0,0 UV-I 8 W/m 4,7 C 9,1 C 8,0 km/h (2 Bft)
20.02.2023 17:54 8,9 C 7,2 C 75 % 1023,7 hPa 0,0 l/m 3,3 km/h (1 Bft) SW 232 0 min 0,0 UV-I 7 W/m 4,7 C 8,9 C 8,0 km/h (2 Bft)
20.02.2023 17:57 8,8 C 7,2 C 75 % 1023,7 hPa 0,0 l/m 3,6 km/h (1 Bft) SW 229 0 min 0,0 UV-I 5 W/m 4,6 C 8,8 C 8,0 km/h (2 Bft)
20.02.2023 18:00 8,7 C 6,7 C 76 % 1023,8 hPa 0,0 l/m 3,9 km/h (1 Bft) SW 215 0 min 0,0 UV-I 5 W/m 4,7 C 8,7 C 8,0 km/h (2 Bft)
20.02.2023 18:03 8,5 C 6,1 C 76 % 1023,8 hPa 0,0 l/m 3,7 km/h (1 Bft) SW 216 0 min 0,0 UV-I 0 W/m 4,5 C 8,5 C 8,0 km/h (2 Bft)
20.02.2023 18:06 8,3 C 6,1 C 76 % 1023,8 hPa 0,0 l/m 2,9 km/h (1 Bft) SW 216 0 min 0,0 UV-I 0 W/m 4,3 C 8,3 C 4,8 km/h (1 Bft)
20.02.2023 18:09 8,0 C 5,6 C 77 % 1023,8 hPa 0,0 l/m 3,0 km/h (1 Bft) SW 217 0 min 0,0 UV-I 0 W/m 4,2 C 8,0 C 6,4 km/h (2 Bft)
20.02.2023 18:12 7,7 C 5,6 C 77 % 1023,8 hPa 0,0 l/m 5,0 km/h (1 Bft) SW 214 0 min 0,0 UV-I 0 W/m 3,9 C 7,7 C 8,0 km/h (2 Bft)
20.02.2023 18:15 7,6 C 5,0 C 79 % 1023,9 hPa 0,0 l/m 3,4 km/h (1 Bft) S-SW 212 0 min 0,0 UV-I 0 W/m 4,2 C 7,6 C 6,4 km/h (2 Bft)
20.02.2023 18:18 7,3 C 5,0 C 79 % 1024,0 hPa 0,0 l/m 3,2 km/h (1 Bft) S-SW 197 0 min 0,0 UV-I 0 W/m 3,9 C 7,3 C 6,4 km/h (2 Bft)
20.02.2023 18:21 7,2 C 4,4 C 79 % 1023,8 hPa 0,0 l/m 6,4 km/h (2 Bft) S-SW 198 0 min 0,0 UV-I 0 W/m 3,8 C 7,2 C 11,3 km/h (2 Bft)
20.02.2023 18:24 7,1 C 5,0 C 80 % 1023,9 hPa 0,0 l/m 4,7 km/h (1 Bft) S-SW 212 0 min 0,0 UV-I 0 W/m 3,9 C 7,1 C 9,7 km/h (2 Bft)
20.02.2023 18:27 7,1 C 5,0 C 81 % 1023,9 hPa 0,0 l/m 3,1 km/h (1 Bft) SW 223 0 min 0,0 UV-I 0 W/m 4,1 C 7,1 C 6,4 km/h (2 Bft)
20.02.2023 18:30 7,1 C 5,0 C 80 % 1023,9 hPa 0,0 l/m 5,1 km/h (1 Bft) S-SW 212 0 min 0,0 UV-I 0 W/m 3,9 C 7,1 C 9,7 km/h (2 Bft)
20.02.2023 18:33 6,8 C 4,4 C 81 % 1023,9 hPa 0,0 l/m 4,0 km/h (1 Bft) SW 215 0 min 0,0 UV-I 0 W/m 3,8 C 6,8 C 8,0 km/h (2 Bft)
20.02.2023 18:36 6,8 C 4,4 C 82 % 1024,0 hPa 0,0 l/m 3,6 km/h (1 Bft) SW 225 0 min 0,0 UV-I 0 W/m 3,9 C 6,8 C 9,7 km/h (2 Bft)
20.02.2023 18:39 6,8 C 4,4 C 82 % 1024,0 hPa 0,0 l/m 2,6 km/h (1 Bft) SW 224 0 min 0,0 UV-I 0 W/m 3,9 C 6,8 C 6,4 km/h (2 Bft)
20.02.2023 18:42 6,8 C 4,4 C 82 % 1024,0 hPa 0,0 l/m 2,3 km/h (1 Bft) SW 236 0 min 0,0 UV-I 0 W/m 3,9 C 6,8 C 6,4 km/h (2 Bft)
20.02.2023 18:45 6,9 C 4,4 C 82 % 1024,0 hPa 0,0 l/m 2,8 km/h (1 Bft) SW 234 0 min 0,0 UV-I 0 W/m 4,0 C 6,9 C 6,4 km/h (2 Bft)
20.02.2023 18:48 6,8 C 4,4 C 81 % 1024,1 hPa 0,0 l/m 4,2 km/h (1 Bft) SW 220 0 min 0,0 UV-I 0 W/m 3,8 C 6,8 C 8,0 km/h (2 Bft)
20.02.2023 18:51 6,8 C 4,4 C 82 % 1024,0 hPa 0,0 l/m 3,8 km/h (1 Bft) W-SW 243 0 min 0,0 UV-I 0 W/m 3,9 C 6,8 C 9,7 km/h (2 Bft)
20.02.2023 18:54 6,7 C 4,4 C 82 % 1024,0 hPa 0,0 l/m 3,5 km/h (1 Bft) SW 217 0 min 0,0 UV-I 0 W/m 3,8 C 6,7 C 8,0 km/h (2 Bft)
20.02.2023 18:57 6,6 C 4,4 C 81 % 1024,1 hPa 0,0 l/m 3,5 km/h (1 Bft) S-SW 213 0 min 0,0 UV-I 0 W/m 3,6 C 6,6 C 8,0 km/h (2 Bft)
20.02.2023 19:00 6,6 C 4,4 C 82 % 1024,0 hPa 0,0 l/m 2,3 km/h (1 Bft) S-SW 212 0 min 0,0 UV-I 0 W/m 3,8 C 6,6 C 4,8 km/h (1 Bft)
20.02.2023 19:03 6,4 C 3,9 C 82 % 1024,0 hPa 0,0 l/m 2,7 km/h (1 Bft) S-SW 213 0 min 0,0 UV-I 0 W/m 3,6 C 6,4 C 4,8 km/h (1 Bft)
20.02.2023 19:06 6,4 C 3,9 C 82 % 1024,0 hPa 0,0 l/m 1,9 km/h (1 Bft) SW 221 0 min 0,0 UV-I 0 W/m 3,6 C 6,4 C 6,4 km/h (2 Bft)
20.02.2023 19:09 6,4 C 3,9 C 82 % 1024,1 hPa 0,0 l/m 2,3 km/h (1 Bft) SW 221 0 min 0,0 UV-I 0 W/m 3,6 C 6,4 C 4,8 km/h (1 Bft)
20.02.2023 19:12 6,4 C 4,4 C 82 % 1024,1 hPa 0,0 l/m 2,8 km/h (1 Bft) SW 220 0 min 0,0 UV-I 0 W/m 3,6 C 6,4 C 4,8 km/h (1 Bft)
20.02.2023 19:15 6,3 C 3,9 C 82 % 1024,1 hPa 0,0 l/m 1,9 km/h (1 Bft) SW 220 0 min 0,0 UV-I 0 W/m 3,5 C 6,3 C 4,8 km/h (1 Bft)
20.02.2023 19:18 6,2 C 3,9 C 82 % 1024,2 hPa 0,0 l/m 1,4 km/h (1 Bft) SW 221 0 min 0,0 UV-I 0 W/m 3,4 C 6,2 C 3,2 km/h (1 Bft)
20.02.2023 19:21 6,2 C 3,3 C 83 % 1024,3 hPa 0,0 l/m 0,4 km/h (0 Bft) SW 221 0 min 0,0 UV-I 0 W/m 3,5 C 6,2 C 3,2 km/h (1 Bft)
20.02.2023 19:24 6,3 C 3,3 C 83 % 1024,3 hPa 0,0 l/m 0,7 km/h (0 Bft) SW 221 0 min 0,0 UV-I 0 W/m 3,6 C 6,3 C 3,2 km/h (1 Bft)
20.02.2023 19:27 6,3 C 3,3 C 83 % 1024,4 hPa 0,0 l/m 0,7 km/h (0 Bft) SW 221 0 min 0,0 UV-I 0 W/m 3,6 C 6,3 C 3,2 km/h (1 Bft)
20.02.2023 19:30 6,2 C 2,8 C 83 % 1024,4 hPa 0,0 l/m 0,0 km/h (0 Bft) SW 221 0 min 0,0 UV-I 0 W/m 3,5 C 6,2 C 0,0 km/h (0 Bft)
20.02.2023 19:33 6,2 C 2,8 C 83 % 1024,6 hPa 0,0 l/m 0,0 km/h (0 Bft) SW 221 0 min 0,0 UV-I 0 W/m 3,5 C 6,2 C 0,0 km/h (0 Bft)
20.02.2023 19:36 6,1 C 2,8 C 83 % 1024,6 hPa 0,0 l/m 0,7 km/h (0 Bft) SW 221 0 min 0,0 UV-I 0 W/m 3,4 C 6,1 C 3,2 km/h (1 Bft)
20.02.2023 19:39 5,9 C 2,8 C 84 % 1024,6 hPa 0,0 l/m 0,1 km/h (0 Bft) SW 221 0 min 0,0 UV-I 0 W/m 3,4 C 5,9 C 1,6 km/h (1 Bft)
20.02.2023 19:42 5,8 C 2,8 C 84 % 1024,6 hPa 0,0 l/m 0,0 km/h (0 Bft) SW 221 0 min 0,0 UV-I 0 W/m 3,3 C 5,8 C 0,0 km/h (0 Bft)
20.02.2023 19:45 5,7 C 2,2 C 84 % 1024,6 hPa 0,0 l/m 0,2 km/h (0 Bft) SW 221 0 min 0,0 UV-I 0 W/m 3,2 C 5,7 C 1,6 km/h (1 Bft)
20.02.2023 19:48 5,5 C 2,8 C 84 % 1024,6 hPa 0,0 l/m 0,0 km/h (0 Bft) SW 221 0 min 0,0 UV-I 0 W/m 3,0 C 5,5 C 0,0 km/h (0 Bft)
20.02.2023 19:51 5,4 C 2,8 C 85 % 1024,6 hPa 0,0 l/m 0,9 km/h (0 Bft) SW 221 0 min 0,0 UV-I 0 W/m 3,1 C 5,4 C 3,2 km/h (1 Bft)
20.02.2023 19:54 5,4 C 2,8 C 85 % 1024,6 hPa 0,0 l/m 1,1 km/h (1 Bft) SW 221 0 min 0,0 UV-I 0 W/m 3,1 C 5,4 C 3,2 km/h (1 Bft)
20.02.2023 19:57 5,3 C 2,2 C 85 % 1024,5 hPa 0,0 l/m 0,6 km/h (0 Bft) SW 221 0 min 0,0 UV-I 0 W/m 3,0 C 5,3 C 3,2 km/h (1 Bft)
20.02.2023 20:00 5,3 C 2,2 C 85 % 1024,6 hPa 0,0 l/m 0,4 km/h (0 Bft) SW 221 0 min 0,0 UV-I 0 W/m 3,0 C 5,3 C 1,6 km/h (1 Bft)
20.02.2023 20:03 5,3 C 2,2 C 86 % 1024,6 hPa 0,0 l/m 0,0 km/h (0 Bft) SW 221 0 min 0,0 UV-I 0 W/m 3,2 C 5,3 C 0,0 km/h (0 Bft)
20.02.2023 20:06 5,1 C 2,2 C 85 % 1024,8 hPa 0,0 l/m 0,0 km/h (0 Bft) SW 221 0 min 0,0 UV-I 0 W/m 2,8 C 5,1 C 0,0 km/h (0 Bft)
20.02.2023 20:09 4,9 C 2,2 C 86 % 1024,7 hPa 0,0 l/m 0,0 km/h (0 Bft) SW 221 0 min 0,0 UV-I 0 W/m 2,8 C 4,9 C 0,0 km/h (0 Bft)
20.02.2023 20:12 5,1 C 2,2 C 86 % 1024,8 hPa 0,0 l/m 0,0 km/h (0 Bft) SW 221 0 min 0,0 UV-I 0 W/m 3,0 C 5,1 C 0,0 km/h (0 Bft)
20.02.2023 20:15 5,1 C 2,2 C 86 % 1024,6 hPa 0,0 l/m 0,0 km/h (0 Bft) SW 221 0 min 0,0 UV-I 0 W/m 3,0 C 5,1 C 0,0 km/h (0 Bft)
20.02.2023 20:18 4,9 C 2,2 C 86 % 1024,6 hPa 0,0 l/m 0,0 km/h (0 Bft) SW 221 0 min 0,0 UV-I 0 W/m 2,8 C 4,9 C 0,0 km/h (0 Bft)
20.02.2023 20:21 4,4 C 1,7 C 86 % 1024,7 hPa 0,0 l/m 2,1 km/h (1 Bft) SW 221 0 min 0,0 UV-I 0 W/m 2,3 C 4,4 C 4,8 km/h (1 Bft)
20.02.2023 20:24 4,2 C 1,7 C 86 % 1024,6 hPa 0,0 l/m 2,8 km/h (1 Bft) SW 221 0 min 0,0 UV-I 0 W/m 2,1 C 4,2 C 4,8 km/h (1 Bft)
20.02.2023 20:27 4,2 C 2,2 C 87 % 1024,6 hPa 0,0 l/m 4,0 km/h (1 Bft) SW 231 0 min 0,0 UV-I 0 W/m 2,2 C 4,2 C 6,4 km/h (2 Bft)
20.02.2023 20:30 4,2 C 2,2 C 87 % 1024,6 hPa 0,0 l/m 3,3 km/h (1 Bft) SW 231 0 min 0,0 UV-I 0 W/m 2,2 C 4,2 C 6,4 km/h (2 Bft)
20.02.2023 20:33 4,1 C 1,7 C 87 % 1024,5 hPa 0,0 l/m 3,4 km/h (1 Bft) SW 232 0 min 0,0 UV-I 0 W/m 2,1 C 4,1 C 6,4 km/h (2 Bft)
20.02.2023 20:36 3,8 C 1,7 C 87 % 1024,5 hPa 0,0 l/m 3,3 km/h (1 Bft) W-SW 240 0 min 0,0 UV-I 0 W/m 1,8 C 3,8 C 6,4 km/h (2 Bft)
20.02.2023 20:39 3,7 C 1,7 C 88 % 1024,5 hPa 0,0 l/m 3,0 km/h (1 Bft) W-SW 244 0 min 0,0 UV-I 0 W/m 1,9 C 3,7 C 4,8 km/h (1 Bft)
20.02.2023 20:42 3,8 C 1,7 C 88 % 1024,5 hPa 0,0 l/m 4,2 km/h (1 Bft) W-SW 252 0 min 0,0 UV-I 0 W/m 2,0 C 3,8 C 11,3 km/h (2 Bft)
20.02.2023 20:45 4,2 C 2,2 C 89 % 1024,4 hPa 0,0 l/m 4,7 km/h (1 Bft) W-SW 247 0 min 0,0 UV-I 0 W/m 2,6 C 4,2 C 8,0 km/h (2 Bft)
20.02.2023 20:48 4,1 C 2,2 C 88 % 1024,5 hPa 0,0 l/m 4,7 km/h (1 Bft) W-SW 241 0 min 0,0 UV-I 0 W/m 2,3 C 4,1 C 8,0 km/h (2 Bft)
20.02.2023 20:51 3,9 C 1,7 C 88 % 1024,4 hPa 0,0 l/m 4,1 km/h (1 Bft) W-SW 250 0 min 0,0 UV-I 0 W/m 2,1 C 3,9 C 9,7 km/h (2 Bft)
20.02.2023 20:54 3,6 C 1,7 C 88 % 1024,4 hPa 0,0 l/m 4,0 km/h (1 Bft) W-SW 255 0 min 0,0 UV-I 0 W/m 1,8 C 3,6 C 8,0 km/h (2 Bft)
20.02.2023 20:57 3,3 C 1,7 C 88 % 1024,5 hPa 0,0 l/m 4,0 km/h (1 Bft) SW 232 0 min 0,0 UV-I 0 W/m 1,5 C 3,3 C 8,0 km/h (2 Bft)
20.02.2023 21:00 3,3 C 1,7 C 88 % 1024,3 hPa 0,0 l/m 5,4 km/h (1 Bft) SW 223 0 min 0,0 UV-I 0 W/m 1,5 C 3,3 C 9,7 km/h (2 Bft)
20.02.2023 21:03 3,3 C 1,7 C 89 % 1024,3 hPa 0,0 l/m 5,3 km/h (1 Bft) W 270 0 min 0,0 UV-I 0 W/m 1,7 C 3,3 C 11,3 km/h (2 Bft)
20.02.2023 21:06 3,7 C 2,2 C 90 % 1024,4 hPa 0,0 l/m 4,3 km/h (1 Bft) W-SW 257 0 min 0,0 UV-I 0 W/m 2,2 C 3,7 C 9,7 km/h (2 Bft)
20.02.2023 21:09 4,0 C 2,2 C 89 % 1024,3 hPa 0,0 l/m 5,3 km/h (1 Bft) W-SW 246 0 min 0,0 UV-I 0 W/m 2,4 C 4,0 C 9,7 km/h (2 Bft)
20.02.2023 21:12 3,9 C 2,2 C 89 % 1024,3 hPa 0,0 l/m 6,6 km/h (2 Bft) SW 235 0 min 0,0 UV-I 0 W/m 2,3 C 3,7 C 14,5 km/h (3 Bft)
20.02.2023 21:15 4,0 C 2,2 C 89 % 1024,4 hPa 0,0 l/m 6,4 km/h (2 Bft) W-SW 238 0 min 0,0 UV-I 0 W/m 2,4 C 4,0 C 14,5 km/h (3 Bft)
20.02.2023 21:18 4,3 C 2,8 C 90 % 1024,3 hPa 0,0 l/m 6,3 km/h (2 Bft) W-SW 255 0 min 0,0 UV-I 0 W/m 2,8 C 4,3 C 11,3 km/h (2 Bft)
20.02.2023 21:21 4,3 C 2,8 C 89 % 1024,2 hPa 0,0 l/m 5,9 km/h (2 Bft) SW 233 0 min 0,0 UV-I 0 W/m 2,7 C 4,3 C 11,3 km/h (2 Bft)
20.02.2023 21:24 4,1 C 2,2 C 88 % 1024,2 hPa 0,0 l/m 3,7 km/h (1 Bft) W 265 0 min 0,0 UV-I 0 W/m 2,3 C 4,1 C 8,0 km/h (2 Bft)
20.02.2023 21:27 4,1 C 2,2 C 89 % 1024,3 hPa 0,0 l/m 3,7 km/h (1 Bft) W-SW 241 0 min 0,0 UV-I 0 W/m 2,5 C 4,1 C 9,7 km/h (2 Bft)
20.02.2023 21:30 4,3 C 2,8 C 89 % 1024,3 hPa 0,0 l/m 5,3 km/h (1 Bft) W-SW 252 0 min 0,0 UV-I 0 W/m 2,7 C 4,3 C 9,7 km/h (2 Bft)
20.02.2023 21:33 4,4 C 2,8 C 89 % 1024,2 hPa 0,0 l/m 4,9 km/h (1 Bft) SW 219 0 min 0,0 UV-I 0 W/m 2,7 C 4,4 C 12,9 km/h (3 Bft)
20.02.2023 21:36 4,1 C 2,8 C 88 % 1024,2 hPa 0,0 l/m 5,4 km/h (1 Bft) S-SW 208 0 min 0,0 UV-I 0 W/m 2,3 C 4,1 C 9,7 km/h (2 Bft)
20.02.2023 21:39 4,0 C 2,2 C 89 % 1024,2 hPa 0,0 l/m 3,4 km/h (1 Bft) W-SW 251 0 min 0,0 UV-I 0 W/m 2,4 C 4,0 C 8,0 km/h (2 Bft)
20.02.2023 21:42 4,1 C 2,2 C 89 % 1024,2 hPa 0,0 l/m 2,7 km/h (1 Bft) W-SW 251 0 min 0,0 UV-I 0 W/m 2,5 C 4,1 C 8,0 km/h (2 Bft)
20.02.2023 21:45 4,1 C 2,2 C 89 % 1024,2 hPa 0,0 l/m 4,7 km/h (1 Bft) SW 216 0 min 0,0 UV-I 0 W/m 2,5 C 4,1 C 8,0 km/h (2 Bft)
20.02.2023 21:48 3,8 C 2,2 C 89 % 1024,2 hPa 0,0 l/m 5,0 km/h (1 Bft) S-SW 197 0 min 0,0 UV-I 0 W/m 2,2 C 3,8 C 8,0 km/h (2 Bft)
20.02.2023 21:51 3,8 C 2,2 C 89 % 1024,2 hPa 0,0 l/m 4,9 km/h (1 Bft) W-SW 245 0 min 0,0 UV-I 0 W/m 2,2 C 3,8 C 11,3 km/h (2 Bft)
20.02.2023 21:54 4,1 C 2,8 C 90 % 1024,2 hPa 0,0 l/m 6,2 km/h (2 Bft) W-SW 244 0 min 0,0 UV-I 0 W/m 2,6 C 4,1 C 16,1 km/h (3 Bft)
20.02.2023 21:57 4,2 C 2,8 C 90 % 1024,2 hPa 0,0 l/m 6,4 km/h (2 Bft) SW 215 0 min 0,0 UV-I 0 W/m 2,7 C 4,2 C 11,3 km/h (2 Bft)
20.02.2023 22:00 4,1 C 2,8 C 89 % 1024,0 hPa 0,0 l/m 4,5 km/h (1 Bft) W-SW 248 0 min 0,0 UV-I 0 W/m 2,5 C 4,1 C 8,0 km/h (2 Bft)
20.02.2023 22:03 4,1 C 2,8 C 90 % 1024,2 hPa 0,0 l/m 5,3 km/h (1 Bft) W-SW 237 0 min 0,0 UV-I 0 W/m 2,6 C 4,1 C 11,3 km/h (2 Bft)
20.02.2023 22:06 4,1 C 2,8 C 90 % 1024,2 hPa 0,0 l/m 5,8 km/h (2 Bft) SW 232 0 min 0,0 UV-I 0 W/m 2,6 C 4,1 C 11,3 km/h (2 Bft)
20.02.2023 22:09 4,1 C 2,8 C 89 % 1024,2 hPa 0,0 l/m 4,4 km/h (1 Bft) W-SW 246 0 min 0,0 UV-I 0 W/m 2,5 C 4,1 C 9,7 km/h (2 Bft)
20.02.2023 22:12 3,9 C 2,8 C 90 % 1024,2 hPa 0,0 l/m 2,8 km/h (1 Bft) W-SW 252 0 min 0,0 UV-I 0 W/m 2,4 C 3,9 C 9,7 km/h (2 Bft)
20.02.2023 22:15 4,0 C 2,8 C 90 % 1024,1 hPa 0,0 l/m 5,8 km/h (2 Bft) SW 217 0 min 0,0 UV-I 0 W/m 2,5 C 4,0 C 14,5 km/h (3 Bft)
20.02.2023 22:18 4,0 C 2,8 C 90 % 1024,0 hPa 0,0 l/m 6,5 km/h (2 Bft) W-SW 240 0 min 0,0 UV-I 0 W/m 2,5 C 3,9 C 12,9 km/h (3 Bft)
20.02.2023 22:21 4,0 C 2,8 C 90 % 1024,1 hPa 0,0 l/m 5,1 km/h (1 Bft) W-SW 238 0 min 0,0 UV-I 0 W/m 2,5 C 4,0 C 12,9 km/h (3 Bft)
20.02.2023 22:24 4,1 C 2,8 C 90 % 1024,1 hPa 0,0 l/m 6,8 km/h (2 Bft) SW 225 0 min 0,0 UV-I 0 W/m 2,6 C 3,7 C 17,7 km/h (3 Bft)
20.02.2023 22:27 4,2 C 2,8 C 90 % 1024,2 hPa 0,0 l/m 9,3 km/h (2 Bft) W-SW 249 0 min 0,0 UV-I 0 W/m 2,7 C 1,7 C 16,1 km/h (3 Bft)
20.02.2023 22:30 4,3 C 3,3 C 90 % 1024,2 hPa 0,0 l/m 9,8 km/h (2 Bft) SW 236 0 min 0,0 UV-I 0 W/m 2,8 C 1,4 C 20,9 km/h (4 Bft)
20.02.2023 22:33 4,3 C 3,3 C 90 % 1024,2 hPa 0,0 l/m 7,9 km/h (2 Bft) W-SW 242 0 min 0,0 UV-I 0 W/m 2,8 C 3,0 C 16,1 km/h (3 Bft)
20.02.2023 22:36 4,3 C 3,3 C 90 % 1024,1 hPa 0,0 l/m 7,0 km/h (2 Bft) SW 216 0 min 0,0 UV-I 0 W/m 2,8 C 3,8 C 12,9 km/h (3 Bft)
20.02.2023 22:39 4,2 C 2,8 C 90 % 1024,1 hPa 0,0 l/m 6,7 km/h (2 Bft) S-SW 211 0 min 0,0 UV-I 0 W/m 2,7 C 3,9 C 14,5 km/h (3 Bft)
20.02.2023 22:42 4,1 C 2,8 C 90 % 1024,2 hPa 0,0 l/m 6,0 km/h (2 Bft) SW 233 0 min 0,0 UV-I 0 W/m 2,6 C 4,1 C 11,3 km/h (2 Bft)
20.02.2023 22:45 4,1 C 2,8 C 90 % 1024,1 hPa 0,0 l/m 3,3 km/h (1 Bft) W-SW 242 0 min 0,0 UV-I 0 W/m 2,6 C 4,1 C 6,4 km/h (2 Bft)
20.02.2023 22:48 4,0 C 2,8 C 90 % 1024,1 hPa 0,0 l/m 5,2 km/h (1 Bft) W-SW 244 0 min 0,0 UV-I 0 W/m 2,5 C 4,0 C 11,3 km/h (2 Bft)
20.02.2023 22:51 3,9 C 2,8 C 90 % 1024,1 hPa 0,0 l/m 4,2 km/h (1 Bft) SW 236 0 min 0,0 UV-I 0 W/m 2,4 C 3,9 C 11,3 km/h (2 Bft)
20.02.2023 22:54 3,9 C 2,8 C 90 % 1024,0 hPa 0,0 l/m 5,5 km/h (1 Bft) W-SW 240 0 min 0,0 UV-I 0 W/m 2,4 C 3,9 C 12,9 km/h (3 Bft)
20.02.2023 22:57 3,9 C 2,8 C 90 % 1023,9 hPa 0,0 l/m 4,7 km/h (1 Bft) SW 236 0 min 0,0 UV-I 0 W/m 2,4 C 3,9 C 12,9 km/h (3 Bft)
20.02.2023 23:00 3,8 C 2,2 C 90 % 1023,9 hPa 0,0 l/m 6,0 km/h (2 Bft) SW 228 0 min 0,0 UV-I 0 W/m 2,3 C 3,8 C 14,5 km/h (3 Bft)
20.02.2023 23:03 3,8 C 2,2 C 90 % 1023,9 hPa 0,0 l/m 2,7 km/h (1 Bft) SW 225 0 min 0,0 UV-I 0 W/m 2,3 C 3,8 C 9,7 km/h (2 Bft)
20.02.2023 23:06 3,7 C 2,2 C 90 % 1023,8 hPa 0,0 l/m 1,6 km/h (1 Bft) SW 225 0 min 0,0 UV-I 0 W/m 2,2 C 3,7 C 4,8 km/h (1 Bft)
20.02.2023 23:09 3,6 C 2,2 C 90 % 1023,9 hPa 0,0 l/m 3,1 km/h (1 Bft) SW 221 0 min 0,0 UV-I 0 W/m 2,1 C 3,6 C 6,4 km/h (2 Bft)
20.02.2023 23:12 3,6 C 2,2 C 90 % 1023,9 hPa 0,0 l/m 2,7 km/h (1 Bft) SW 221 0 min 0,0 UV-I 0 W/m 2,1 C 3,6 C 6,4 km/h (2 Bft)
20.02.2023 23:15 3,6 C 2,2 C 91 % 1023,8 hPa 0,0 l/m 3,8 km/h (1 Bft) SW 236 0 min 0,0 UV-I 0 W/m 2,3 C 3,6 C 9,7 km/h (2 Bft)
20.02.2023 23:18 3,7 C 2,2 C 91 % 1023,8 hPa 0,0 l/m 4,1 km/h (1 Bft) SW 231 0 min 0,0 UV-I 0 W/m 2,4 C 3,7 C 8,0 km/h (2 Bft)
20.02.2023 23:21 3,7 C 2,2 C 91 % 1024,0 hPa 0,0 l/m 4,4 km/h (1 Bft) W-SW 246 0 min 0,0 UV-I 0 W/m 2,4 C 3,7 C 9,7 km/h (2 Bft)
20.02.2023 23:24 3,8 C 2,2 C 91 % 1023,8 hPa 0,0 l/m 4,6 km/h (1 Bft) SW 229 0 min 0,0 UV-I 0 W/m 2,5 C 3,8 C 9,7 km/h (2 Bft)
20.02.2023 23:27 3,6 C 2,2 C 91 % 1023,8 hPa 0,0 l/m 3,9 km/h (1 Bft) SW 236 0 min 0,0 UV-I 0 W/m 2,3 C 3,6 C 8,0 km/h (2 Bft)
20.02.2023 23:30 3,5 C 2,2 C 91 % 1023,9 hPa 0,0 l/m 4,4 km/h (1 Bft) W-SW 253 0 min 0,0 UV-I 0 W/m 2,2 C 3,5 C 9,7 km/h (2 Bft)
20.02.2023 23:33 3,6 C 2,2 C 91 % 1023,9 hPa 0,0 l/m 4,6 km/h (1 Bft) SW 215 0 min 0,0 UV-I 0 W/m 2,3 C 3,6 C 11,3 km/h (2 Bft)
20.02.2023 23:36 3,6 C 2,2 C 91 % 1023,8 hPa 0,0 l/m 3,9 km/h (1 Bft) SW 225 0 min 0,0 UV-I 0 W/m 2,3 C 3,6 C 8,0 km/h (2 Bft)
20.02.2023 23:39 3,6 C 2,2 C 91 % 1023,8 hPa 0,0 l/m 5,3 km/h (1 Bft) W-SW 243 0 min 0,0 UV-I 0 W/m 2,3 C 3,6 C 11,3 km/h (2 Bft)
20.02.2023 23:42 3,5 C 2,2 C 91 % 1023,9 hPa 0,0 l/m 5,3 km/h (1 Bft) SW 232 0 min 0,0 UV-I 0 W/m 2,2 C 3,5 C 11,3 km/h (2 Bft)
20.02.2023 23:45 3,4 C 1,7 C 91 % 1023,9 hPa 0,0 l/m 4,8 km/h (1 Bft) W-SW 254 0 min 0,0 UV-I 0 W/m 2,1 C 3,4 C 9,7 km/h (2 Bft)
20.02.2023 23:48 3,4 C 1,7 C 91 % 1023,9 hPa 0,0 l/m 4,4 km/h (1 Bft) W-SW 240 0 min 0,0 UV-I 0 W/m 2,1 C 3,4 C 11,3 km/h (2 Bft)
20.02.2023 23:51 3,5 C 2,2 C 91 % 1024,0 hPa 0,0 l/m 4,2 km/h (1 Bft) W-SW 245 0 min 0,0 UV-I 0 W/m 2,2 C 3,5 C 9,7 km/h (2 Bft)
20.02.2023 23:54 3,4 C 2,2 C 91 % 1023,8 hPa 0,0 l/m 4,5 km/h (1 Bft) SW 225 0 min 0,0 UV-I 0 W/m 2,1 C 3,4 C 8,0 km/h (2 Bft)
20.02.2023 23:57 3,3 C 2,2 C 91 % 1023,8 hPa 0,0 l/m 3,5 km/h (1 Bft) W-SW 247 0 min 0,0 UV-I 0 W/m 2,0 C 3,3 C 8,0 km/h (2 Bft)
20.02.2023 23:58 3,3 C 2,2 C 91 % 1023,8 hPa 0,0 l/m 4,8 km/h (1 Bft) SW 225 0 min 0,0 UV-I 0 W/m 2,0 C 3,3 C 8,0 km/h (2 Bft)
20.02.2023 23:59 3,3 C 2,2 C 91 % 1023,8 hPa 0,0 l/m 6,4 km/h (2 Bft) W-SW 247 0 min 0,0 UV-I 0 W/m 2,0 C 3,3 C 12,9 km/h (3 Bft)
_ Min-Zeit 01:42 01:37 16:24 17:30 - 00:18 - - - - - 01:39 05:14 19:30
Minimum _ 1,9 C 0,0 C 69 % 1023,7 hPa - 0,0 km/h (0 Bft) - - - - - 0,8 C -6,0 C 0,0 km/h (0 Bft)
_ Max-Zeit 15:27 15:21 03:13 00:33 00:00 09:44 - - 12:18 12:13 12:13 15:45 16:48 11:45
Maximum _ 11,7 C 18,3 C 94 % 1029,6 hPa 0,0 l/m 22,5 km/h
S-SW (4 Bft)
- - 4 min 2,2 UV-I 475 W/m 7,4 C 10,8 C 35,4 km/h
S (5 Bft)
Durchschnitt _ 5,4 C 6,1 C 86 % 1026,4 hPa #0,0 l/m 9,7 km/h (2 Bft) S-SW - #6:11 h 1,5 UV-I 281 W/m 3,2 C 2,5 C 15,9 km/h (3 Bft)